Time,TemperatureF,DewpointF,PressureIn,WindDirection,WindDirectionDegrees,WindSpeedMPH,WindSpeedGustMPH,Humidity,HourlyPrecipIn,Conditions,Clouds,dailyrainin,SoftwareType,DateUTC
2013-07-27 00:00:00,58.1,49.8,0.00,East,90,10.7,15.4,74,0.00,,---,0.00,VWS V14.01,2013-07-27 05:00:00,
2013-07-27 00:01:00,57.5,49.3,0.00,ESE,112,10.3,11.4,74,0.00,,---,0.00,VWS V14.01,2013-07-27 05:01:00,
2013-07-27 00:02:00,57.3,49.5,0.00,ESE,112,9.8,12.5,75,0.00,,---,0.00,VWS V14.01,2013-07-27 05:02:00,
2013-07-27 00:03:00,57.3,49.5,0.00,East,90,8.7,12.5,75,0.00,,---,0.00,VWS V14.01,2013-07-27 05:03:00,
2013-07-27 00:04:00,57.3,49.5,0.00,NE,45,10.5,13.0,75,0.00,,---,0.00,VWS V14.01,2013-07-27 05:04:00,
2013-07-27 00:05:00,57.3,49.5,0.00,ESE,112,11.0,14.5,75,0.00,,---,0.00,VWS V14.01,2013-07-27 05:05:00,
2013-07-27 00:06:00,57.2,49.3,0.00,ESE,112,10.5,14.5,75,0.00,,---,0.00,VWS V14.01,2013-07-27 05:06:00,
2013-07-27 00:07:00,57.2,49.3,0.00,East,90,10.5,14.5,75,0.00,,---,0.00,VWS V14.01,2013-07-27 05:07:00,
2013-07-27 00:08:00,57.2,49.0,0.00,East,90,8.1,14.5,74,0.00,,---,0.00,VWS V14.01,2013-07-27 05:08:00,
2013-07-27 00:09:00,57.2,49.3,0.00,East,90,6.0,14.5,75,0.00,,---,0.00,VWS V14.01,2013-07-27 05:09:00,
2013-07-27 00:10:00,57.2,49.0,0.00,ESE,112,7.8,14.5,74,0.00,,---,0.00,VWS V14.01,2013-07-27 05:10:00,
2013-07-27 00:11:00,57.2,49.0,0.00,East,90,8.7,14.5,74,0.00,,---,0.00,VWS V14.01,2013-07-27 05:11:00,
2013-07-27 00:12:00,57.3,49.1,0.00,East,90,10.3,14.5,74,0.00,,---,0.00,VWS V14.01,2013-07-27 05:12:00,
2013-07-27 00:13:00,57.2,49.0,0.00,SE,135,8.7,14.5,74,0.00,,---,0.00,VWS V14.01,2013-07-27 05:13:00,
2013-07-27 00:14:00,57.2,49.0,0.00,SE,135,7.2,14.5,74,0.00,,---,0.00,VWS V14.01,2013-07-27 05:14:00,
2013-07-27 00:15:00,57.2,49.0,0.00,SE,135,7.2,14.5,74,0.00,,---,0.00,VWS V14.01,2013-07-27 05:15:00,
2013-07-27 00:16:00,57.3,48.8,0.00,ESE,112,7.6,10.7,73,0.00,,---,0.00,VWS V14.01,2013-07-27 05:16:00,
2013-07-27 00:17:00,57.3,48.8,0.00,East,90,10.7,10.7,73,0.00,,---,0.00,VWS V14.01,2013-07-27 05:17:00,
2013-07-27 00:18:00,57.3,49.1,0.00,NE,45,9.6,11.9,74,0.00,,---,0.00,VWS V14.01,2013-07-27 05:18:00,
2013-07-27 00:19:00,57.3,49.1,0.00,East,90,8.7,11.9,74,0.00,,---,0.00,VWS V14.01,2013-07-27 05:19:00,
2013-07-27 00:20:00,57.3,48.8,0.00,SE,135,12.3,12.3,73,0.00,,---,0.00,VWS V14.01,2013-07-27 05:20:00,
2013-07-27 00:21:00,57.3,48.8,0.00,East,90,7.4,12.3,73,0.00,,---,0.00,VWS V14.01,2013-07-27 05:21:00,
2013-07-27 00:22:00,57.3,48.8,0.00,East,90,6.0,12.3,73,0.00,,---,0.00,VWS V14.01,2013-07-27 05:22:00,
2013-07-27 00:23:00,57.3,48.8,0.00,ESE,112,6.3,12.3,73,0.00,,---,0.00,VWS V14.01,2013-07-27 05:23:00,
2013-07-27 00:24:00,57.5,48.9,0.00,ESE,112,11.9,13.4,73,0.00,,---,0.00,VWS V14.01,2013-07-27 05:24:00,
2013-07-27 00:25:00,57.5,48.9,0.00,East,90,10.3,13.4,73,0.00,,---,0.00,VWS V14.01,2013-07-27 05:25:00,
2013-07-27 00:26:00,57.5,48.6,0.00,ESE,112,12.8,13.4,72,0.00,,---,0.00,VWS V14.01,2013-07-27 05:26:00,
2013-07-27 00:27:00,57.5,48.6,0.00,SE,135,9.8,13.4,72,0.00,,---,0.00,VWS V14.01,2013-07-27 05:27:00,
2013-07-27 00:28:00,57.5,48.6,0.00,ENE,68,8.5,13.4,72,0.00,,---,0.00,VWS V14.01,2013-07-27 05:28:00,
2013-07-27 00:29:00,57.5,48.6,0.00,East,90,13.0,13.4,72,0.00,,---,0.00,VWS V14.01,2013-07-27 05:29:00,
2013-07-27 00:30:00,57.3,48.4,0.00,ESE,112,7.8,13.4,72,0.00,,---,0.00,VWS V14.01,2013-07-27 05:30:00,
2013-07-27 00:31:00,57.3,48.4,0.00,ESE,112,11.0,12.3,72,0.00,,---,0.00,VWS V14.01,2013-07-27 05:31:00,
2013-07-27 00:32:00,57.3,48.4,0.00,ESE,112,6.3,12.3,72,0.00,,---,0.00,VWS V14.01,2013-07-27 05:32:00,
2013-07-27 00:33:00,57.3,48.4,0.00,East,90,14.8,14.8,72,0.00,,---,0.00,VWS V14.01,2013-07-27 05:33:00,
2013-07-27 00:34:00,57.3,48.4,0.00,SE,135,15.4,15.4,72,0.00,,---,0.00,VWS V14.01,2013-07-27 05:34:00,
2013-07-27 00:35:00,57.3,48.0,0.00,SE,135,9.4,15.4,71,0.00,,---,0.00,VWS V14.01,2013-07-27 05:35:00,
2013-07-27 00:36:00,57.3,48.4,0.00,SE,135,10.7,15.4,72,0.00,,---,0.00,VWS V14.01,2013-07-27 05:36:00,
2013-07-27 00:37:00,57.3,48.4,0.00,SE,135,10.3,15.4,72,0.00,,---,0.00,VWS V14.01,2013-07-27 05:37:00,
2013-07-27 00:38:00,57.2,49.0,0.00,SE,135,6.0,15.4,74,0.00,,---,0.00,VWS V14.01,2013-07-27 05:38:00,
2013-07-27 00:39:00,57.0,49.2,0.00,SE,135,11.0,15.4,75,0.00,,---,0.00,VWS V14.01,2013-07-27 05:39:00,
2013-07-27 00:40:00,57.0,49.2,0.00,NE,45,10.5,15.4,75,0.00,,---,0.00,VWS V14.01,2013-07-27 05:40:00,
2013-07-27 00:41:00,57.0,49.2,0.00,East,90,7.6,15.4,75,0.00,,---,0.00,VWS V14.01,2013-07-27 05:41:00,
2013-07-27 00:42:00,56.8,49.7,0.00,ESE,112,7.8,15.4,77,0.00,,---,0.00,VWS V14.01,2013-07-27 05:42:00,
2013-07-27 00:43:00,56.8,49.7,0.00,ESE,112,11.0,15.4,77,0.00,,---,0.00,VWS V14.01,2013-07-27 05:43:00,
2013-07-27 00:44:00,56.8,49.7,0.00,ESE,112,6.5,15.4,77,0.00,,---,0.00,VWS V14.01,2013-07-27 05:44:00,
2013-07-27 00:45:00,56.6,49.5,0.00,ESE,112,12.3,15.4,77,0.00,,---,0.00,VWS V14.01,2013-07-27 05:45:00,
2013-07-27 00:46:00,56.6,49.5,0.00,ESE,112,14.8,14.8,77,0.00,,---,0.00,VWS V14.01,2013-07-27 05:46:00,
2013-07-27 00:47:00,56.6,49.5,0.00,ESE,112,13.0,17.0,77,0.00,,---,0.00,VWS V14.01,2013-07-27 05:47:00,
2013-07-27 00:48:00,56.6,49.8,0.00,ESE,112,12.3,17.0,78,0.00,,---,0.00,VWS V14.01,2013-07-27 05:48:00,
2013-07-27 00:49:00,56.8,50.0,0.00,SE,135,13.2,17.0,78,0.00,,---,0.00,VWS V14.01,2013-07-27 05:49:00,
2013-07-27 00:50:00,57.0,50.5,0.00,SE,135,8.5,17.0,79,0.00,,---,0.00,VWS V14.01,2013-07-27 05:50:00,
2013-07-27 00:51:00,57.0,50.5,0.00,SE,135,11.0,17.0,79,0.00,,---,0.00,VWS V14.01,2013-07-27 05:51:00,
2013-07-27 00:52:00,57.0,50.5,0.00,SE,135,9.6,17.0,79,0.00,,---,0.00,VWS V14.01,2013-07-27 05:52:00,
2013-07-27 00:53:00,57.2,51.7,0.00,ESE,112,13.2,17.0,82,0.00,,---,0.00,VWS V14.01,2013-07-27 05:53:00,
2013-07-27 00:54:00,57.0,50.5,0.00,SE,135,10.3,17.0,79,0.00,,---,0.00,VWS V14.01,2013-07-27 05:54:00,
2013-07-27 00:55:00,57.2,50.7,0.00,SE,135,10.3,17.0,79,0.00,,---,0.00,VWS V14.01,2013-07-27 05:55:00,
2013-07-27 00:56:00,57.2,51.1,0.00,SE,135,8.5,17.0,80,0.00,,---,0.00,VWS V14.01,2013-07-27 05:56:00,
2013-07-27 00:57:00,57.3,51.2,0.00,SE,135,8.5,17.0,80,0.00,,---,0.00,VWS V14.01,2013-07-27 05:57:00,
2013-07-27 00:58:00,57.2,51.1,0.00,ESE,112,10.5,17.0,80,0.00,,---,0.00,VWS V14.01,2013-07-27 05:58:00,
2013-07-27 00:59:00,57.2,51.1,0.00,ESE,112,10.5,17.0,80,0.00,,---,0.00,VWS V14.01,2013-07-27 05:59:00,
2013-07-27 01:00:00,57.2,51.1,0.00,East,90,9.2,17.0,80,0.00,,---,0.00,VWS V14.01,2013-07-27 06:00:00,
2013-07-27 01:01:00,57.0,50.5,0.00,ESE,112,8.7,9.2,79,0.00,,---,0.00,VWS V14.01,2013-07-27 06:01:00,
2013-07-27 01:02:00,57.0,50.5,0.00,SE,135,10.7,10.7,79,0.00,,---,0.00,VWS V14.01,2013-07-27 06:02:00,
2013-07-27 01:03:00,57.0,50.5,0.00,ESE,112,8.5,10.7,79,0.00,,---,0.00,VWS V14.01,2013-07-27 06:03:00,
2013-07-27 01:04:00,57.0,50.9,0.00,SE,135,10.1,11.4,80,0.00,,---,0.00,VWS V14.01,2013-07-27 06:04:00,
2013-07-27 01:05:00,57.0,50.5,0.00,SE,135,12.5,12.5,79,0.00,,---,0.00,VWS V14.01,2013-07-27 06:05:00,
2013-07-27 01:06:00,57.0,50.5,0.00,SE,135,10.7,13.9,79,0.00,,---,0.00,VWS V14.01,2013-07-27 06:06:00,
2013-07-27 01:08:00,57.0,49.8,0.00,SE,135,8.5,13.9,77,0.00,,---,0.00,VWS V14.01,2013-07-27 06:08:00,
2013-07-27 01:09:00,57.2,50.7,0.00,ESE,112,10.7,13.9,79,0.00,,---,0.00,VWS V14.01,2013-07-27 06:09:00,
2013-07-27 01:10:00,57.2,50.4,0.00,East,90,8.7,13.9,78,0.00,,---,0.00,VWS V14.01,2013-07-27 06:10:00,
2013-07-27 01:11:00,57.3,50.5,0.00,SE,135,10.7,13.9,78,0.00,,---,0.00,VWS V14.01,2013-07-27 06:11:00,
2013-07-27 01:12:00,57.5,50.4,0.00,ESE,112,11.0,13.9,77,0.00,,---,0.00,VWS V14.01,2013-07-27 06:12:00,
2013-07-27 01:13:00,57.5,50.4,0.00,ESE,112,11.0,13.9,77,0.00,,---,0.00,VWS V14.01,2013-07-27 06:13:00,
2013-07-27 01:14:00,57.5,50.4,0.00,SE,135,10.7,14.8,77,0.00,,---,0.00,VWS V14.01,2013-07-27 06:14:00,
2013-07-27 01:15:00,57.9,50.0,0.00,SE,135,8.5,14.8,75,0.00,,---,0.00,VWS V14.01,2013-07-27 06:15:00,
2013-07-27 01:16:00,58.4,51.2,0.00,ESE,112,8.7,8.7,77,0.00,,---,0.00,VWS V14.01,2013-07-27 06:16:00,
2013-07-27 01:17:00,58.4,51.6,0.00,SE,135,12.5,12.5,78,0.00,,---,0.00,VWS V14.01,2013-07-27 06:17:00,
2013-07-27 01:19:00,58.4,51.6,0.00,ESE,112,9.8,12.5,78,0.00,,---,0.00,VWS V14.01,2013-07-27 06:19:00,
2013-07-27 01:20:00,59.0,50.3,0.00,SE,135,10.7,12.5,73,0.00,,---,0.00,VWS V14.01,2013-07-27 06:20:00,
2013-07-27 01:21:00,59.0,50.3,0.00,SE,135,9.2,12.5,73,0.00,,---,0.00,VWS V14.01,2013-07-27 06:21:00,
2013-07-27 01:22:00,59.1,50.9,0.00,SE,135,13.0,13.6,74,0.00,,---,0.00,VWS V14.01,2013-07-27 06:22:00,
2013-07-27 01:23:00,59.1,50.9,0.00,East,90,14.8,14.8,74,0.00,,---,0.00,VWS V14.01,2013-07-27 06:23:00,
2013-07-27 01:24:00,59.1,49.4,0.00,East,90,14.1,14.8,70,0.00,,---,0.00,VWS V14.01,2013-07-27 06:24:00,
2013-07-27 01:25:00,59.3,49.9,0.00,ESE,112,8.1,14.8,71,0.00,,---,0.00,VWS V14.01,2013-07-27 06:25:00,
2013-07-27 01:26:00,59.1,49.8,0.00,SE,135,9.8,14.8,71,0.00,,---,0.00,VWS V14.01,2013-07-27 06:26:00,
2013-07-27 01:27:00,59.1,49.8,0.00,SE,135,12.1,14.8,71,0.00,,---,0.00,VWS V14.01,2013-07-27 06:27:00,
2013-07-27 01:28:00,59.1,49.8,0.00,ESE,112,12.1,14.8,71,0.00,,---,0.00,VWS V14.01,2013-07-27 06:28:00,
2013-07-27 01:29:00,59.0,49.2,0.00,SE,135,14.5,14.8,70,0.00,,---,0.00,VWS V14.01,2013-07-27 06:29:00,
2013-07-27 01:30:00,59.0,49.2,0.00,SE,135,10.7,14.8,70,0.00,,---,0.00,VWS V14.01,2013-07-27 06:30:00,
2013-07-27 01:31:00,59.1,49.8,0.00,SE,135,10.7,13.2,71,0.00,,---,0.00,VWS V14.01,2013-07-27 06:31:00,
2013-07-27 01:32:00,59.3,49.9,0.00,SE,135,14.1,14.1,71,0.00,,---,0.00,VWS V14.01,2013-07-27 06:32:00,
2013-07-27 01:33:00,59.5,50.1,0.00,ESE,112,10.1,15.2,71,0.00,,---,0.00,VWS V14.01,2013-07-27 06:33:00,
2013-07-27 01:34:00,59.5,50.1,0.00,SE,135,15.4,15.4,71,0.00,,---,0.00,VWS V14.01,2013-07-27 06:34:00,
2013-07-27 01:35:00,59.7,49.9,0.00,SE,135,12.8,15.9,70,0.00,,---,0.00,VWS V14.01,2013-07-27 06:35:00,
2013-07-27 01:36:00,59.9,50.1,0.00,SE,135,12.8,17.2,70,0.00,,---,0.00,VWS V14.01,2013-07-27 06:36:00,
2013-07-27 01:37:00,60.0,49.8,0.00,SE,135,13.0,19.2,69,0.00,,---,0.00,VWS V14.01,2013-07-27 06:37:00,
2013-07-27 01:38:00,60.0,49.5,0.00,East,90,15.2,19.2,68,0.00,,---,0.00,VWS V14.01,2013-07-27 06:38:00,
2013-07-27 01:39:00,60.0,49.5,0.00,SE,135,13.0,19.2,68,0.00,,---,0.00,VWS V14.01,2013-07-27 06:39:00,
2013-07-27 01:40:00,60.2,50.0,0.00,SE,135,12.5,19.2,69,0.00,,---,0.00,VWS V14.01,2013-07-27 06:40:00,
2013-07-27 01:41:00,60.0,49.1,0.00,SE,135,13.0,19.2,67,0.00,,---,0.00,VWS V14.01,2013-07-27 06:41:00,
2013-07-27 01:42:00,60.2,49.6,0.00,ESE,112,9.0,19.2,68,0.00,,---,0.00,VWS V14.01,2013-07-27 06:42:00,
2013-07-27 01:43:00,60.2,49.6,0.00,East,90,10.3,19.2,68,0.00,,---,0.00,VWS V14.01,2013-07-27 06:43:00,
2013-07-27 01:44:00,60.2,49.6,0.00,SE,135,14.8,19.2,68,0.00,,---,0.00,VWS V14.01,2013-07-27 06:44:00,
2013-07-27 01:45:00,60.2,49.2,0.00,SE,135,8.5,19.2,67,0.00,,---,0.00,VWS V14.01,2013-07-27 06:45:00,
2013-07-27 01:46:00,60.4,49.0,0.00,SE,135,16.8,18.8,66,0.00,,---,0.00,VWS V14.01,2013-07-27 06:46:00,
2013-07-27 01:47:00,60.6,48.8,0.00,SE,135,17.5,18.8,65,0.00,,---,0.00,VWS V14.01,2013-07-27 06:47:00,
2013-07-27 01:49:00,60.6,48.8,0.00,SE,135,14.5,18.8,65,0.00,,---,0.00,VWS V14.01,2013-07-27 06:49:00,
2013-07-27 01:50:00,60.9,48.7,0.00,SE,135,15.2,18.8,64,0.00,,---,0.00,VWS V14.01,2013-07-27 06:50:00,
2013-07-27 01:51:00,61.1,49.3,0.00,ESE,112,14.3,18.8,65,0.00,,---,0.00,VWS V14.01,2013-07-27 06:51:00,
2013-07-27 01:52:00,61.1,48.9,0.00,East,90,10.1,18.8,64,0.00,,---,0.00,VWS V14.01,2013-07-27 06:52:00,
2013-07-27 01:53:00,61.3,49.5,0.00,SE,135,13.9,18.8,65,0.00,,---,0.00,VWS V14.01,2013-07-27 06:53:00,
2013-07-27 01:54:00,61.1,48.4,0.00,SE,135,12.1,18.8,63,0.00,,---,0.00,VWS V14.01,2013-07-27 06:54:00,
2013-07-27 01:56:00,61.1,48.4,0.00,ESE,112,10.7,18.8,63,0.00,,---,0.00,VWS V14.01,2013-07-27 06:56:00,
2013-07-27 01:57:00,60.4,48.2,0.00,SE,135,8.1,18.8,64,0.00,,---,0.00,VWS V14.01,2013-07-27 06:57:00,
2013-07-27 01:58:00,60.2,48.0,0.00,SE,135,13.2,18.8,64,0.00,,---,0.00,VWS V14.01,2013-07-27 06:58:00,
2013-07-27 01:59:00,60.0,47.8,0.00,ESE,112,9.4,18.8,64,0.00,,---,0.00,VWS V14.01,2013-07-27 06:59:00,
2013-07-27 02:00:00,59.9,47.7,0.00,SE,135,12.5,18.8,64,0.00,,---,0.00,VWS V14.01,2013-07-27 07:00:00,
2013-07-27 02:01:00,59.7,47.5,0.00,SE,135,13.0,13.0,64,0.00,,---,0.00,VWS V14.01,2013-07-27 07:01:00,
2013-07-27 02:02:00,59.5,47.3,0.00,SE,135,12.3,15.7,64,0.00,,---,0.00,VWS V14.01,2013-07-27 07:02:00,
2013-07-27 02:03:00,59.5,47.3,0.00,SE,135,12.5,15.7,64,0.00,,---,0.00,VWS V14.01,2013-07-27 07:03:00,
2013-07-27 02:04:00,59.1,46.6,0.00,SE,135,10.7,15.7,63,0.00,,---,0.00,VWS V14.01,2013-07-27 07:04:00,
2013-07-27 02:05:00,59.1,47.0,0.00,ESE,112,15.4,15.7,64,0.00,,---,0.00,VWS V14.01,2013-07-27 07:05:00,
2013-07-27 02:06:00,59.1,47.4,0.00,SE,135,12.3,15.7,65,0.00,,---,0.00,VWS V14.01,2013-07-27 07:06:00,
2013-07-27 02:07:00,59.0,46.8,0.00,SE,135,14.1,16.6,64,0.00,,---,0.00,VWS V14.01,2013-07-27 07:07:00,
2013-07-27 02:08:00,59.0,46.0,0.00,SE,135,15.4,16.6,62,0.00,,---,0.00,VWS V14.01,2013-07-27 07:08:00,
2013-07-27 02:09:00,58.8,45.4,0.00,SE,135,17.7,18.6,61,0.00,,---,0.00,VWS V14.01,2013-07-27 07:09:00,
2013-07-27 02:10:00,58.8,45.4,0.00,ESE,112,17.2,19.7,61,0.00,,---,0.00,VWS V14.01,2013-07-27 07:10:00,
2013-07-27 02:11:00,58.8,44.9,0.00,SE,135,17.7,20.4,60,0.00,,---,0.00,VWS V14.01,2013-07-27 07:11:00,
2013-07-27 02:12:00,58.8,44.9,0.00,SE,135,13.2,20.4,60,0.00,,---,0.00,VWS V14.01,2013-07-27 07:12:00,
2013-07-27 02:13:00,58.8,44.9,0.00,SE,135,12.1,20.4,60,0.00,,---,0.00,VWS V14.01,2013-07-27 07:13:00,
2013-07-27 02:14:00,58.8,44.9,0.00,SE,135,12.8,20.4,60,0.00,,---,0.00,VWS V14.01,2013-07-27 07:14:00,
2013-07-27 02:15:00,59.3,45.9,0.00,SE,135,17.7,20.4,61,0.00,,---,0.00,VWS V14.01,2013-07-27 07:15:00,
2013-07-27 02:16:00,59.5,45.2,0.00,SE,135,15.2,17.7,59,0.00,,---,0.00,VWS V14.01,2013-07-27 07:16:00,
2013-07-27 02:17:00,59.5,45.6,0.00,SE,135,15.2,17.7,60,0.00,,---,0.00,VWS V14.01,2013-07-27 07:17:00,
2013-07-27 02:18:00,59.9,46.4,0.00,SE,135,11.0,17.7,61,0.00,,---,0.00,VWS V14.01,2013-07-27 07:18:00,
2013-07-27 02:19:00,59.9,46.4,0.00,SE,135,10.5,17.7,61,0.00,,---,0.00,VWS V14.01,2013-07-27 07:19:00,
2013-07-27 02:20:00,59.9,46.4,0.00,SE,135,10.5,17.7,61,0.00,,---,0.00,VWS V14.01,2013-07-27 07:20:00,
2013-07-27 02:21:00,60.2,45.4,0.00,ESE,112,9.6,17.7,58,0.00,,---,0.00,VWS V14.01,2013-07-27 07:21:00,
2013-07-27 02:22:00,60.2,45.4,0.00,SE,135,14.1,17.7,58,0.00,,---,0.00,VWS V14.01,2013-07-27 07:22:00,
2013-07-27 02:23:00,60.2,45.4,0.00,ESE,112,12.3,17.7,58,0.00,,---,0.00,VWS V14.01,2013-07-27 07:23:00,
2013-07-27 02:24:00,60.2,44.5,0.00,SE,135,14.8,17.7,56,0.00,,---,0.00,VWS V14.01,2013-07-27 07:24:00,
2013-07-27 02:26:00,60.2,44.5,0.00,ESE,112,13.0,17.7,56,0.00,,---,0.00,VWS V14.01,2013-07-27 07:26:00,
2013-07-27 02:27:00,60.4,44.2,0.00,ESE,112,12.5,17.7,55,0.00,,---,0.00,VWS V14.01,2013-07-27 07:27:00,
2013-07-27 02:28:00,60.4,44.2,0.00,ESE,112,12.8,17.7,55,0.00,,---,0.00,VWS V14.01,2013-07-27 07:28:00,
2013-07-27 02:29:00,60.4,43.7,0.00,SE,135,14.3,17.9,54,0.00,,---,0.00,VWS V14.01,2013-07-27 07:29:00,
2013-07-27 02:30:00,60.6,43.9,0.00,SE,135,12.3,18.1,54,0.00,,---,0.00,VWS V14.01,2013-07-27 07:30:00,
2013-07-27 02:32:00,60.6,43.9,0.00,SE,135,12.8,12.8,54,0.00,,---,0.00,VWS V14.01,2013-07-27 07:32:00,
2013-07-27 02:33:00,60.8,44.0,0.00,East,90,15.2,17.7,54,0.00,,---,0.00,VWS V14.01,2013-07-27 07:33:00,
2013-07-27 02:34:00,60.9,44.2,0.00,SE,135,12.8,17.7,54,0.00,,---,0.00,VWS V14.01,2013-07-27 07:34:00,
2013-07-27 02:35:00,61.1,44.4,0.00,ESE,112,15.4,17.7,54,0.00,,---,0.00,VWS V14.01,2013-07-27 07:35:00,
2013-07-27 02:36:00,61.1,44.4,0.00,SE,135,12.5,17.7,54,0.00,,---,0.00,VWS V14.01,2013-07-27 07:36:00,
2013-07-27 02:37:00,61.1,44.4,0.00,SE,135,12.5,17.7,54,0.00,,---,0.00,VWS V14.01,2013-07-27 07:37:00,
2013-07-27 02:38:00,60.8,44.0,0.00,SE,135,10.7,17.7,54,0.00,,---,0.00,VWS V14.01,2013-07-27 07:38:00,
2013-07-27 02:40:00,60.8,44.0,0.00,SE,135,12.5,17.7,54,0.00,,---,0.00,VWS V14.01,2013-07-27 07:40:00,
2013-07-27 02:41:00,59.9,43.2,0.00,ESE,112,11.2,17.7,54,0.00,,---,0.00,VWS V14.01,2013-07-27 07:41:00,
2013-07-27 02:42:00,59.9,43.2,0.00,ESE,112,12.3,17.7,54,0.00,,---,0.00,VWS V14.01,2013-07-27 07:42:00,
2013-07-27 02:43:00,59.9,43.2,0.00,SE,135,10.5,17.7,54,0.00,,---,0.00,VWS V14.01,2013-07-27 07:43:00,
2013-07-27 02:44:00,59.9,43.2,0.00,SE,135,10.5,17.7,54,0.00,,---,0.00,VWS V14.01,2013-07-27 07:44:00,
2013-07-27 02:45:00,59.3,43.2,0.00,ESE,112,10.3,17.7,55,0.00,,---,0.00,VWS V14.01,2013-07-27 07:45:00,
2013-07-27 02:46:00,59.1,43.0,0.00,SE,135,12.1,13.2,55,0.00,,---,0.00,VWS V14.01,2013-07-27 07:46:00,
2013-07-27 02:47:00,59.0,42.8,0.00,SE,135,12.3,13.2,55,0.00,,---,0.00,VWS V14.01,2013-07-27 07:47:00,
2013-07-27 02:48:00,59.0,42.8,0.00,SE,135,10.3,16.3,55,0.00,,---,0.00,VWS V14.01,2013-07-27 07:48:00,
2013-07-27 02:49:00,59.0,42.8,0.00,SE,135,7.6,16.3,55,0.00,,---,0.00,VWS V14.01,2013-07-27 07:49:00,
2013-07-27 02:50:00,58.8,43.1,0.00,SE,135,6.3,16.3,56,0.00,,---,0.00,VWS V14.01,2013-07-27 07:50:00,
2013-07-27 02:51:00,58.8,43.1,0.00,ESE,112,5.6,16.3,56,0.00,,---,0.00,VWS V14.01,2013-07-27 07:51:00,
2013-07-27 02:52:00,58.6,43.4,0.00,SE,135,7.6,16.3,57,0.00,,---,0.00,VWS V14.01,2013-07-27 07:52:00,
2013-07-27 02:53:00,58.6,43.4,0.00,East,90,10.3,16.3,57,0.00,,---,0.00,VWS V14.01,2013-07-27 07:53:00,
2013-07-27 02:54:00,58.4,43.3,0.00,East,90,5.6,16.3,57,0.00,,---,0.00,VWS V14.01,2013-07-27 07:54:00,
2013-07-27 02:55:00,58.4,43.7,0.00,East,90,6.0,16.3,58,0.00,,---,0.00,VWS V14.01,2013-07-27 07:55:00,
2013-07-27 02:56:00,58.4,43.7,0.00,East,90,4.0,16.3,58,0.00,,---,0.00,VWS V14.01,2013-07-27 07:56:00,
2013-07-27 02:57:00,58.4,43.7,0.00,NE,45,3.6,16.3,58,0.00,,---,0.00,VWS V14.01,2013-07-27 07:57:00,
2013-07-27 02:58:00,58.4,43.7,0.00,NE,45,3.6,16.3,58,0.00,,---,0.00,VWS V14.01,2013-07-27 07:58:00,
2013-07-27 02:59:00,58.2,44.9,0.00,NE,45,3.8,16.3,61,0.00,,---,0.00,VWS V14.01,2013-07-27 07:59:00,
2013-07-27 03:00:00,58.2,45.3,0.00,NE,45,4.3,16.3,62,0.00,,---,0.00,VWS V14.01,2013-07-27 08:00:00,
2013-07-27 03:01:00,58.1,45.1,0.00,NE,45,3.1,4.3,62,0.00,,---,0.00,VWS V14.01,2013-07-27 08:01:00,
2013-07-27 03:02:00,58.1,45.1,0.00,ENE,68,3.4,4.3,62,0.00,,---,0.00,VWS V14.01,2013-07-27 08:02:00,
2013-07-27 03:03:00,57.9,45.4,0.00,ESE,112,5.4,5.4,63,0.00,,---,0.00,VWS V14.01,2013-07-27 08:03:00,
2013-07-27 03:04:00,57.9,45.4,0.00,ESE,112,5.6,5.6,63,0.00,,---,0.00,VWS V14.01,2013-07-27 08:04:00,
2013-07-27 03:05:00,57.9,45.8,0.00,SE,135,6.5,6.5,64,0.00,,---,0.00,VWS V14.01,2013-07-27 08:05:00,
2013-07-27 03:06:00,57.9,45.8,0.00,SE,135,7.2,7.4,64,0.00,,---,0.00,VWS V14.01,2013-07-27 08:06:00,
2013-07-27 03:07:00,57.9,46.2,0.00,SE,135,5.6,7.8,65,0.00,,---,0.00,VWS V14.01,2013-07-27 08:07:00,
2013-07-27 03:08:00,57.9,46.2,0.00,SE,135,5.8,7.8,65,0.00,,---,0.00,VWS V14.01,2013-07-27 08:08:00,
2013-07-27 03:10:00,57.9,46.6,0.00,East,90,6.3,7.8,66,0.00,,---,0.00,VWS V14.01,2013-07-27 08:10:00,
2013-07-27 03:11:00,57.9,47.0,0.00,ESE,112,11.4,11.4,67,0.00,,---,0.00,VWS V14.01,2013-07-27 08:11:00,
2013-07-27 03:12:00,57.9,47.0,0.00,SE,135,13.2,13.2,67,0.00,,---,0.00,VWS V14.01,2013-07-27 08:12:00,
2013-07-27 03:13:00,57.9,47.0,0.00,SE,135,12.5,15.4,67,0.00,,---,0.00,VWS V14.01,2013-07-27 08:13:00,
2013-07-27 03:14:00,57.9,47.0,0.00,SE,135,17.5,17.5,67,0.00,,---,0.00,VWS V14.01,2013-07-27 08:14:00,
2013-07-27 03:15:00,58.6,48.1,0.00,SE,135,14.5,17.5,68,0.00,,---,0.00,VWS V14.01,2013-07-27 08:15:00,
2013-07-27 03:16:00,59.0,48.8,0.00,SE,135,11.4,15.2,69,0.00,,---,0.00,VWS V14.01,2013-07-27 08:16:00,
2013-07-27 03:17:00,59.0,48.8,0.00,SE,135,13.2,15.2,69,0.00,,---,0.00,VWS V14.01,2013-07-27 08:17:00,
2013-07-27 03:18:00,60.8,50.5,0.00,SE,135,17.7,17.7,69,0.00,,---,0.00,VWS V14.01,2013-07-27 08:18:00,
2013-07-27 03:19:00,60.8,50.5,0.00,SE,135,17.7,17.7,69,0.00,,---,0.00,VWS V14.01,2013-07-27 08:19:00,
2013-07-27 03:20:00,60.6,51.1,0.00,East,90,18.6,21.9,71,0.00,,---,0.00,VWS V14.01,2013-07-27 08:20:00,
2013-07-27 03:21:00,60.6,51.1,0.00,East,90,18.6,21.9,71,0.00,,---,0.00,VWS V14.01,2013-07-27 08:21:00,
2013-07-27 03:22:00,60.8,52.1,0.00,SE,135,15.4,21.9,73,0.00,,---,0.00,VWS V14.01,2013-07-27 08:22:00,
2013-07-27 03:24:00,60.8,52.4,0.00,SE,135,15.9,21.9,74,0.00,,---,0.00,VWS V14.01,2013-07-27 08:24:00,
2013-07-27 03:25:00,60.8,52.1,0.00,SE,135,12.8,21.9,73,0.00,,---,0.00,VWS V14.01,2013-07-27 08:25:00,
2013-07-27 03:26:00,61.1,51.7,0.00,SE,135,16.1,21.9,71,0.00,,---,0.00,VWS V14.01,2013-07-27 08:26:00,
2013-07-27 03:28:00,61.1,51.7,0.00,SE,135,13.9,21.9,71,0.00,,---,0.00,VWS V14.01,2013-07-27 08:28:00,
2013-07-27 03:29:00,61.3,52.6,0.00,ESE,112,13.0,21.9,73,0.00,,---,0.00,VWS V14.01,2013-07-27 08:29:00,
2013-07-27 03:30:00,61.7,53.3,0.00,ESE,112,14.5,21.9,74,0.00,,---,0.00,VWS V14.01,2013-07-27 08:30:00,
2013-07-27 03:31:00,61.7,52.5,0.00,SE,135,11.0,14.5,72,0.00,,---,0.00,VWS V14.01,2013-07-27 08:31:00,
2013-07-27 03:32:00,61.8,50.0,0.00,SE,135,13.4,20.1,65,0.00,,---,0.00,VWS V14.01,2013-07-27 08:32:00,
2013-07-27 03:33:00,61.8,50.0,0.00,SE,135,13.4,20.1,65,0.00,,---,0.00,VWS V14.01,2013-07-27 08:33:00,
2013-07-27 03:34:00,62.2,50.7,0.00,SE,135,15.2,20.1,66,0.00,,---,0.00,VWS V14.01,2013-07-27 08:34:00,
2013-07-27 03:35:00,62.4,50.9,0.00,SE,135,13.2,20.1,66,0.00,,---,0.00,VWS V14.01,2013-07-27 08:35:00,
2013-07-27 03:36:00,62.4,50.9,0.00,SE,135,13.2,20.1,66,0.00,,---,0.00,VWS V14.01,2013-07-27 08:36:00,
2013-07-27 03:37:00,62.9,49.7,0.00,SE,135,16.8,20.1,62,0.00,,---,0.00,VWS V14.01,2013-07-27 08:37:00,
2013-07-27 03:38:00,62.9,49.7,0.00,SE,135,12.3,20.1,62,0.00,,---,0.00,VWS V14.01,2013-07-27 08:38:00,
2013-07-27 03:39:00,63.3,50.1,0.00,SE,135,15.7,20.1,62,0.00,,---,0.00,VWS V14.01,2013-07-27 08:39:00,
2013-07-27 03:40:00,63.3,48.7,0.00,SE,135,15.2,20.1,59,0.00,,---,0.00,VWS V14.01,2013-07-27 08:40:00,
2013-07-27 03:41:00,63.6,49.1,0.00,SE,135,12.3,20.1,59,0.00,,---,0.00,VWS V14.01,2013-07-27 08:41:00,
2013-07-27 03:42:00,63.6,48.1,0.00,SE,135,17.0,20.1,57,0.00,,---,0.00,VWS V14.01,2013-07-27 08:42:00,
2013-07-27 03:43:00,63.6,48.6,0.00,SE,135,17.0,20.1,58,0.00,,---,0.00,VWS V14.01,2013-07-27 08:43:00,
2013-07-27 03:44:00,63.6,48.6,0.00,SE,135,10.3,20.1,58,0.00,,---,0.00,VWS V14.01,2013-07-27 08:44:00,
2013-07-27 03:45:00,63.8,49.2,0.00,ESE,112,11.0,20.1,59,0.00,,---,0.00,VWS V14.01,2013-07-27 08:45:00,
2013-07-27 03:47:00,63.8,47.8,0.00,SE,135,17.0,17.0,56,0.00,,---,0.00,VWS V14.01,2013-07-27 08:47:00,
2013-07-27 03:48:00,64.4,49.3,0.00,SE,135,13.0,17.0,58,0.00,,---,0.00,VWS V14.01,2013-07-27 08:48:00,
2013-07-27 03:49:00,64.4,49.3,0.00,SE,135,17.2,17.2,58,0.00,,---,0.00,VWS V14.01,2013-07-27 08:49:00,
2013-07-27 03:50:00,64.2,48.7,0.00,SE,135,13.2,17.2,57,0.00,,---,0.00,VWS V14.01,2013-07-27 08:50:00,
2013-07-27 03:52:00,64.5,49.9,0.00,SE,135,11.0,17.2,59,0.00,,---,0.00,VWS V14.01,2013-07-27 08:52:00,
2013-07-27 03:53:00,64.5,48.0,0.00,SE,135,13.6,17.2,55,0.00,,---,0.00,VWS V14.01,2013-07-27 08:53:00,
2013-07-27 03:54:00,64.7,49.2,0.00,ESE,112,12.8,17.2,57,0.00,,---,0.00,VWS V14.01,2013-07-27 08:54:00,
2013-07-27 03:55:00,65.3,50.1,0.00,SE,135,10.7,17.2,58,0.00,,---,0.00,VWS V14.01,2013-07-27 08:55:00,
2013-07-27 03:56:00,65.3,49.7,0.00,SE,135,12.1,17.2,57,0.00,,---,0.00,VWS V14.01,2013-07-27 08:56:00,
2013-07-27 03:57:00,65.4,49.3,0.00,SE,135,10.1,17.2,56,0.00,,---,0.00,VWS V14.01,2013-07-27 08:57:00,
2013-07-27 03:59:00,65.6,50.0,0.00,East,90,8.1,17.2,57,0.00,,---,0.00,VWS V14.01,2013-07-27 08:59:00,
2013-07-27 04:00:00,65.6,50.0,0.00,ESE,112,10.1,17.2,57,0.00,,---,0.00,VWS V14.01,2013-07-27 09:00:00,
2013-07-27 04:01:00,65.4,48.9,0.00,SE,135,12.3,14.5,55,0.00,,---,0.00,VWS V14.01,2013-07-27 09:01:00,
2013-07-27 04:02:00,65.4,48.9,0.00,East,90,9.2,14.5,55,0.00,,---,0.00,VWS V14.01,2013-07-27 09:02:00,
2013-07-27 04:03:00,65.4,48.9,0.00,ENE,68,9.8,14.5,55,0.00,,---,0.00,VWS V14.01,2013-07-27 09:03:00,
2013-07-27 04:04:00,65.4,48.9,0.00,ENE,68,9.8,14.5,55,0.00,,---,0.00,VWS V14.01,2013-07-27 09:04:00,
2013-07-27 04:06:00,65.3,48.2,0.00,ESE,112,8.5,14.5,54,0.00,,---,0.00,VWS V14.01,2013-07-27 09:06:00,
2013-07-27 04:07:00,65.1,48.5,0.00,ESE,112,8.7,14.5,55,0.00,,---,0.00,VWS V14.01,2013-07-27 09:07:00,
2013-07-27 04:08:00,65.1,48.5,0.00,East,90,9.6,14.5,55,0.00,,---,0.00,VWS V14.01,2013-07-27 09:08:00,
2013-07-27 04:09:00,65.1,48.5,0.00,ENE,68,10.3,14.5,55,0.00,,---,0.00,VWS V14.01,2013-07-27 09:09:00,
2013-07-27 04:10:00,65.1,48.0,0.00,ESE,112,6.3,14.5,54,0.00,,---,0.00,VWS V14.01,2013-07-27 09:10:00,
2013-07-27 04:11:00,65.1,48.0,0.00,East,90,9.6,14.5,54,0.00,,---,0.00,VWS V14.01,2013-07-27 09:11:00,
2013-07-27 04:12:00,65.4,49.3,0.00,East,90,6.0,14.5,56,0.00,,---,0.00,VWS V14.01,2013-07-27 09:12:00,
2013-07-27 04:13:00,65.4,49.3,0.00,SE,135,10.7,14.5,56,0.00,,---,0.00,VWS V14.01,2013-07-27 09:13:00,
2013-07-27 04:14:00,65.6,49.0,0.00,SE,135,15.2,15.2,55,0.00,,---,0.00,VWS V14.01,2013-07-27 09:14:00,
2013-07-27 04:15:00,65.4,47.9,0.00,East,90,10.1,15.2,53,0.00,,---,0.00,VWS V14.01,2013-07-27 09:15:00,
2013-07-27 04:16:00,65.3,48.2,0.00,SE,135,10.3,13.2,54,0.00,,---,0.00,VWS V14.01,2013-07-27 09:16:00,
2013-07-27 04:17:00,65.3,48.2,0.00,SE,135,10.3,15.4,54,0.00,,---,0.00,VWS V14.01,2013-07-27 09:17:00,
2013-07-27 04:18:00,65.3,48.7,0.00,SE,135,10.7,15.4,55,0.00,,---,0.00,VWS V14.01,2013-07-27 09:18:00,
2013-07-27 04:19:00,65.1,48.5,0.00,SE,135,10.3,15.4,55,0.00,,---,0.00,VWS V14.01,2013-07-27 09:19:00,
2013-07-27 04:20:00,65.1,48.5,0.00,SE,135,10.1,15.4,55,0.00,,---,0.00,VWS V14.01,2013-07-27 09:20:00,
2013-07-27 04:21:00,65.3,48.7,0.00,SE,135,10.5,15.4,55,0.00,,---,0.00,VWS V14.01,2013-07-27 09:21:00,
2013-07-27 04:22:00,65.4,49.3,0.00,SE,135,10.7,15.4,56,0.00,,---,0.00,VWS V14.01,2013-07-27 09:22:00,
2013-07-27 04:23:00,65.4,48.9,0.00,SE,135,9.8,15.4,55,0.00,,---,0.00,VWS V14.01,2013-07-27 09:23:00,
2013-07-27 04:24:00,65.4,48.9,0.00,SE,135,10.5,15.4,55,0.00,,---,0.00,VWS V14.01,2013-07-27 09:24:00,
2013-07-27 04:25:00,65.6,49.5,0.00,SE,135,12.3,15.4,56,0.00,,---,0.00,VWS V14.01,2013-07-27 09:25:00,
2013-07-27 04:26:00,65.6,49.0,0.00,SE,135,7.8,15.4,55,0.00,,---,0.00,VWS V14.01,2013-07-27 09:26:00,
2013-07-27 04:27:00,65.8,49.2,0.00,SE,135,7.6,15.4,55,0.00,,---,0.00,VWS V14.01,2013-07-27 09:27:00,
2013-07-27 04:28:00,65.8,49.2,0.00,SE,135,15.4,15.4,55,0.00,,---,0.00,VWS V14.01,2013-07-27 09:28:00,
2013-07-27 04:29:00,65.8,49.2,0.00,SE,135,10.7,15.4,55,0.00,,---,0.00,VWS V14.01,2013-07-27 09:29:00,
2013-07-27 04:30:00,65.8,49.2,0.00,SE,135,10.1,15.4,55,0.00,,---,0.00,VWS V14.01,2013-07-27 09:30:00,
2013-07-27 04:31:00,66.0,48.9,0.00,SE,135,9.8,12.3,54,0.00,,---,0.00,VWS V14.01,2013-07-27 09:31:00,
2013-07-27 04:33:00,66.0,48.9,0.00,SE,135,12.3,12.3,54,0.00,,---,0.00,VWS V14.01,2013-07-27 09:33:00,
2013-07-27 04:34:00,65.8,49.2,0.00,SE,135,12.3,12.3,55,0.00,,---,0.00,VWS V14.01,2013-07-27 09:34:00,
2013-07-27 04:35:00,66.0,49.4,0.00,SE,135,8.7,12.3,55,0.00,,---,0.00,VWS V14.01,2013-07-27 09:35:00,
2013-07-27 04:36:00,66.0,49.4,0.00,SE,135,10.1,12.3,55,0.00,,---,0.00,VWS V14.01,2013-07-27 09:36:00,
2013-07-27 04:37:00,66.0,48.9,0.00,SE,135,9.8,13.2,54,0.00,,---,0.00,VWS V14.01,2013-07-27 09:37:00,
2013-07-27 04:38:00,66.0,48.9,0.00,East,90,11.0,13.2,54,0.00,,---,0.00,VWS V14.01,2013-07-27 09:38:00,
2013-07-27 04:39:00,66.0,48.9,0.00,ESE,112,8.5,13.2,54,0.00,,---,0.00,VWS V14.01,2013-07-27 09:39:00,
2013-07-27 04:40:00,66.2,49.0,0.00,East,90,13.2,13.2,54,0.00,,---,0.00,VWS V14.01,2013-07-27 09:40:00,
2013-07-27 04:41:00,66.2,48.5,0.00,SE,135,12.5,14.3,53,0.00,,---,0.00,VWS V14.01,2013-07-27 09:41:00,
2013-07-27 04:42:00,66.3,48.7,0.00,ESE,112,8.1,14.3,53,0.00,,---,0.00,VWS V14.01,2013-07-27 09:42:00,
2013-07-27 04:43:00,66.2,48.5,0.00,SE,135,13.9,14.3,53,0.00,,---,0.00,VWS V14.01,2013-07-27 09:43:00,
2013-07-27 04:44:00,66.3,48.2,0.00,SE,135,8.5,14.8,52,0.00,,---,0.00,VWS V14.01,2013-07-27 09:44:00,
2013-07-27 04:45:00,66.5,48.9,0.00,SE,135,10.3,14.8,53,0.00,,---,0.00,VWS V14.01,2013-07-27 09:45:00,
2013-07-27 04:46:00,66.3,48.2,0.00,SE,135,12.5,12.5,52,0.00,,---,0.00,VWS V14.01,2013-07-27 09:46:00,
2013-07-27 04:47:00,66.3,48.2,0.00,SE,135,14.1,14.1,52,0.00,,---,0.00,VWS V14.01,2013-07-27 09:47:00,
2013-07-27 04:48:00,66.0,47.4,0.00,SE,135,9.8,14.1,51,0.00,,---,0.00,VWS V14.01,2013-07-27 09:48:00,
2013-07-27 04:49:00,65.8,47.7,0.00,SE,135,12.3,14.5,52,0.00,,---,0.00,VWS V14.01,2013-07-27 09:49:00,
2013-07-27 04:50:00,65.8,47.7,0.00,SE,135,12.3,14.5,52,0.00,,---,0.00,VWS V14.01,2013-07-27 09:50:00,
2013-07-27 04:51:00,66.0,47.9,0.00,SSE,158,13.2,14.8,52,0.00,,---,0.00,VWS V14.01,2013-07-27 09:51:00,
2013-07-27 04:52:00,66.0,47.9,0.00,SE,135,13.2,14.8,52,0.00,,---,0.00,VWS V14.01,2013-07-27 09:52:00,
2013-07-27 04:53:00,66.0,47.9,0.00,SE,135,12.8,14.8,52,0.00,,---,0.00,VWS V14.01,2013-07-27 09:53:00,
2013-07-27 04:54:00,66.0,47.9,0.00,SE,135,9.8,14.8,52,0.00,,---,0.00,VWS V14.01,2013-07-27 09:54:00,
2013-07-27 04:55:00,66.2,48.0,0.00,SE,135,12.3,14.8,52,0.00,,---,0.00,VWS V14.01,2013-07-27 09:55:00,
2013-07-27 04:56:00,66.2,48.0,0.00,SE,135,10.1,14.8,52,0.00,,---,0.00,VWS V14.01,2013-07-27 09:56:00,
2013-07-27 04:57:00,66.3,47.7,0.00,SE,135,9.8,14.8,51,0.00,,---,0.00,VWS V14.01,2013-07-27 09:57:00,
2013-07-27 04:58:00,66.3,48.2,0.00,SE,135,14.3,14.8,52,0.00,,---,0.00,VWS V14.01,2013-07-27 09:58:00,
2013-07-27 04:59:00,65.6,47.5,0.00,SE,135,12.8,17.2,52,0.00,,---,0.00,VWS V14.01,2013-07-27 09:59:00,
2013-07-27 05:00:00,65.3,47.2,0.00,SE,135,13.2,17.2,52,0.00,,---,0.00,VWS V14.01,2013-07-27 10:00:00,
2013-07-27 05:01:00,64.7,46.7,0.00,SE,135,8.5,15.7,52,0.00,,---,0.00,VWS V14.01,2013-07-27 10:01:00,
2013-07-27 05:02:00,64.7,46.7,0.00,SE,135,12.3,15.7,52,0.00,,---,0.00,VWS V14.01,2013-07-27 10:02:00,
2013-07-27 05:03:00,64.7,46.7,0.00,SE,135,12.5,15.7,52,0.00,,---,0.00,VWS V14.01,2013-07-27 10:03:00,
2013-07-27 05:04:00,64.9,46.9,0.00,SE,135,11.0,15.7,52,0.00,,---,0.00,VWS V14.01,2013-07-27 10:04:00,
2013-07-27 05:05:00,65.1,47.0,0.00,ESE,112,12.3,15.7,52,0.00,,---,0.00,VWS V14.01,2013-07-27 10:05:00,
2013-07-27 05:06:00,65.1,47.0,0.00,SE,135,11.0,15.7,52,0.00,,---,0.00,VWS V14.01,2013-07-27 10:06:00,
2013-07-27 05:07:00,65.1,47.0,0.00,SE,135,11.0,15.7,52,0.00,,---,0.00,VWS V14.01,2013-07-27 10:07:00,
2013-07-27 05:08:00,65.3,47.2,0.00,SE,135,10.3,15.7,52,0.00,,---,0.00,VWS V14.01,2013-07-27 10:08:00,
2013-07-27 05:09:00,65.3,47.2,0.00,East,90,10.5,15.7,52,0.00,,---,0.00,VWS V14.01,2013-07-27 10:09:00,
2013-07-27 05:10:00,65.3,47.2,0.00,East,90,10.3,15.7,52,0.00,,---,0.00,VWS V14.01,2013-07-27 10:10:00,
2013-07-27 05:11:00,65.8,47.7,0.00,SE,135,9.0,15.7,52,0.00,,---,0.00,VWS V14.01,2013-07-27 10:11:00,
2013-07-27 05:12:00,66.0,47.4,0.00,East,90,15.2,15.7,51,0.00,,---,0.00,VWS V14.01,2013-07-27 10:12:00,
2013-07-27 05:13:00,66.0,47.4,0.00,SE,135,11.0,15.7,51,0.00,,---,0.00,VWS V14.01,2013-07-27 10:13:00,
2013-07-27 05:14:00,66.0,47.4,0.00,ESE,112,13.0,15.7,51,0.00,,---,0.00,VWS V14.01,2013-07-27 10:14:00,
2013-07-27 05:15:00,66.0,47.4,0.00,SE,135,10.3,15.7,51,0.00,,---,0.00,VWS V14.01,2013-07-27 10:15:00,
2013-07-27 05:16:00,66.0,47.4,0.00,SE,135,7.2,11.9,51,0.00,,---,0.00,VWS V14.01,2013-07-27 10:16:00,
2013-07-27 05:17:00,66.0,47.4,0.00,SE,135,8.1,11.9,51,0.00,,---,0.00,VWS V14.01,2013-07-27 10:17:00,
2013-07-27 05:18:00,66.3,48.2,0.00,ESE,112,10.1,12.1,52,0.00,,---,0.00,VWS V14.01,2013-07-27 10:18:00,
2013-07-27 05:19:00,66.5,48.4,0.00,East,90,6.3,12.1,52,0.00,,---,0.00,VWS V14.01,2013-07-27 10:19:00,
2013-07-27 05:20:00,66.9,49.2,0.00,East,90,10.1,12.1,53,0.00,,---,0.00,VWS V14.01,2013-07-27 10:20:00,
2013-07-27 05:21:00,66.9,48.7,0.00,SE,135,12.3,15.2,52,0.00,,---,0.00,VWS V14.01,2013-07-27 10:21:00,
2013-07-27 05:22:00,66.9,48.7,0.00,ESE,112,8.5,15.2,52,0.00,,---,0.00,VWS V14.01,2013-07-27 10:22:00,
2013-07-27 05:23:00,67.1,48.3,0.00,East,90,12.5,15.2,51,0.00,,---,0.00,VWS V14.01,2013-07-27 10:23:00,
2013-07-27 05:24:00,66.9,48.2,0.00,ESE,112,12.5,15.2,51,0.00,,---,0.00,VWS V14.01,2013-07-27 10:24:00,
2013-07-27 05:25:00,67.1,48.3,0.00,East,90,8.7,15.2,51,0.00,,---,0.00,VWS V14.01,2013-07-27 10:25:00,
2013-07-27 05:26:00,67.2,48.5,0.00,ESE,112,9.8,15.2,51,0.00,,---,0.00,VWS V14.01,2013-07-27 10:26:00,
2013-07-27 05:27:00,67.2,48.5,0.00,NE,45,10.5,15.2,51,0.00,,---,0.00,VWS V14.01,2013-07-27 10:27:00,
2013-07-27 05:28:00,67.4,49.2,0.00,SE,135,9.8,15.2,52,0.00,,---,0.00,VWS V14.01,2013-07-27 10:28:00,
2013-07-27 05:29:00,67.4,48.7,0.00,East,90,9.0,15.2,51,0.00,,---,0.00,VWS V14.01,2013-07-27 10:29:00,
2013-07-27 05:30:00,67.2,48.5,0.00,SE,135,12.1,15.2,51,0.00,,---,0.00,VWS V14.01,2013-07-27 10:30:00,
2013-07-27 05:31:00,67.2,48.5,0.00,SE,135,8.5,13.0,51,0.00,,---,0.00,VWS V14.01,2013-07-27 10:31:00,
2013-07-27 05:32:00,67.2,48.5,0.00,East,90,10.3,13.0,51,0.00,,---,0.00,VWS V14.01,2013-07-27 10:32:00,
2013-07-27 05:33:00,67.2,48.5,0.00,SE,135,9.2,13.0,51,0.00,,---,0.00,VWS V14.01,2013-07-27 10:33:00,
2013-07-27 05:34:00,67.2,48.5,0.00,SE,135,12.5,13.0,51,0.00,,---,0.00,VWS V14.01,2013-07-27 10:34:00,
2013-07-27 05:35:00,67.2,48.5,0.00,East,90,6.7,13.0,51,0.00,,---,0.00,VWS V14.01,2013-07-27 10:35:00,
2013-07-27 05:36:00,67.1,48.3,0.00,NE,45,7.6,13.0,51,0.00,,---,0.00,VWS V14.01,2013-07-27 10:36:00,
2013-07-27 05:37:00,67.1,48.3,0.00,ESE,112,10.3,13.0,51,0.00,,---,0.00,VWS V14.01,2013-07-27 10:37:00,
2013-07-27 05:38:00,67.1,48.3,0.00,SE,135,10.3,13.0,51,0.00,,---,0.00,VWS V14.01,2013-07-27 10:38:00,
2013-07-27 05:39:00,67.1,48.3,0.00,SE,135,11.0,13.2,51,0.00,,---,0.00,VWS V14.01,2013-07-27 10:39:00,
2013-07-27 05:40:00,66.9,48.2,0.00,SE,135,12.3,13.2,51,0.00,,---,0.00,VWS V14.01,2013-07-27 10:40:00,
2013-07-27 05:41:00,66.9,48.2,0.00,ESE,112,10.7,13.2,51,0.00,,---,0.00,VWS V14.01,2013-07-27 10:41:00,
2013-07-27 05:43:00,66.9,48.2,0.00,East,90,6.3,13.2,51,0.00,,---,0.00,VWS V14.01,2013-07-27 10:43:00,
2013-07-27 05:44:00,66.9,48.2,0.00,East,90,10.7,13.2,51,0.00,,---,0.00,VWS V14.01,2013-07-27 10:44:00,
2013-07-27 05:45:00,66.9,48.2,0.00,East,90,9.8,13.2,51,0.00,,---,0.00,VWS V14.01,2013-07-27 10:45:00,
2013-07-27 05:46:00,66.7,47.5,0.00,East,90,7.6,13.9,50,0.00,,---,0.00,VWS V14.01,2013-07-27 10:46:00,
2013-07-27 05:47:00,66.7,48.0,0.00,ESE,112,10.5,14.1,51,0.00,,---,0.00,VWS V14.01,2013-07-27 10:47:00,
2013-07-27 05:48:00,66.7,48.0,0.00,ESE,112,10.5,14.1,51,0.00,,---,0.00,VWS V14.01,2013-07-27 10:48:00,
2013-07-27 05:49:00,66.5,47.8,0.00,SE,135,12.1,14.1,51,0.00,,---,0.00,VWS V14.01,2013-07-27 10:49:00,
2013-07-27 05:50:00,66.5,47.8,0.00,SE,135,12.8,14.1,51,0.00,,---,0.00,VWS V14.01,2013-07-27 10:50:00,
2013-07-27 05:51:00,66.5,47.8,0.00,SE,135,13.2,14.3,51,0.00,,---,0.00,VWS V14.01,2013-07-27 10:51:00,
2013-07-27 05:52:00,66.3,47.7,0.00,SE,135,11.4,14.3,51,0.00,,---,0.00,VWS V14.01,2013-07-27 10:52:00,
2013-07-27 05:53:00,66.3,47.7,0.00,ESE,112,10.5,15.4,51,0.00,,---,0.00,VWS V14.01,2013-07-27 10:53:00,
2013-07-27 05:54:00,66.2,48.0,0.00,ESE,112,13.2,15.4,52,0.00,,---,0.00,VWS V14.01,2013-07-27 10:54:00,
2013-07-27 05:55:00,66.0,47.4,0.00,ESE,112,15.7,15.7,51,0.00,,---,0.00,VWS V14.01,2013-07-27 10:55:00,
2013-07-27 05:56:00,66.0,47.9,0.00,SE,135,9.2,15.7,52,0.00,,---,0.00,VWS V14.01,2013-07-27 10:56:00,
2013-07-27 05:59:00,66.0,47.9,0.00,ESE,112,11.0,15.7,52,0.00,,---,0.00,VWS V14.01,2013-07-27 10:59:00,
2013-07-27 06:00:00,66.2,47.5,0.00,ESE,112,16.3,16.3,51,0.00,,---,0.00,VWS V14.01,2013-07-27 11:00:00,
2013-07-27 06:01:00,66.2,47.5,0.00,SE,135,10.7,17.2,51,0.00,,---,0.00,VWS V14.01,2013-07-27 11:01:00,
2013-07-27 06:02:00,66.0,47.4,0.00,SE,135,11.0,17.2,51,0.00,,---,0.00,VWS V14.01,2013-07-27 11:02:00,
2013-07-27 06:03:00,66.2,48.0,0.00,SE,135,9.8,17.2,52,0.00,,---,0.00,VWS V14.01,2013-07-27 11:03:00,
2013-07-27 06:04:00,66.5,47.8,0.00,ESE,112,11.0,17.2,51,0.00,,---,0.00,VWS V14.01,2013-07-27 11:04:00,
2013-07-27 06:05:00,66.5,47.8,0.00,SE,135,13.4,17.2,51,0.00,,---,0.00,VWS V14.01,2013-07-27 11:05:00,
2013-07-27 06:06:00,66.5,47.8,0.00,SE,135,12.5,17.2,51,0.00,,---,0.00,VWS V14.01,2013-07-27 11:06:00,
2013-07-27 06:07:00,66.5,47.8,0.00,SE,135,11.0,17.2,51,0.00,,---,0.00,VWS V14.01,2013-07-27 11:07:00,
2013-07-27 06:08:00,66.5,47.8,0.00,SE,135,10.3,17.2,51,0.00,,---,0.00,VWS V14.01,2013-07-27 11:08:00,
2013-07-27 06:09:00,66.2,48.0,0.00,SE,135,13.0,17.2,52,0.00,,---,0.00,VWS V14.01,2013-07-27 11:09:00,
2013-07-27 06:10:00,66.0,47.9,0.00,East,90,16.1,17.2,52,0.00,,---,0.00,VWS V14.01,2013-07-27 11:10:00,
2013-07-27 06:11:00,65.3,47.2,0.00,ESE,112,12.8,17.2,52,0.00,,---,0.00,VWS V14.01,2013-07-27 11:11:00,
2013-07-27 06:12:00,65.3,47.2,0.00,East,90,14.8,17.2,52,0.00,,---,0.00,VWS V14.01,2013-07-27 11:12:00,
2013-07-27 06:13:00,64.5,47.0,0.00,SE,135,10.3,17.2,53,0.00,,---,0.00,VWS V14.01,2013-07-27 11:13:00,
2013-07-27 06:14:00,64.4,46.9,0.00,ESE,112,15.4,17.2,53,0.00,,---,0.00,VWS V14.01,2013-07-27 11:14:00,
2013-07-27 06:15:00,64.2,46.7,0.00,SE,135,10.3,17.2,53,0.00,,---,0.00,VWS V14.01,2013-07-27 11:15:00,
2013-07-27 06:16:00,64.4,47.4,0.00,East,90,5.8,10.3,54,0.00,,---,0.00,VWS V14.01,2013-07-27 11:16:00,
2013-07-27 06:17:00,64.5,47.5,0.00,SE,135,12.1,12.5,54,0.00,,---,0.00,VWS V14.01,2013-07-27 11:17:00,
2013-07-27 06:18:00,64.5,48.0,0.00,East,90,7.8,12.5,55,0.00,,---,0.00,VWS V14.01,2013-07-27 11:18:00,
2013-07-27 06:19:00,64.5,48.0,0.00,ENE,68,7.8,12.5,55,0.00,,---,0.00,VWS V14.01,2013-07-27 11:19:00,
2013-07-27 06:20:00,53.0,49.0,0.00,East,90,4.3,8.1,86,0.00,,---,0.00,VWS V14.01,2013-07-27 11:20:00,
2013-07-27 06:21:00,64.5,47.5,0.00,SE,135,9.8,12.5,54,0.00,,---,0.00,VWS V14.01,2013-07-27 11:21:00,
2013-07-27 06:22:00,64.5,47.5,0.00,SE,135,10.1,12.5,54,0.00,,---,0.00,VWS V14.01,2013-07-27 11:22:00,
2013-07-27 06:23:00,64.5,48.0,0.00,East,90,10.3,12.5,55,0.00,,---,0.00,VWS V14.01,2013-07-27 11:23:00,
2013-07-27 06:24:00,64.5,48.0,0.00,SE,135,12.3,12.5,55,0.00,,---,0.00,VWS V14.01,2013-07-27 11:24:00,
2013-07-27 06:25:00,64.7,48.2,0.00,SE,135,8.5,12.5,55,0.00,,---,0.00,VWS V14.01,2013-07-27 11:25:00,
2013-07-27 06:27:00,64.7,48.7,0.00,SE,135,7.2,13.2,56,0.00,,---,0.00,VWS V14.01,2013-07-27 11:27:00,
2013-07-27 06:28:00,64.7,48.7,0.00,SE,135,7.4,13.2,56,0.00,,---,0.00,VWS V14.01,2013-07-27 11:28:00,
2013-07-27 06:29:00,64.7,48.7,0.00,ESE,112,7.8,13.2,56,0.00,,---,0.00,VWS V14.01,2013-07-27 11:29:00,
2013-07-27 06:31:00,64.7,49.2,0.00,SE,135,10.5,12.8,57,0.00,,---,0.00,VWS V14.01,2013-07-27 11:31:00,
2013-07-27 06:32:00,64.5,48.5,0.00,ESE,112,7.8,12.8,56,0.00,,---,0.00,VWS V14.01,2013-07-27 11:32:00,
2013-07-27 06:33:00,64.5,48.5,0.00,ESE,112,7.4,12.8,56,0.00,,---,0.00,VWS V14.01,2013-07-27 11:33:00,
2013-07-27 06:34:00,64.5,48.5,0.00,ESE,112,9.8,12.8,56,0.00,,---,0.00,VWS V14.01,2013-07-27 11:34:00,
2013-07-27 06:35:00,64.2,48.7,0.00,ESE,112,10.5,12.8,57,0.00,,---,0.00,VWS V14.01,2013-07-27 11:35:00,
2013-07-27 06:37:00,64.2,48.7,0.00,SE,135,8.7,12.8,57,0.00,,---,0.00,VWS V14.01,2013-07-27 11:37:00,
2013-07-27 06:38:00,64.2,49.1,0.00,ESE,112,5.4,12.8,58,0.00,,---,0.00,VWS V14.01,2013-07-27 11:38:00,
2013-07-27 06:39:00,64.2,49.1,0.00,ESE,112,5.4,12.8,58,0.00,,---,0.00,VWS V14.01,2013-07-27 11:39:00,
2013-07-27 06:40:00,64.4,49.3,0.00,East,90,8.7,12.8,58,0.00,,---,0.00,VWS V14.01,2013-07-27 11:40:00,
2013-07-27 06:41:00,64.5,49.5,0.00,SE,135,10.7,12.8,58,0.00,,---,0.00,VWS V14.01,2013-07-27 11:41:00,
2013-07-27 06:42:00,64.4,48.8,0.00,SE,135,11.2,12.8,57,0.00,,---,0.00,VWS V14.01,2013-07-27 11:42:00,
2013-07-27 06:43:00,64.4,49.3,0.00,SE,135,9.8,12.8,58,0.00,,---,0.00,VWS V14.01,2013-07-27 11:43:00,
2013-07-27 06:44:00,64.4,49.3,0.00,SE,135,9.0,12.8,58,0.00,,---,0.00,VWS V14.01,2013-07-27 11:44:00,
2013-07-27 06:45:00,64.4,49.3,0.00,East,90,7.6,12.8,58,0.00,,---,0.00,VWS V14.01,2013-07-27 11:45:00,
2013-07-27 06:46:00,64.5,49.5,0.00,ESE,112,10.1,10.5,58,0.00,,---,0.00,VWS V14.01,2013-07-27 11:46:00,
2013-07-27 06:47:00,64.5,49.5,0.00,East,90,8.1,10.7,58,0.00,,---,0.00,VWS V14.01,2013-07-27 11:47:00,
2013-07-27 06:48:00,64.5,49.5,0.00,East,90,7.4,10.7,58,0.00,,---,0.00,VWS V14.01,2013-07-27 11:48:00,
2013-07-27 06:49:00,64.5,49.0,0.00,East,90,7.4,10.7,57,0.00,,---,0.00,VWS V14.01,2013-07-27 11:49:00,
2013-07-27 06:50:00,64.5,49.0,0.00,East,90,9.6,10.7,57,0.00,,---,0.00,VWS V14.01,2013-07-27 11:50:00,
2013-07-27 06:51:00,64.5,49.0,0.00,ENE,68,5.4,10.7,57,0.00,,---,0.00,VWS V14.01,2013-07-27 11:51:00,
2013-07-27 06:52:00,64.7,49.2,0.00,East,90,9.2,10.7,57,0.00,,---,0.00,VWS V14.01,2013-07-27 11:52:00,
2013-07-27 06:53:00,64.7,49.2,0.00,East,90,9.8,10.7,57,0.00,,---,0.00,VWS V14.01,2013-07-27 11:53:00,
2013-07-27 06:54:00,65.1,49.5,0.00,East,90,10.7,10.7,57,0.00,,---,0.00,VWS V14.01,2013-07-27 11:54:00,
2013-07-27 06:55:00,65.3,49.7,0.00,NE,45,10.3,10.7,57,0.00,,---,0.00,VWS V14.01,2013-07-27 11:55:00,
2013-07-27 06:56:00,65.6,49.5,0.00,SE,135,9.4,10.7,56,0.00,,---,0.00,VWS V14.01,2013-07-27 11:56:00,
2013-07-27 06:57:00,65.8,49.2,0.00,SE,135,4.9,10.7,55,0.00,,---,0.00,VWS V14.01,2013-07-27 11:57:00,
2013-07-27 06:58:00,65.6,49.0,0.00,East,90,12.8,12.8,55,0.00,,---,0.00,VWS V14.01,2013-07-27 11:58:00,
2013-07-27 06:59:00,65.3,48.2,0.00,SE,135,11.0,12.8,54,0.00,,---,0.00,VWS V14.01,2013-07-27 11:59:00,
2013-07-27 07:00:00,65.1,48.5,0.00,NE,45,8.1,12.8,55,0.00,,---,0.00,VWS V14.01,2013-07-27 12:00:00,
2013-07-27 07:01:00,65.1,48.5,0.00,SE,135,8.1,8.1,55,0.00,,---,0.00,VWS V14.01,2013-07-27 12:01:00,
2013-07-27 07:02:00,64.9,48.4,0.00,NE,45,5.8,8.1,55,0.00,,---,0.00,VWS V14.01,2013-07-27 12:02:00,
2013-07-27 07:03:00,64.9,48.4,0.00,East,90,5.6,8.5,55,0.00,,---,0.00,VWS V14.01,2013-07-27 12:03:00,
2013-07-27 07:04:00,64.5,48.0,0.00,East,90,6.5,8.5,55,0.00,,---,0.00,VWS V14.01,2013-07-27 12:04:00,
2013-07-27 07:05:00,64.4,47.9,0.00,NE,45,5.6,10.3,55,0.00,,---,0.00,VWS V14.01,2013-07-27 12:05:00,
2013-07-27 07:06:00,64.2,47.7,0.00,East,90,5.8,10.5,55,0.00,,---,0.00,VWS V14.01,2013-07-27 12:06:00,
2013-07-27 07:07:00,64.0,48.0,0.00,ESE,112,6.7,10.5,56,0.00,,---,0.00,VWS V14.01,2013-07-27 12:07:00,
2013-07-27 07:08:00,64.0,48.0,0.00,ESE,112,10.1,10.5,56,0.00,,---,0.00,VWS V14.01,2013-07-27 12:08:00,
2013-07-27 07:09:00,63.8,47.8,0.00,ESE,112,6.7,10.5,56,0.00,,---,0.00,VWS V14.01,2013-07-27 12:09:00,
2013-07-27 07:10:00,63.8,47.8,0.00,NE,45,5.4,10.5,56,0.00,,---,0.00,VWS V14.01,2013-07-27 12:10:00,
2013-07-27 07:11:00,63.6,48.1,0.00,ESE,112,5.8,10.5,57,0.00,,---,0.00,VWS V14.01,2013-07-27 12:11:00,
2013-07-27 07:12:00,63.6,48.1,0.00,SE,135,8.1,10.5,57,0.00,,---,0.00,VWS V14.01,2013-07-27 12:12:00,
2013-07-27 07:13:00,63.6,48.1,0.00,SE,135,8.1,10.5,57,0.00,,---,0.00,VWS V14.01,2013-07-27 12:13:00,
2013-07-27 07:14:00,63.6,48.1,0.00,ESE,112,5.6,10.5,57,0.00,,---,0.00,VWS V14.01,2013-07-27 12:14:00,
2013-07-27 07:15:00,63.5,48.0,0.00,East,90,8.5,10.5,57,0.00,,---,0.00,VWS V14.01,2013-07-27 12:15:00,
2013-07-27 07:16:00,63.5,48.0,0.00,East,90,4.9,8.5,57,0.00,,---,0.00,VWS V14.01,2013-07-27 12:16:00,
2013-07-27 07:17:00,63.5,48.0,0.00,East,90,4.9,8.5,57,0.00,,---,0.00,VWS V14.01,2013-07-27 12:17:00,
2013-07-27 07:18:00,63.5,48.0,0.00,East,90,8.5,8.5,57,0.00,,---,0.00,VWS V14.01,2013-07-27 12:18:00,
2013-07-27 07:19:00,63.5,48.0,0.00,SE,135,6.3,8.5,57,0.00,,---,0.00,VWS V14.01,2013-07-27 12:19:00,
2013-07-27 07:20:00,63.3,47.8,0.00,ESE,112,7.4,8.5,57,0.00,,---,0.00,VWS V14.01,2013-07-27 12:20:00,
2013-07-27 07:21:00,63.3,47.8,0.00,ENE,68,7.4,8.5,57,0.00,,---,0.00,VWS V14.01,2013-07-27 12:21:00,
2013-07-27 07:22:00,63.1,47.2,0.00,East,90,12.3,12.3,56,0.00,,---,0.00,VWS V14.01,2013-07-27 12:22:00,
2013-07-27 07:23:00,63.1,47.2,0.00,East,90,6.5,12.3,56,0.00,,---,0.00,VWS V14.01,2013-07-27 12:23:00,
2013-07-27 07:24:00,63.1,47.2,0.00,NE,45,9.6,12.3,56,0.00,,---,0.00,VWS V14.01,2013-07-27 12:24:00,
2013-07-27 07:25:00,63.1,47.2,0.00,SE,135,5.4,12.3,56,0.00,,---,0.00,VWS V14.01,2013-07-27 12:25:00,
2013-07-27 07:26:00,63.1,47.2,0.00,ESE,112,10.1,13.0,56,0.00,,---,0.00,VWS V14.01,2013-07-27 12:26:00,
2013-07-27 07:27:00,63.1,47.2,0.00,SE,135,8.1,13.0,56,0.00,,---,0.00,VWS V14.01,2013-07-27 12:27:00,
2013-07-27 07:28:00,62.9,47.0,0.00,SE,135,7.6,13.0,56,0.00,,---,0.00,VWS V14.01,2013-07-27 12:28:00,
2013-07-27 07:29:00,62.9,46.5,0.00,ESE,112,8.7,13.0,55,0.00,,---,0.00,VWS V14.01,2013-07-27 12:29:00,
2013-07-27 07:30:00,63.1,46.7,0.00,ESE,112,9.6,13.0,55,0.00,,---,0.00,VWS V14.01,2013-07-27 12:30:00,
2013-07-27 07:31:00,63.1,47.2,0.00,SE,135,7.6,9.6,56,0.00,,---,0.00,VWS V14.01,2013-07-27 12:31:00,
2013-07-27 07:32:00,63.3,47.3,0.00,SE,135,12.5,12.5,56,0.00,,---,0.00,VWS V14.01,2013-07-27 12:32:00,
2013-07-27 07:33:00,63.1,46.7,0.00,SE,135,10.1,12.8,55,0.00,,---,0.00,VWS V14.01,2013-07-27 12:33:00,
2013-07-27 07:34:00,63.3,46.9,0.00,SE,135,8.1,12.8,55,0.00,,---,0.00,VWS V14.01,2013-07-27 12:34:00,
2013-07-27 07:35:00,63.5,47.5,0.00,East,90,7.6,12.8,56,0.00,,---,0.00,VWS V14.01,2013-07-27 12:35:00,
2013-07-27 07:36:00,63.5,47.0,0.00,ESE,112,7.8,12.8,55,0.00,,---,0.00,VWS V14.01,2013-07-27 12:36:00,
2013-07-27 07:37:00,63.5,47.0,0.00,East,90,6.9,12.8,55,0.00,,---,0.00,VWS V14.01,2013-07-27 12:37:00,
2013-07-27 07:38:00,63.6,47.2,0.00,SE,135,7.6,12.8,55,0.00,,---,0.00,VWS V14.01,2013-07-27 12:38:00,
2013-07-27 07:39:00,63.5,47.0,0.00,East,90,6.0,12.8,55,0.00,,---,0.00,VWS V14.01,2013-07-27 12:39:00,
2013-07-27 07:40:00,63.5,46.5,0.00,East,90,7.6,13.0,54,0.00,,---,0.00,VWS V14.01,2013-07-27 12:40:00,
2013-07-27 07:41:00,63.3,46.9,0.00,East,90,7.8,13.0,55,0.00,,---,0.00,VWS V14.01,2013-07-27 12:41:00,
2013-07-27 07:42:00,63.1,46.7,0.00,East,90,8.7,13.0,55,0.00,,---,0.00,VWS V14.01,2013-07-27 12:42:00,
2013-07-27 07:43:00,63.1,46.7,0.00,East,90,7.2,13.0,55,0.00,,---,0.00,VWS V14.01,2013-07-27 12:43:00,
2013-07-27 07:44:00,62.9,46.5,0.00,SE,135,7.8,13.0,55,0.00,,---,0.00,VWS V14.01,2013-07-27 12:44:00,
2013-07-27 07:45:00,62.7,46.3,0.00,East,90,6.5,13.0,55,0.00,,---,0.00,VWS V14.01,2013-07-27 12:45:00,
2013-07-27 07:46:00,62.6,46.2,0.00,ESE,112,5.8,6.5,55,0.00,,---,0.00,VWS V14.01,2013-07-27 12:46:00,
2013-07-27 07:47:00,62.6,46.2,0.00,ESE,112,6.0,6.5,55,0.00,,---,0.00,VWS V14.01,2013-07-27 12:47:00,
2013-07-27 07:48:00,62.6,46.2,0.00,ESE,112,6.0,6.5,55,0.00,,---,0.00,VWS V14.01,2013-07-27 12:48:00,
2013-07-27 07:49:00,62.4,46.5,0.00,SE,135,5.8,6.5,56,0.00,,---,0.00,VWS V14.01,2013-07-27 12:49:00,
2013-07-27 07:50:00,62.4,46.5,0.00,ESE,112,5.4,6.5,56,0.00,,---,0.00,VWS V14.01,2013-07-27 12:50:00,
2013-07-27 07:51:00,62.4,47.0,0.00,ESE,112,5.6,7.8,57,0.00,,---,0.00,VWS V14.01,2013-07-27 12:51:00,
2013-07-27 07:52:00,62.2,46.8,0.00,ESE,112,7.4,8.7,57,0.00,,---,0.00,VWS V14.01,2013-07-27 12:52:00,
2013-07-27 07:53:00,62.2,46.8,0.00,ESE,112,5.8,8.7,57,0.00,,---,0.00,VWS V14.01,2013-07-27 12:53:00,
2013-07-27 07:54:00,62.2,46.8,0.00,SE,135,7.6,8.7,57,0.00,,---,0.00,VWS V14.01,2013-07-27 12:54:00,
2013-07-27 07:55:00,62.0,47.1,0.00,SE,135,5.4,9.2,58,0.00,,---,0.00,VWS V14.01,2013-07-27 12:55:00,
2013-07-27 07:57:00,62.0,47.1,0.00,ESE,112,5.6,9.2,58,0.00,,---,0.00,VWS V14.01,2013-07-27 12:57:00,
2013-07-27 07:58:00,62.0,47.1,0.00,NE,45,5.6,9.2,58,0.00,,---,0.00,VWS V14.01,2013-07-27 12:58:00,
2013-07-27 07:59:00,62.0,47.1,0.00,East,90,6.5,9.2,58,0.00,,---,0.00,VWS V14.01,2013-07-27 12:59:00,
2013-07-27 08:00:00,62.0,47.1,0.00,East,90,5.4,9.2,58,0.00,,---,0.00,VWS V14.01,2013-07-27 13:00:00,
2013-07-27 08:01:00,61.8,46.9,0.00,East,90,5.4,5.4,58,0.00,,---,0.00,VWS V14.01,2013-07-27 13:01:00,
2013-07-27 08:03:00,61.8,47.4,0.00,East,90,7.4,7.4,59,0.00,,---,0.00,VWS V14.01,2013-07-27 13:03:00,
2013-07-27 08:04:00,61.8,47.4,0.00,East,90,8.1,8.1,59,0.00,,---,0.00,VWS V14.01,2013-07-27 13:04:00,
2013-07-27 08:05:00,61.8,47.4,0.00,ESE,112,7.8,8.1,59,0.00,,---,0.00,VWS V14.01,2013-07-27 13:05:00,
2013-07-27 08:06:00,61.8,47.4,0.00,ESE,112,7.6,8.1,59,0.00,,---,0.00,VWS V14.01,2013-07-27 13:06:00,
2013-07-27 08:07:00,61.7,47.7,0.00,SE,135,5.8,8.1,60,0.00,,---,0.00,VWS V14.01,2013-07-27 13:07:00,
2013-07-27 08:08:00,61.7,47.7,0.00,ESE,112,5.6,8.1,60,0.00,,---,0.00,VWS V14.01,2013-07-27 13:08:00,
2013-07-27 08:09:00,61.7,47.2,0.00,ESE,112,5.8,8.1,59,0.00,,---,0.00,VWS V14.01,2013-07-27 13:09:00,
2013-07-27 08:10:00,61.7,47.2,0.00,East,90,6.0,8.1,59,0.00,,---,0.00,VWS V14.01,2013-07-27 13:10:00,
2013-07-27 08:11:00,61.7,47.2,0.00,East,90,7.4,8.1,59,0.00,,---,0.00,VWS V14.01,2013-07-27 13:11:00,
2013-07-27 08:12:00,61.5,46.6,0.00,SE,135,6.0,8.1,58,0.00,,---,0.00,VWS V14.01,2013-07-27 13:12:00,
2013-07-27 08:13:00,61.5,46.6,0.00,East,90,5.8,8.7,58,0.00,,---,0.00,VWS V14.01,2013-07-27 13:13:00,
2013-07-27 08:14:00,61.5,46.1,0.00,SE,135,8.1,8.7,57,0.00,,---,0.00,VWS V14.01,2013-07-27 13:14:00,
2013-07-27 08:15:00,61.5,46.1,0.00,ESE,112,5.4,8.7,57,0.00,,---,0.00,VWS V14.01,2013-07-27 13:15:00,
2013-07-27 08:16:00,61.3,46.0,0.00,ESE,112,6.3,9.6,57,0.00,,---,0.00,VWS V14.01,2013-07-27 13:16:00,
2013-07-27 08:17:00,61.3,46.0,0.00,SE,135,6.0,10.3,57,0.00,,---,0.00,VWS V14.01,2013-07-27 13:17:00,
2013-07-27 08:18:00,61.3,46.0,0.00,ESE,112,7.4,10.3,57,0.00,,---,0.00,VWS V14.01,2013-07-27 13:18:00,
2013-07-27 08:19:00,61.3,46.4,0.00,East,90,5.8,10.3,58,0.00,,---,0.00,VWS V14.01,2013-07-27 13:19:00,
2013-07-27 08:20:00,61.1,46.2,0.00,East,90,7.4,10.3,58,0.00,,---,0.00,VWS V14.01,2013-07-27 13:20:00,
2013-07-27 08:21:00,61.1,46.2,0.00,East,90,7.8,10.3,58,0.00,,---,0.00,VWS V14.01,2013-07-27 13:21:00,
2013-07-27 08:22:00,61.1,46.2,0.00,East,90,9.2,10.3,58,0.00,,---,0.00,VWS V14.01,2013-07-27 13:22:00,
2013-07-27 08:23:00,61.1,46.2,0.00,East,90,7.6,10.3,58,0.00,,---,0.00,VWS V14.01,2013-07-27 13:23:00,
2013-07-27 08:24:00,61.1,46.2,0.00,East,90,6.0,10.3,58,0.00,,---,0.00,VWS V14.01,2013-07-27 13:24:00,
2013-07-27 08:25:00,61.1,46.2,0.00,East,90,6.5,10.3,58,0.00,,---,0.00,VWS V14.01,2013-07-27 13:25:00,
2013-07-27 08:26:00,60.9,46.1,0.00,East,90,7.2,10.3,58,0.00,,---,0.00,VWS V14.01,2013-07-27 13:26:00,
2013-07-27 08:27:00,60.9,46.1,0.00,SE,135,6.7,10.3,58,0.00,,---,0.00,VWS V14.01,2013-07-27 13:27:00,
2013-07-27 08:28:00,60.9,46.1,0.00,SE,135,6.3,10.3,58,0.00,,---,0.00,VWS V14.01,2013-07-27 13:28:00,
2013-07-27 08:29:00,60.8,46.4,0.00,SE,135,5.8,10.3,59,0.00,,---,0.00,VWS V14.01,2013-07-27 13:29:00,
2013-07-27 08:30:00,60.8,46.4,0.00,SE,135,4.9,11.0,59,0.00,,---,0.00,VWS V14.01,2013-07-27 13:30:00,
2013-07-27 08:31:00,60.8,46.4,0.00,East,90,7.8,7.8,59,0.00,,---,0.00,VWS V14.01,2013-07-27 13:31:00,
2013-07-27 08:32:00,60.8,46.4,0.00,SE,135,5.8,7.8,59,0.00,,---,0.00,VWS V14.01,2013-07-27 13:32:00,
2013-07-27 08:33:00,60.8,46.4,0.00,East,90,6.5,7.8,59,0.00,,---,0.00,VWS V14.01,2013-07-27 13:33:00,
2013-07-27 08:34:00,60.6,46.2,0.00,East,90,7.4,7.8,59,0.00,,---,0.00,VWS V14.01,2013-07-27 13:34:00,
2013-07-27 08:35:00,60.6,46.2,0.00,SE,135,7.2,8.7,59,0.00,,---,0.00,VWS V14.01,2013-07-27 13:35:00,
2013-07-27 08:36:00,60.6,46.2,0.00,East,90,5.8,8.7,59,0.00,,---,0.00,VWS V14.01,2013-07-27 13:36:00,
2013-07-27 08:37:00,60.6,46.2,0.00,East,90,5.8,8.7,59,0.00,,---,0.00,VWS V14.01,2013-07-27 13:37:00,
2013-07-27 08:38:00,60.6,46.2,0.00,ESE,112,7.6,9.8,59,0.00,,---,0.00,VWS V14.01,2013-07-27 13:38:00,
2013-07-27 08:39:00,60.4,46.0,0.00,East,90,7.2,9.8,59,0.00,,---,0.00,VWS V14.01,2013-07-27 13:39:00,
2013-07-27 08:40:00,60.4,46.0,0.00,ESE,112,6.5,9.8,59,0.00,,---,0.00,VWS V14.01,2013-07-27 13:40:00,
2013-07-27 08:41:00,60.4,46.5,0.00,ESE,112,5.6,9.8,60,0.00,,---,0.00,VWS V14.01,2013-07-27 13:41:00,
2013-07-27 08:42:00,60.4,46.5,0.00,East,90,5.4,9.8,60,0.00,,---,0.00,VWS V14.01,2013-07-27 13:42:00,
2013-07-27 08:43:00,60.4,46.5,0.00,SE,135,3.6,9.8,60,0.00,,---,0.00,VWS V14.01,2013-07-27 13:43:00,
2013-07-27 08:44:00,60.4,46.0,0.00,East,90,4.3,9.8,59,0.00,,---,0.00,VWS V14.01,2013-07-27 13:44:00,
2013-07-27 08:45:00,60.4,46.0,0.00,East,90,8.5,9.8,59,0.00,,---,0.00,VWS V14.01,2013-07-27 13:45:00,
2013-07-27 08:46:00,60.4,46.0,0.00,East,90,8.5,8.5,59,0.00,,---,0.00,VWS V14.01,2013-07-27 13:46:00,
2013-07-27 08:47:00,60.4,46.5,0.00,ESE,112,7.4,8.5,60,0.00,,---,0.00,VWS V14.01,2013-07-27 13:47:00,
2013-07-27 08:48:00,60.2,46.3,0.00,SE,135,7.8,8.5,60,0.00,,---,0.00,VWS V14.01,2013-07-27 13:48:00,
2013-07-27 08:49:00,60.2,46.3,0.00,SE,135,7.8,8.5,60,0.00,,---,0.00,VWS V14.01,2013-07-27 13:49:00,
2013-07-27 08:50:00,60.2,46.3,0.00,East,90,6.3,8.5,60,0.00,,---,0.00,VWS V14.01,2013-07-27 13:50:00,
2013-07-27 08:51:00,60.2,46.3,0.00,East,90,7.4,8.5,60,0.00,,---,0.00,VWS V14.01,2013-07-27 13:51:00,
2013-07-27 08:52:00,60.2,46.3,0.00,East,90,7.8,8.7,60,0.00,,---,0.00,VWS V14.01,2013-07-27 13:52:00,
2013-07-27 08:53:00,60.2,46.3,0.00,SE,135,10.7,10.7,60,0.00,,---,0.00,VWS V14.01,2013-07-27 13:53:00,
2013-07-27 08:54:00,60.0,46.1,0.00,East,90,8.5,10.7,60,0.00,,---,0.00,VWS V14.01,2013-07-27 13:54:00,
2013-07-27 08:55:00,60.0,46.1,0.00,East,90,8.5,10.7,60,0.00,,---,0.00,VWS V14.01,2013-07-27 13:55:00,
2013-07-27 08:56:00,60.0,46.1,0.00,ESE,112,7.8,10.7,60,0.00,,---,0.00,VWS V14.01,2013-07-27 13:56:00,
2013-07-27 08:57:00,60.0,46.1,0.00,ESE,112,7.4,10.7,60,0.00,,---,0.00,VWS V14.01,2013-07-27 13:57:00,
2013-07-27 08:58:00,59.9,46.4,0.00,SE,135,6.5,10.7,61,0.00,,---,0.00,VWS V14.01,2013-07-27 13:58:00,
2013-07-27 08:59:00,59.9,46.4,0.00,ESE,112,8.1,10.7,61,0.00,,---,0.00,VWS V14.01,2013-07-27 13:59:00,
2013-07-27 09:00:00,59.9,46.4,0.00,ESE,112,8.1,10.7,61,0.00,,---,0.00,VWS V14.01,2013-07-27 14:00:00,
2013-07-27 09:01:00,59.9,46.4,0.00,SE,135,4.0,8.1,61,0.00,,---,0.00,VWS V14.01,2013-07-27 14:01:00,
2013-07-27 09:02:00,59.9,46.4,0.00,SE,135,7.4,8.1,61,0.00,,---,0.00,VWS V14.01,2013-07-27 14:02:00,
2013-07-27 09:03:00,59.7,46.2,0.00,SE,135,6.0,8.1,61,0.00,,---,0.00,VWS V14.01,2013-07-27 14:03:00,
2013-07-27 09:04:00,59.7,46.2,0.00,ESE,112,7.2,8.1,61,0.00,,---,0.00,VWS V14.01,2013-07-27 14:04:00,
2013-07-27 09:05:00,59.7,46.2,0.00,ESE,112,7.2,8.1,61,0.00,,---,0.00,VWS V14.01,2013-07-27 14:05:00,
2013-07-27 09:06:00,59.7,46.7,0.00,ESE,112,7.8,8.1,62,0.00,,---,0.00,VWS V14.01,2013-07-27 14:06:00,
2013-07-27 09:08:00,59.7,46.7,0.00,SE,135,4.3,8.1,62,0.00,,---,0.00,VWS V14.01,2013-07-27 14:08:00,
2013-07-27 09:09:00,59.5,46.5,0.00,ESE,112,5.4,8.1,62,0.00,,---,0.00,VWS V14.01,2013-07-27 14:09:00,
2013-07-27 09:10:00,59.5,46.5,0.00,SE,135,5.6,8.1,62,0.00,,---,0.00,VWS V14.01,2013-07-27 14:10:00,
2013-07-27 09:11:00,59.5,46.5,0.00,ESE,112,5.4,8.1,62,0.00,,---,0.00,VWS V14.01,2013-07-27 14:11:00,
2013-07-27 09:12:00,59.5,46.5,0.00,East,90,5.4,8.1,62,0.00,,---,0.00,VWS V14.01,2013-07-27 14:12:00,
2013-07-27 09:13:00,59.5,46.9,0.00,East,90,5.4,8.1,63,0.00,,---,0.00,VWS V14.01,2013-07-27 14:13:00,
2013-07-27 09:14:00,59.5,46.9,0.00,East,90,4.0,8.1,63,0.00,,---,0.00,VWS V14.01,2013-07-27 14:14:00,
2013-07-27 09:15:00,59.3,46.7,0.00,SE,135,5.4,8.1,63,0.00,,---,0.00,VWS V14.01,2013-07-27 14:15:00,
2013-07-27 09:16:00,59.3,47.2,0.00,East,90,5.8,5.8,64,0.00,,---,0.00,VWS V14.01,2013-07-27 14:16:00,
2013-07-27 09:17:00,59.3,47.2,0.00,SE,135,5.6,5.8,64,0.00,,---,0.00,VWS V14.01,2013-07-27 14:17:00,
2013-07-27 09:18:00,59.3,47.2,0.00,East,90,6.3,6.3,64,0.00,,---,0.00,VWS V14.01,2013-07-27 14:18:00,
2013-07-27 09:19:00,59.1,47.0,0.00,ESE,112,5.6,6.3,64,0.00,,---,0.00,VWS V14.01,2013-07-27 14:19:00,
2013-07-27 09:20:00,59.1,47.4,0.00,East,90,6.0,6.3,65,0.00,,---,0.00,VWS V14.01,2013-07-27 14:20:00,
2013-07-27 09:21:00,59.1,47.4,0.00,ESE,112,5.8,6.3,65,0.00,,---,0.00,VWS V14.01,2013-07-27 14:21:00,
2013-07-27 09:22:00,59.1,47.4,0.00,SE,135,5.4,6.3,65,0.00,,---,0.00,VWS V14.01,2013-07-27 14:22:00,
2013-07-27 09:23:00,59.1,47.4,0.00,SE,135,3.6,6.3,65,0.00,,---,0.00,VWS V14.01,2013-07-27 14:23:00,
2013-07-27 09:24:00,59.1,47.4,0.00,SE,135,3.4,6.3,65,0.00,,---,0.00,VWS V14.01,2013-07-27 14:24:00,
2013-07-27 09:25:00,59.1,47.8,0.00,SE,135,4.9,6.3,66,0.00,,---,0.00,VWS V14.01,2013-07-27 14:25:00,
2013-07-27 09:26:00,59.0,47.6,0.00,East,90,6.0,6.3,66,0.00,,---,0.00,VWS V14.01,2013-07-27 14:26:00,
2013-07-27 09:27:00,59.0,47.6,0.00,East,90,6.0,6.3,66,0.00,,---,0.00,VWS V14.01,2013-07-27 14:27:00,
2013-07-27 09:28:00,59.0,47.6,0.00,East,90,5.8,6.3,66,0.00,,---,0.00,VWS V14.01,2013-07-27 14:28:00,
2013-07-27 09:30:00,59.0,47.6,0.00,ESE,112,4.0,6.3,66,0.00,,---,0.00,VWS V14.01,2013-07-27 14:30:00,
2013-07-27 09:31:00,59.0,48.0,0.00,SE,135,6.3,6.3,67,0.00,,---,0.00,VWS V14.01,2013-07-27 14:31:00,
2013-07-27 09:32:00,58.8,47.9,0.00,SE,135,4.3,6.3,67,0.00,,---,0.00,VWS V14.01,2013-07-27 14:32:00,
2013-07-27 09:33:00,58.8,47.9,0.00,SE,135,4.9,6.3,67,0.00,,---,0.00,VWS V14.01,2013-07-27 14:33:00,
2013-07-27 09:34:00,58.8,47.9,0.00,SE,135,4.9,6.3,67,0.00,,---,0.00,VWS V14.01,2013-07-27 14:34:00,
2013-07-27 09:35:00,58.6,47.7,0.00,SE,135,4.5,6.3,67,0.00,,---,0.00,VWS V14.01,2013-07-27 14:35:00,
2013-07-27 09:36:00,58.6,47.7,0.00,SE,135,4.0,6.3,67,0.00,,---,0.00,VWS V14.01,2013-07-27 14:36:00,
2013-07-27 09:37:00,58.6,47.7,0.00,SE,135,4.0,6.3,67,0.00,,---,0.00,VWS V14.01,2013-07-27 14:37:00,
2013-07-27 09:38:00,58.6,48.1,0.00,ESE,112,2.9,6.3,68,0.00,,---,0.00,VWS V14.01,2013-07-27 14:38:00,
2013-07-27 09:39:00,58.6,48.1,0.00,East,90,3.6,6.3,68,0.00,,---,0.00,VWS V14.01,2013-07-27 14:39:00,
2013-07-27 09:40:00,58.6,48.1,0.00,East,90,3.6,6.3,68,0.00,,---,0.00,VWS V14.01,2013-07-27 14:40:00,
2013-07-27 09:41:00,58.4,47.9,0.00,East,90,3.4,6.3,68,0.00,,---,0.00,VWS V14.01,2013-07-27 14:41:00,
2013-07-27 09:42:00,58.4,47.9,0.00,East,90,3.4,6.3,68,0.00,,---,0.00,VWS V14.01,2013-07-27 14:42:00,
2013-07-27 09:43:00,58.4,47.9,0.00,East,90,2.7,6.3,68,0.00,,---,0.00,VWS V14.01,2013-07-27 14:43:00,
2013-07-27 09:44:00,58.4,48.3,0.00,East,90,3.4,6.3,69,0.00,,---,0.00,VWS V14.01,2013-07-27 14:44:00,
2013-07-27 09:45:00,58.4,48.3,0.00,East,90,3.1,6.3,69,0.00,,---,0.00,VWS V14.01,2013-07-27 14:45:00,
2013-07-27 09:46:00,58.4,47.9,0.00,SE,135,2.5,3.1,68,0.00,,---,0.00,VWS V14.01,2013-07-27 14:46:00,
2013-07-27 09:47:00,58.4,47.9,0.00,SE,135,2.7,3.1,68,0.00,,---,0.00,VWS V14.01,2013-07-27 14:47:00,
2013-07-27 09:48:00,58.4,48.3,0.00,East,90,2.7,3.1,69,0.00,,---,0.00,VWS V14.01,2013-07-27 14:48:00,
2013-07-27 09:49:00,58.4,48.3,0.00,East,90,2.0,3.1,69,0.00,,---,0.00,VWS V14.01,2013-07-27 14:49:00,
2013-07-27 09:50:00,58.4,48.3,0.00,East,90,2.7,3.1,69,0.00,,---,0.00,VWS V14.01,2013-07-27 14:50:00,
2013-07-27 09:51:00,58.4,48.3,0.00,ESE,112,2.5,3.1,69,0.00,,---,0.00,VWS V14.01,2013-07-27 14:51:00,
2013-07-27 09:52:00,58.4,48.3,0.00,NE,45,1.3,3.1,69,0.00,,---,0.00,VWS V14.01,2013-07-27 14:52:00,
2013-07-27 09:53:00,58.4,48.3,0.00,ENE,68,3.8,3.8,69,0.00,,---,0.00,VWS V14.01,2013-07-27 14:53:00,
2013-07-27 09:54:00,58.4,48.7,0.00,ENE,68,4.3,4.3,70,0.00,,---,0.00,VWS V14.01,2013-07-27 14:54:00,
2013-07-27 09:55:00,58.4,48.7,0.00,NE,45,5.4,5.4,70,0.00,,---,0.00,VWS V14.01,2013-07-27 14:55:00,
2013-07-27 09:56:00,58.2,48.5,0.00,East,90,4.3,4.3,70,0.00,,---,0.00,VWS V14.01,2013-07-27 14:56:00,
2013-07-27 09:57:00,58.2,48.5,0.00,East,90,4.3,4.3,70,0.00,,---,0.00,VWS V14.01,2013-07-27 14:57:00,
2013-07-27 09:58:00,58.2,48.5,0.00,East,90,3.8,3.8,70,0.00,,---,0.00,VWS V14.01,2013-07-27 14:58:00,
2013-07-27 09:59:00,58.2,48.5,0.00,East,90,3.8,3.8,70,0.00,,---,0.00,VWS V14.01,2013-07-27 14:59:00,
2013-07-27 10:00:00,58.2,48.5,0.00,ENE,68,3.4,3.4,70,0.00,,---,0.00,VWS V14.01,2013-07-27 15:00:00,
2013-07-27 10:01:00,58.2,48.5,0.00,ENE,68,3.4,3.4,70,0.00,,---,0.00,VWS V14.01,2013-07-27 15:01:00,
2013-07-27 10:02:00,58.2,48.5,0.00,ENE,68,3.4,3.4,70,0.00,,---,0.00,VWS V14.01,2013-07-27 15:02:00,
2013-07-27 10:03:00,58.2,48.5,0.00,East,90,3.8,3.8,70,0.00,,---,0.00,VWS V14.01,2013-07-27 15:03:00,
2013-07-27 10:04:00,58.2,48.5,0.00,East,90,3.8,5.6,70,0.00,,---,0.00,VWS V14.01,2013-07-27 15:04:00,
2013-07-27 10:05:00,58.2,48.5,0.00,East,90,3.8,5.6,70,0.00,,---,0.00,VWS V14.01,2013-07-27 15:05:00,
2013-07-27 10:06:00,58.1,48.3,0.00,ENE,68,3.8,5.6,70,0.00,,---,0.00,VWS V14.01,2013-07-27 15:06:00,
2013-07-27 10:07:00,58.1,48.3,0.00,ENE,68,3.8,5.6,70,0.00,,---,0.00,VWS V14.01,2013-07-27 15:07:00,
2013-07-27 10:08:00,58.1,48.3,0.00,ENE,68,3.8,5.6,70,0.00,,---,0.00,VWS V14.01,2013-07-27 15:08:00,
2013-07-27 10:09:00,58.1,48.3,0.00,NE,45,3.1,5.6,70,0.00,,---,0.00,VWS V14.01,2013-07-27 15:09:00,
2013-07-27 10:10:00,58.1,48.3,0.00,NE,45,3.1,5.6,70,0.00,,---,0.00,VWS V14.01,2013-07-27 15:10:00,
2013-07-27 10:11:00,58.1,48.3,0.00,NE,45,2.9,5.6,70,0.00,,---,0.00,VWS V14.01,2013-07-27 15:11:00,
2013-07-27 10:12:00,58.1,48.3,0.00,NE,45,3.1,5.6,70,0.00,,---,0.00,VWS V14.01,2013-07-27 15:12:00,
2013-07-27 10:13:00,58.1,48.3,0.00,NE,45,3.1,5.6,70,0.00,,---,0.00,VWS V14.01,2013-07-27 15:13:00,
2013-07-27 10:14:00,57.9,48.2,0.00,NE,45,2.5,5.6,70,0.00,,---,0.00,VWS V14.01,2013-07-27 15:14:00,
2013-07-27 10:15:00,57.9,48.2,0.00,NE,45,1.6,5.6,70,0.00,,---,0.00,VWS V14.01,2013-07-27 15:15:00,
2013-07-27 10:16:00,57.9,48.2,0.00,East,90,2.0,2.0,70,0.00,,---,0.00,VWS V14.01,2013-07-27 15:16:00,
2013-07-27 10:17:00,57.9,48.5,0.00,East,90,3.6,4.7,71,0.00,,---,0.00,VWS V14.01,2013-07-27 15:17:00,
2013-07-27 10:18:00,57.9,48.5,0.00,NE,45,2.9,4.7,71,0.00,,---,0.00,VWS V14.01,2013-07-27 15:18:00,
2013-07-27 10:19:00,57.9,48.5,0.00,NE,45,4.7,4.7,71,0.00,,---,0.00,VWS V14.01,2013-07-27 15:19:00,
2013-07-27 10:20:00,57.9,48.5,0.00,East,90,5.4,5.4,71,0.00,,---,0.00,VWS V14.01,2013-07-27 15:20:00,
2013-07-27 10:21:00,57.9,48.2,0.00,ENE,68,4.3,5.4,70,0.00,,---,0.00,VWS V14.01,2013-07-27 15:21:00,
2013-07-27 10:22:00,57.9,48.2,0.00,NE,45,5.4,5.4,70,0.00,,---,0.00,VWS V14.01,2013-07-27 15:22:00,
2013-07-27 10:23:00,57.9,48.2,0.00,NE,45,3.1,5.4,70,0.00,,---,0.00,VWS V14.01,2013-07-27 15:23:00,
2013-07-27 10:24:00,57.9,48.5,0.00,NE,45,4.9,5.4,71,0.00,,---,0.00,VWS V14.01,2013-07-27 15:24:00,
2013-07-27 10:26:00,57.9,48.5,0.00,NE,45,3.6,5.4,71,0.00,,---,0.00,VWS V14.01,2013-07-27 15:26:00,
2013-07-27 10:27:00,57.9,48.5,0.00,NE,45,4.0,5.4,71,0.00,,---,0.00,VWS V14.01,2013-07-27 15:27:00,
2013-07-27 10:28:00,57.9,48.5,0.00,NE,45,4.0,5.4,71,0.00,,---,0.00,VWS V14.01,2013-07-27 15:28:00,
2013-07-27 10:29:00,57.7,48.4,0.00,NE,45,4.9,5.4,71,0.00,,---,0.00,VWS V14.01,2013-07-27 15:29:00,
2013-07-27 10:30:00,57.7,48.4,0.00,NE,45,3.8,5.4,71,0.00,,---,0.00,VWS V14.01,2013-07-27 15:30:00,
2013-07-27 10:32:00,57.7,48.4,0.00,NE,45,3.6,4.3,71,0.00,,---,0.00,VWS V14.01,2013-07-27 15:32:00,
2013-07-27 10:34:00,57.7,48.4,0.00,NE,45,3.6,4.3,71,0.00,,---,0.00,VWS V14.01,2013-07-27 15:34:00,
2013-07-27 10:35:00,57.7,48.4,0.00,NE,45,2.9,4.3,71,0.00,,---,0.00,VWS V14.01,2013-07-27 15:35:00,
2013-07-27 10:36:00,57.7,48.4,0.00,NE,45,2.9,4.3,71,0.00,,---,0.00,VWS V14.01,2013-07-27 15:36:00,
2013-07-27 10:37:00,57.7,48.4,0.00,NE,45,2.9,4.3,71,0.00,,---,0.00,VWS V14.01,2013-07-27 15:37:00,
2013-07-27 10:38:00,57.5,48.2,0.00,NE,45,4.0,4.3,71,0.00,,---,0.00,VWS V14.01,2013-07-27 15:38:00,
2013-07-27 10:39:00,57.5,48.2,0.00,NE,45,4.3,5.4,71,0.00,,---,0.00,VWS V14.01,2013-07-27 15:39:00,
2013-07-27 10:40:00,57.5,47.8,0.00,NE,45,4.9,5.4,70,0.00,,---,0.00,VWS V14.01,2013-07-27 15:40:00,
2013-07-27 10:41:00,57.5,47.8,0.00,NE,45,3.4,5.4,70,0.00,,---,0.00,VWS V14.01,2013-07-27 15:41:00,
2013-07-27 10:42:00,57.5,47.8,0.00,ENE,68,3.4,5.4,70,0.00,,---,0.00,VWS V14.01,2013-07-27 15:42:00,
2013-07-27 10:43:00,57.3,47.7,0.00,NE,45,2.7,5.4,70,0.00,,---,0.00,VWS V14.01,2013-07-27 15:43:00,
2013-07-27 10:44:00,57.3,47.7,0.00,NE,45,2.9,5.4,70,0.00,,---,0.00,VWS V14.01,2013-07-27 15:44:00,
2013-07-27 10:45:00,57.3,47.7,0.00,NE,45,2.5,5.4,70,0.00,,---,0.00,VWS V14.01,2013-07-27 15:45:00,
2013-07-27 10:46:00,57.3,47.7,0.00,NE,45,2.7,3.4,70,0.00,,---,0.00,VWS V14.01,2013-07-27 15:46:00,
2013-07-27 10:47:00,57.3,47.7,0.00,NE,45,3.1,3.4,70,0.00,,---,0.00,VWS V14.01,2013-07-27 15:47:00,
2013-07-27 10:48:00,57.3,48.0,0.00,NE,45,2.7,3.4,71,0.00,,---,0.00,VWS V14.01,2013-07-27 15:48:00,
2013-07-27 10:49:00,57.3,48.0,0.00,ENE,68,2.9,3.4,71,0.00,,---,0.00,VWS V14.01,2013-07-27 15:49:00,
2013-07-27 10:50:00,57.3,48.0,0.00,East,90,2.7,3.4,71,0.00,,---,0.00,VWS V14.01,2013-07-27 15:50:00,
2013-07-27 10:51:00,57.3,48.0,0.00,East,90,2.0,3.4,71,0.00,,---,0.00,VWS V14.01,2013-07-27 15:51:00,
2013-07-27 10:52:00,57.2,47.9,0.00,ENE,68,3.6,3.6,71,0.00,,---,0.00,VWS V14.01,2013-07-27 15:52:00,
2013-07-27 10:53:00,57.2,47.9,0.00,ENE,68,2.0,3.6,71,0.00,,---,0.00,VWS V14.01,2013-07-27 15:53:00,
2013-07-27 10:54:00,57.2,47.9,0.00,East,90,3.1,3.6,71,0.00,,---,0.00,VWS V14.01,2013-07-27 15:54:00,
2013-07-27 10:56:00,57.2,47.9,0.00,NE,45,2.9,3.6,71,0.00,,---,0.00,VWS V14.01,2013-07-27 15:56:00,
2013-07-27 10:57:00,57.2,47.9,0.00,NE,45,2.5,3.6,71,0.00,,---,0.00,VWS V14.01,2013-07-27 15:57:00,
2013-07-27 10:58:00,57.2,47.9,0.00,NE,45,2.5,3.6,71,0.00,,---,0.00,VWS V14.01,2013-07-27 15:58:00,
2013-07-27 10:59:00,57.2,47.9,0.00,NE,45,3.1,3.6,71,0.00,,---,0.00,VWS V14.01,2013-07-27 15:59:00,
2013-07-27 11:00:00,57.2,47.9,0.00,NE,45,3.8,3.8,71,0.00,,---,0.00,VWS V14.01,2013-07-27 16:00:00,
2013-07-27 11:01:00,57.0,47.7,0.00,NE,45,3.1,3.8,71,0.00,,---,0.00,VWS V14.01,2013-07-27 16:01:00,
2013-07-27 11:02:00,57.0,47.7,0.00,NE,45,2.5,3.8,71,0.00,,---,0.00,VWS V14.01,2013-07-27 16:02:00,
2013-07-27 11:03:00,57.0,47.7,0.00,NE,45,2.9,3.8,71,0.00,,---,0.00,VWS V14.01,2013-07-27 16:03:00,
2013-07-27 11:04:00,57.0,47.7,0.00,NE,45,2.9,3.8,71,0.00,,---,0.00,VWS V14.01,2013-07-27 16:04:00,
2013-07-27 11:06:00,57.0,47.7,0.00,NE,45,2.9,3.8,71,0.00,,---,0.00,VWS V14.01,2013-07-27 16:06:00,
2013-07-27 11:07:00,57.0,47.7,0.00,NE,45,2.0,3.8,71,0.00,,---,0.00,VWS V14.01,2013-07-27 16:07:00,
2013-07-27 11:08:00,57.0,47.7,0.00,East,90,0.0,3.8,71,0.00,,---,0.00,VWS V14.01,2013-07-27 16:08:00,
2013-07-27 11:09:00,57.0,47.7,0.00,East,90,0.9,3.8,71,0.00,,---,0.00,VWS V14.01,2013-07-27 16:09:00,
2013-07-27 11:10:00,57.0,47.7,0.00,East,90,2.2,3.8,71,0.00,,---,0.00,VWS V14.01,2013-07-27 16:10:00,
2013-07-27 11:11:00,57.0,47.7,0.00,SE,135,1.1,3.8,71,0.00,,---,0.00,VWS V14.01,2013-07-27 16:11:00,
2013-07-27 11:12:00,57.0,47.7,0.00,East,90,0.0,3.8,71,0.00,,---,0.00,VWS V14.01,2013-07-27 16:12:00,
2013-07-27 11:13:00,57.0,47.7,0.00,SE,135,1.3,3.8,71,0.00,,---,0.00,VWS V14.01,2013-07-27 16:13:00,
2013-07-27 11:14:00,57.0,47.7,0.00,East,90,1.1,3.8,71,0.00,,---,0.00,VWS V14.01,2013-07-27 16:14:00,
2013-07-27 11:15:00,57.0,47.7,0.00,East,90,2.5,3.8,71,0.00,,---,0.00,VWS V14.01,2013-07-27 16:15:00,
2013-07-27 11:16:00,57.0,47.7,0.00,ESE,112,2.0,2.9,71,0.00,,---,0.00,VWS V14.01,2013-07-27 16:16:00,
2013-07-27 11:17:00,57.0,47.7,0.00,East,90,3.4,3.4,71,0.00,,---,0.00,VWS V14.01,2013-07-27 16:17:00,
2013-07-27 11:18:00,57.0,48.1,0.00,SE,135,2.7,4.0,72,0.00,,---,0.00,VWS V14.01,2013-07-27 16:18:00,
2013-07-27 11:19:00,57.0,48.1,0.00,East,90,3.1,4.0,72,0.00,,---,0.00,VWS V14.01,2013-07-27 16:19:00,
2013-07-27 11:20:00,57.0,48.1,0.00,East,90,1.3,4.0,72,0.00,,---,0.00,VWS V14.01,2013-07-27 16:20:00,
2013-07-27 11:21:00,56.8,47.9,0.00,NE,45,2.5,4.7,72,0.00,,---,0.00,VWS V14.01,2013-07-27 16:21:00,
2013-07-27 11:22:00,56.8,47.9,0.00,East,90,1.6,4.7,72,0.00,,---,0.00,VWS V14.01,2013-07-27 16:22:00,
2013-07-27 11:23:00,56.8,47.9,0.00,East,90,2.7,4.7,72,0.00,,---,0.00,VWS V14.01,2013-07-27 16:23:00,
2013-07-27 11:24:00,56.8,47.9,0.00,East,90,3.1,4.7,72,0.00,,---,0.00,VWS V14.01,2013-07-27 16:24:00,
2013-07-27 11:25:00,56.8,47.9,0.00,East,90,3.4,4.7,72,0.00,,---,0.00,VWS V14.01,2013-07-27 16:25:00,
2013-07-27 11:26:00,56.8,47.9,0.00,ESE,112,4.0,4.7,72,0.00,,---,0.00,VWS V14.01,2013-07-27 16:26:00,
2013-07-27 11:27:00,56.8,47.9,0.00,SE,135,3.8,4.7,72,0.00,,---,0.00,VWS V14.01,2013-07-27 16:27:00,
2013-07-27 11:28:00,56.8,47.9,0.00,East,90,4.9,5.4,72,0.00,,---,0.00,VWS V14.01,2013-07-27 16:28:00,
2013-07-27 11:29:00,56.8,47.9,0.00,East,90,5.4,5.6,72,0.00,,---,0.00,VWS V14.01,2013-07-27 16:29:00,
2013-07-27 11:30:00,56.6,48.1,0.00,East,90,5.6,5.6,73,0.00,,---,0.00,VWS V14.01,2013-07-27 16:30:00,
2013-07-27 11:31:00,56.6,48.1,0.00,SE,135,3.1,5.6,73,0.00,,---,0.00,VWS V14.01,2013-07-27 16:31:00,
2013-07-27 11:32:00,56.6,47.7,0.00,East,90,5.4,6.0,72,0.00,,---,0.00,VWS V14.01,2013-07-27 16:32:00,
2013-07-27 11:33:00,56.6,47.7,0.00,East,90,4.7,6.9,72,0.00,,---,0.00,VWS V14.01,2013-07-27 16:33:00,
2013-07-27 11:34:00,56.6,47.7,0.00,ENE,68,4.0,8.1,72,0.00,,---,0.00,VWS V14.01,2013-07-27 16:34:00,
2013-07-27 11:35:00,56.6,47.7,0.00,ESE,112,3.8,8.1,72,0.00,,---,0.00,VWS V14.01,2013-07-27 16:35:00,
2013-07-27 11:36:00,56.6,47.7,0.00,East,90,3.1,8.1,72,0.00,,---,0.00,VWS V14.01,2013-07-27 16:36:00,
2013-07-27 11:37:00,56.6,47.7,0.00,East,90,4.3,8.1,72,0.00,,---,0.00,VWS V14.01,2013-07-27 16:37:00,
2013-07-27 11:38:00,56.6,47.7,0.00,ENE,68,2.7,8.1,72,0.00,,---,0.00,VWS V14.01,2013-07-27 16:38:00,
2013-07-27 11:39:00,56.6,47.7,0.00,East,90,4.0,8.1,72,0.00,,---,0.00,VWS V14.01,2013-07-27 16:39:00,
2013-07-27 11:40:00,56.4,47.5,0.00,SE,135,4.0,8.1,72,0.00,,---,0.00,VWS V14.01,2013-07-27 16:40:00,
2013-07-27 11:41:00,56.4,47.9,0.00,ESE,112,5.8,8.1,73,0.00,,---,0.00,VWS V14.01,2013-07-27 16:41:00,
2013-07-27 11:42:00,56.4,47.9,0.00,East,90,3.1,8.1,73,0.00,,---,0.00,VWS V14.01,2013-07-27 16:42:00,
2013-07-27 11:43:00,56.4,47.5,0.00,SE,135,4.0,8.1,72,0.00,,---,0.00,VWS V14.01,2013-07-27 16:43:00,
2013-07-27 11:44:00,56.4,47.5,0.00,SE,135,4.9,8.1,72,0.00,,---,0.00,VWS V14.01,2013-07-27 16:44:00,
2013-07-27 11:45:00,56.4,47.9,0.00,SE,135,4.5,8.1,73,0.00,,---,0.00,VWS V14.01,2013-07-27 16:45:00,
2013-07-27 11:46:00,56.3,47.7,0.00,SE,135,5.8,5.8,73,0.00,,---,0.00,VWS V14.01,2013-07-27 16:46:00,
2013-07-27 11:47:00,56.3,47.7,0.00,SE,135,6.5,6.5,73,0.00,,---,0.00,VWS V14.01,2013-07-27 16:47:00,
2013-07-27 11:48:00,56.3,47.4,0.00,SE,135,5.6,6.5,72,0.00,,---,0.00,VWS V14.01,2013-07-27 16:48:00,
2013-07-27 11:49:00,56.3,47.4,0.00,SE,135,6.3,7.8,72,0.00,,---,0.00,VWS V14.01,2013-07-27 16:49:00,
2013-07-27 11:50:00,56.3,47.4,0.00,ESE,112,4.3,7.8,72,0.00,,---,0.00,VWS V14.01,2013-07-27 16:50:00,
2013-07-27 11:51:00,56.3,47.4,0.00,ESE,112,5.6,7.8,72,0.00,,---,0.00,VWS V14.01,2013-07-27 16:51:00,
2013-07-27 11:52:00,56.3,47.4,0.00,SE,135,4.9,7.8,72,0.00,,---,0.00,VWS V14.01,2013-07-27 16:52:00,
2013-07-27 11:53:00,56.1,47.2,0.00,SE,135,5.8,7.8,72,0.00,,---,0.00,VWS V14.01,2013-07-27 16:53:00,
2013-07-27 11:54:00,56.1,47.2,0.00,SE,135,7.4,7.8,72,0.00,,---,0.00,VWS V14.01,2013-07-27 16:54:00,
2013-07-27 11:55:00,56.1,47.2,0.00,SE,135,4.9,7.8,72,0.00,,---,0.00,VWS V14.01,2013-07-27 16:55:00,
2013-07-27 11:56:00,56.1,47.2,0.00,SE,135,7.8,8.1,72,0.00,,---,0.00,VWS V14.01,2013-07-27 16:56:00,
2013-07-27 11:57:00,56.1,47.2,0.00,SE,135,5.8,8.1,72,0.00,,---,0.00,VWS V14.01,2013-07-27 16:57:00,
2013-07-27 11:58:00,56.1,46.8,0.00,East,90,6.0,8.1,71,0.00,,---,0.00,VWS V14.01,2013-07-27 16:58:00,
2013-07-27 12:00:00,56.1,46.8,0.00,SE,135,6.3,8.1,71,0.00,,---,0.00,VWS V14.01,2013-07-27 17:00:00,
2013-07-27 12:01:00,56.1,46.8,0.00,East,90,4.7,6.3,71,0.00,,---,0.00,VWS V14.01,2013-07-27 17:01:00,
2013-07-27 12:02:00,56.3,47.4,0.00,ESE,112,6.0,6.3,72,0.00,,---,0.00,VWS V14.01,2013-07-27 17:02:00,
2013-07-27 12:03:00,56.3,47.4,0.00,SE,135,7.2,7.2,72,0.00,,---,0.00,VWS V14.01,2013-07-27 17:03:00,
2013-07-27 12:04:00,56.3,47.4,0.00,SE,135,7.2,7.2,72,0.00,,---,0.00,VWS V14.01,2013-07-27 17:04:00,
2013-07-27 12:05:00,56.3,47.4,0.00,SE,135,7.4,7.4,72,0.00,,---,0.00,VWS V14.01,2013-07-27 17:05:00,
2013-07-27 12:06:00,56.3,47.4,0.00,ESE,112,6.5,7.6,72,0.00,,---,0.00,VWS V14.01,2013-07-27 17:06:00,
2013-07-27 12:07:00,56.3,47.4,0.00,ESE,112,7.4,7.6,72,0.00,,---,0.00,VWS V14.01,2013-07-27 17:07:00,
2013-07-27 12:08:00,56.3,47.4,0.00,ESE,112,7.4,7.6,72,0.00,,---,0.00,VWS V14.01,2013-07-27 17:08:00,
2013-07-27 12:09:00,56.3,47.4,0.00,ESE,112,6.0,7.6,72,0.00,,---,0.00,VWS V14.01,2013-07-27 17:09:00,
2013-07-27 12:10:00,56.3,47.4,0.00,SE,135,3.4,7.6,72,0.00,,---,0.00,VWS V14.01,2013-07-27 17:10:00,
2013-07-27 12:11:00,56.3,47.4,0.00,ESE,112,6.5,7.6,72,0.00,,---,0.00,VWS V14.01,2013-07-27 17:11:00,
2013-07-27 12:12:00,56.3,47.7,0.00,SE,135,6.3,7.6,73,0.00,,---,0.00,VWS V14.01,2013-07-27 17:12:00,
2013-07-27 12:13:00,56.3,47.7,0.00,SE,135,6.3,7.8,73,0.00,,---,0.00,VWS V14.01,2013-07-27 17:13:00,
2013-07-27 12:15:00,56.3,47.4,0.00,East,90,7.4,7.8,72,0.00,,---,0.00,VWS V14.01,2013-07-27 17:15:00,
2013-07-27 12:17:00,56.3,47.4,0.00,SE,135,4.7,7.4,72,0.00,,---,0.00,VWS V14.01,2013-07-27 17:17:00,
2013-07-27 12:18:00,56.3,47.7,0.00,East,90,6.9,7.4,73,0.00,,---,0.00,VWS V14.01,2013-07-27 17:18:00,
2013-07-27 12:19:00,56.3,47.4,0.00,SE,135,4.7,7.4,72,0.00,,---,0.00,VWS V14.01,2013-07-27 17:19:00,
2013-07-27 12:20:00,56.3,47.7,0.00,SE,135,5.4,7.4,73,0.00,,---,0.00,VWS V14.01,2013-07-27 17:20:00,
2013-07-27 12:21:00,56.3,47.7,0.00,SE,135,5.8,7.4,73,0.00,,---,0.00,VWS V14.01,2013-07-27 17:21:00,
2013-07-27 12:22:00,56.3,47.4,0.00,East,90,7.4,7.4,72,0.00,,---,0.00,VWS V14.01,2013-07-27 17:22:00,
2013-07-27 12:23:00,56.3,47.4,0.00,SE,135,5.8,7.4,72,0.00,,---,0.00,VWS V14.01,2013-07-27 17:23:00,
2013-07-27 12:24:00,56.3,47.4,0.00,SE,135,4.9,7.4,72,0.00,,---,0.00,VWS V14.01,2013-07-27 17:24:00,
2013-07-27 12:25:00,56.3,47.4,0.00,SE,135,4.3,7.4,72,0.00,,---,0.00,VWS V14.01,2013-07-27 17:25:00,
2013-07-27 12:26:00,56.3,47.4,0.00,ESE,112,6.3,7.4,72,0.00,,---,0.00,VWS V14.01,2013-07-27 17:26:00,
2013-07-27 12:27:00,56.3,47.4,0.00,East,90,5.6,7.4,72,0.00,,---,0.00,VWS V14.01,2013-07-27 17:27:00,
2013-07-27 12:28:00,56.3,47.4,0.00,SE,135,4.9,7.4,72,0.00,,---,0.00,VWS V14.01,2013-07-27 17:28:00,
2013-07-27 12:29:00,56.3,47.4,0.00,East,90,4.0,7.4,72,0.00,,---,0.00,VWS V14.01,2013-07-27 17:29:00,
2013-07-27 12:30:00,56.3,47.4,0.00,East,90,4.7,7.4,72,0.00,,---,0.00,VWS V14.01,2013-07-27 17:30:00,
2013-07-27 12:31:00,56.3,47.4,0.00,East,90,5.4,5.4,72,0.00,,---,0.00,VWS V14.01,2013-07-27 17:31:00,
2013-07-27 12:32:00,56.3,47.4,0.00,East,90,4.7,6.3,72,0.00,,---,0.00,VWS V14.01,2013-07-27 17:32:00,
2013-07-27 12:33:00,56.1,47.2,0.00,SE,135,5.4,6.3,72,0.00,,---,0.00,VWS V14.01,2013-07-27 17:33:00,
2013-07-27 12:34:00,56.3,47.4,0.00,SE,135,3.4,6.3,72,0.00,,---,0.00,VWS V14.01,2013-07-27 17:34:00,
2013-07-27 12:35:00,56.3,47.4,0.00,SE,135,4.3,6.3,72,0.00,,---,0.00,VWS V14.01,2013-07-27 17:35:00,
2013-07-27 12:36:00,56.3,47.4,0.00,SE,135,3.6,6.3,72,0.00,,---,0.00,VWS V14.01,2013-07-27 17:36:00,
2013-07-27 12:37:00,56.3,47.4,0.00,NE,45,4.0,6.3,72,0.00,,---,0.00,VWS V14.01,2013-07-27 17:37:00,
2013-07-27 12:38:00,56.3,47.4,0.00,East,90,4.3,6.3,72,0.00,,---,0.00,VWS V14.01,2013-07-27 17:38:00,
2013-07-27 12:39:00,56.3,47.4,0.00,East,90,4.3,6.3,72,0.00,,---,0.00,VWS V14.01,2013-07-27 17:39:00,
2013-07-27 12:40:00,56.3,47.4,0.00,SE,135,4.0,6.3,72,0.00,,---,0.00,VWS V14.01,2013-07-27 17:40:00,
2013-07-27 12:41:00,56.3,47.4,0.00,East,90,2.7,6.3,72,0.00,,---,0.00,VWS V14.01,2013-07-27 17:41:00,
2013-07-27 12:42:00,56.3,47.4,0.00,East,90,3.8,6.3,72,0.00,,---,0.00,VWS V14.01,2013-07-27 17:42:00,
2013-07-27 12:43:00,56.3,47.4,0.00,ESE,112,4.0,6.3,72,0.00,,---,0.00,VWS V14.01,2013-07-27 17:43:00,
2013-07-27 12:45:00,56.3,47.4,0.00,SE,135,4.3,6.3,72,0.00,,---,0.00,VWS V14.01,2013-07-27 17:45:00,
2013-07-27 12:47:00,56.1,47.2,0.00,ESE,112,4.7,4.7,72,0.00,,---,0.00,VWS V14.01,2013-07-27 17:47:00,
2013-07-27 12:48:00,56.1,47.2,0.00,ESE,112,3.8,4.7,72,0.00,,---,0.00,VWS V14.01,2013-07-27 17:48:00,
2013-07-27 12:49:00,56.1,47.2,0.00,NE,45,2.9,4.7,72,0.00,,---,0.00,VWS V14.01,2013-07-27 17:49:00,
2013-07-27 12:50:00,56.1,47.2,0.00,East,90,3.8,4.7,72,0.00,,---,0.00,VWS V14.01,2013-07-27 17:50:00,
2013-07-27 12:51:00,56.1,47.2,0.00,East,90,4.0,4.7,72,0.00,,---,0.00,VWS V14.01,2013-07-27 17:51:00,
2013-07-27 12:52:00,56.1,47.2,0.00,ESE,112,3.6,4.7,72,0.00,,---,0.00,VWS V14.01,2013-07-27 17:52:00,
2013-07-27 12:53:00,56.1,47.2,0.00,East,90,2.7,4.9,72,0.00,,---,0.00,VWS V14.01,2013-07-27 17:53:00,
2013-07-27 12:54:00,56.1,47.2,0.00,East,90,4.0,4.9,72,0.00,,---,0.00,VWS V14.01,2013-07-27 17:54:00,
2013-07-27 12:55:00,56.1,47.2,0.00,NE,45,3.4,4.9,72,0.00,,---,0.00,VWS V14.01,2013-07-27 17:55:00,
2013-07-27 12:56:00,56.1,47.2,0.00,East,90,3.6,4.9,72,0.00,,---,0.00,VWS V14.01,2013-07-27 17:56:00,
2013-07-27 12:57:00,56.1,47.2,0.00,East,90,2.7,4.9,72,0.00,,---,0.00,VWS V14.01,2013-07-27 17:57:00,
2013-07-27 12:58:00,56.1,47.2,0.00,East,90,2.9,4.9,72,0.00,,---,0.00,VWS V14.01,2013-07-27 17:58:00,
2013-07-27 12:59:00,56.1,47.2,0.00,East,90,2.7,4.9,72,0.00,,---,0.00,VWS V14.01,2013-07-27 17:59:00,
2013-07-27 13:00:00,56.1,47.2,0.00,East,90,1.3,4.9,72,0.00,,---,0.00,VWS V14.01,2013-07-27 18:00:00,
2013-07-27 13:01:00,56.1,47.2,0.00,East,90,2.9,3.4,72,0.00,,---,0.00,VWS V14.01,2013-07-27 18:01:00,
2013-07-27 13:02:00,56.1,47.2,0.00,NE,45,4.0,4.0,72,0.00,,---,0.00,VWS V14.01,2013-07-27 18:02:00,
2013-07-27 13:03:00,56.1,47.2,0.00,NE,45,3.6,4.0,72,0.00,,---,0.00,VWS V14.01,2013-07-27 18:03:00,
2013-07-27 13:04:00,56.1,47.2,0.00,East,90,3.4,4.0,72,0.00,,---,0.00,VWS V14.01,2013-07-27 18:04:00,
2013-07-27 13:05:00,56.1,47.2,0.00,NE,45,2.7,4.0,72,0.00,,---,0.00,VWS V14.01,2013-07-27 18:05:00,
2013-07-27 13:06:00,56.1,47.2,0.00,East,90,4.0,4.0,72,0.00,,---,0.00,VWS V14.01,2013-07-27 18:06:00,
2013-07-27 13:07:00,56.1,47.2,0.00,NE,45,4.9,5.4,72,0.00,,---,0.00,VWS V14.01,2013-07-27 18:07:00,
2013-07-27 13:08:00,55.9,47.0,0.00,East,90,2.7,5.4,72,0.00,,---,0.00,VWS V14.01,2013-07-27 18:08:00,
2013-07-27 13:09:00,55.9,47.0,0.00,East,90,2.9,5.4,72,0.00,,---,0.00,VWS V14.01,2013-07-27 18:09:00,
2013-07-27 13:10:00,55.9,47.0,0.00,East,90,3.8,5.4,72,0.00,,---,0.00,VWS V14.01,2013-07-27 18:10:00,
2013-07-27 13:11:00,55.9,47.0,0.00,East,90,3.4,5.4,72,0.00,,---,0.00,VWS V14.01,2013-07-27 18:11:00,
2013-07-27 13:12:00,55.9,47.0,0.00,ENE,68,2.7,5.4,72,0.00,,---,0.00,VWS V14.01,2013-07-27 18:12:00,
2013-07-27 13:13:00,55.9,47.0,0.00,ESE,112,5.4,5.4,72,0.00,,---,0.00,VWS V14.01,2013-07-27 18:13:00,
2013-07-27 13:14:00,55.9,47.0,0.00,ESE,112,3.4,5.4,72,0.00,,---,0.00,VWS V14.01,2013-07-27 18:14:00,
2013-07-27 13:15:00,55.9,47.0,0.00,East,90,3.4,5.4,72,0.00,,---,0.00,VWS V14.01,2013-07-27 18:15:00,
2013-07-27 13:16:00,55.9,47.0,0.00,East,90,3.1,4.0,72,0.00,,---,0.00,VWS V14.01,2013-07-27 18:16:00,
2013-07-27 13:17:00,55.9,47.0,0.00,East,90,3.1,4.0,72,0.00,,---,0.00,VWS V14.01,2013-07-27 18:17:00,
2013-07-27 13:18:00,55.9,47.0,0.00,SE,135,4.0,4.0,72,0.00,,---,0.00,VWS V14.01,2013-07-27 18:18:00,
2013-07-27 13:19:00,55.9,47.0,0.00,East,90,2.9,4.0,72,0.00,,---,0.00,VWS V14.01,2013-07-27 18:19:00,
2013-07-27 13:21:00,55.9,47.0,0.00,ESE,112,3.1,4.0,72,0.00,,---,0.00,VWS V14.01,2013-07-27 18:21:00,
2013-07-27 13:22:00,55.9,47.0,0.00,ESE,112,3.4,4.0,72,0.00,,---,0.00,VWS V14.01,2013-07-27 18:22:00,
2013-07-27 13:23:00,55.9,47.0,0.00,East,90,3.6,4.3,72,0.00,,---,0.00,VWS V14.01,2013-07-27 18:23:00,
2013-07-27 13:24:00,55.9,47.0,0.00,East,90,4.3,4.3,72,0.00,,---,0.00,VWS V14.01,2013-07-27 18:24:00,
2013-07-27 13:25:00,55.9,47.0,0.00,ESE,112,3.8,4.3,72,0.00,,---,0.00,VWS V14.01,2013-07-27 18:25:00,
2013-07-27 13:26:00,55.9,47.0,0.00,SE,135,3.4,4.3,72,0.00,,---,0.00,VWS V14.01,2013-07-27 18:26:00,
2013-07-27 13:27:00,55.9,47.0,0.00,East,90,4.0,4.3,72,0.00,,---,0.00,VWS V14.01,2013-07-27 18:27:00,
2013-07-27 13:28:00,55.9,47.0,0.00,East,90,5.4,5.4,72,0.00,,---,0.00,VWS V14.01,2013-07-27 18:28:00,
2013-07-27 13:29:00,55.9,47.0,0.00,SE,135,5.4,5.4,72,0.00,,---,0.00,VWS V14.01,2013-07-27 18:29:00,
2013-07-27 13:30:00,55.9,47.0,0.00,SE,135,4.9,5.6,72,0.00,,---,0.00,VWS V14.01,2013-07-27 18:30:00,
2013-07-27 13:31:00,55.9,47.0,0.00,SE,135,5.6,5.6,72,0.00,,---,0.00,VWS V14.01,2013-07-27 18:31:00,
2013-07-27 13:32:00,55.9,47.0,0.00,SE,135,3.8,5.6,72,0.00,,---,0.00,VWS V14.01,2013-07-27 18:32:00,
2013-07-27 13:33:00,55.9,47.0,0.00,SE,135,5.4,5.6,72,0.00,,---,0.00,VWS V14.01,2013-07-27 18:33:00,
2013-07-27 13:34:00,55.9,47.0,0.00,ESE,112,4.9,5.6,72,0.00,,---,0.00,VWS V14.01,2013-07-27 18:34:00,
2013-07-27 13:35:00,55.9,47.0,0.00,SE,135,4.3,5.6,72,0.00,,---,0.00,VWS V14.01,2013-07-27 18:35:00,
2013-07-27 13:36:00,55.9,47.0,0.00,SE,135,3.4,5.6,72,0.00,,---,0.00,VWS V14.01,2013-07-27 18:36:00,
2013-07-27 13:37:00,55.9,47.0,0.00,SE,135,5.4,5.6,72,0.00,,---,0.00,VWS V14.01,2013-07-27 18:37:00,
2013-07-27 13:38:00,55.9,47.0,0.00,ESE,112,3.6,5.6,72,0.00,,---,0.00,VWS V14.01,2013-07-27 18:38:00,
2013-07-27 13:39:00,55.7,46.8,0.00,ESE,112,5.6,6.3,72,0.00,,---,0.00,VWS V14.01,2013-07-27 18:39:00,
2013-07-27 13:40:00,55.7,46.8,0.00,SE,135,3.6,6.3,72,0.00,,---,0.00,VWS V14.01,2013-07-27 18:40:00,
2013-07-27 13:41:00,55.7,46.8,0.00,ESE,112,4.9,6.3,72,0.00,,---,0.00,VWS V14.01,2013-07-27 18:41:00,
2013-07-27 13:43:00,55.7,46.8,0.00,SE,135,5.8,6.3,72,0.00,,---,0.00,VWS V14.01,2013-07-27 18:43:00,
2013-07-27 13:44:00,55.7,46.8,0.00,SE,135,3.4,6.3,72,0.00,,---,0.00,VWS V14.01,2013-07-27 18:44:00,
2013-07-27 13:45:00,55.7,46.8,0.00,SE,135,3.8,6.3,72,0.00,,---,0.00,VWS V14.01,2013-07-27 18:45:00,
2013-07-27 13:46:00,55.7,47.2,0.00,ESE,112,6.5,6.5,73,0.00,,---,0.00,VWS V14.01,2013-07-27 18:46:00,
2013-07-27 13:47:00,55.7,47.2,0.00,SE,135,3.8,6.5,73,0.00,,---,0.00,VWS V14.01,2013-07-27 18:47:00,
2013-07-27 13:48:00,55.7,47.2,0.00,ESE,112,6.5,6.5,73,0.00,,---,0.00,VWS V14.01,2013-07-27 18:48:00,
2013-07-27 13:49:00,55.7,47.2,0.00,East,90,4.0,6.5,73,0.00,,---,0.00,VWS V14.01,2013-07-27 18:49:00,
2013-07-27 13:50:00,55.7,47.2,0.00,ESE,112,3.6,6.5,73,0.00,,---,0.00,VWS V14.01,2013-07-27 18:50:00,
2013-07-27 13:51:00,55.7,47.2,0.00,SE,135,4.0,6.5,73,0.00,,---,0.00,VWS V14.01,2013-07-27 18:51:00,
2013-07-27 13:52:00,55.7,47.2,0.00,SE,135,4.0,6.5,73,0.00,,---,0.00,VWS V14.01,2013-07-27 18:52:00,
2013-07-27 13:53:00,55.7,47.2,0.00,SE,135,3.8,6.5,73,0.00,,---,0.00,VWS V14.01,2013-07-27 18:53:00,
2013-07-27 13:54:00,55.7,47.2,0.00,SE,135,5.4,6.5,73,0.00,,---,0.00,VWS V14.01,2013-07-27 18:54:00,
2013-07-27 13:55:00,55.7,47.2,0.00,ESE,112,4.9,6.5,73,0.00,,---,0.00,VWS V14.01,2013-07-27 18:55:00,
2013-07-27 13:56:00,55.7,47.2,0.00,SE,135,3.4,6.5,73,0.00,,---,0.00,VWS V14.01,2013-07-27 18:56:00,
2013-07-27 13:57:00,55.7,47.2,0.00,SE,135,3.1,6.5,73,0.00,,---,0.00,VWS V14.01,2013-07-27 18:57:00,
2013-07-27 13:58:00,55.7,47.2,0.00,SE,135,3.8,6.5,73,0.00,,---,0.00,VWS V14.01,2013-07-27 18:58:00,
2013-07-27 13:59:00,55.7,47.2,0.00,ESE,112,4.3,6.5,73,0.00,,---,0.00,VWS V14.01,2013-07-27 18:59:00,
2013-07-27 14:00:00,55.7,47.2,0.00,SE,135,4.9,6.5,73,0.00,,---,0.00,VWS V14.01,2013-07-27 19:00:00,
2013-07-27 14:01:00,55.7,47.2,0.00,SE,135,3.1,4.9,73,0.00,,---,0.00,VWS V14.01,2013-07-27 19:01:00,
2013-07-27 14:02:00,55.7,47.2,0.00,East,90,4.0,4.9,73,0.00,,---,0.00,VWS V14.01,2013-07-27 19:02:00,
2013-07-27 14:03:00,55.7,47.2,0.00,ESE,112,4.0,4.9,73,0.00,,---,0.00,VWS V14.01,2013-07-27 19:03:00,
2013-07-27 14:04:00,55.7,47.2,0.00,ESE,112,3.6,4.9,73,0.00,,---,0.00,VWS V14.01,2013-07-27 19:04:00,
2013-07-27 14:05:00,55.7,47.2,0.00,East,90,2.5,5.4,73,0.00,,---,0.00,VWS V14.01,2013-07-27 19:05:00,
2013-07-27 14:06:00,55.7,47.2,0.00,ESE,112,3.1,5.4,73,0.00,,---,0.00,VWS V14.01,2013-07-27 19:06:00,
2013-07-27 14:07:00,55.7,47.2,0.00,ESE,112,4.3,5.4,73,0.00,,---,0.00,VWS V14.01,2013-07-27 19:07:00,
2013-07-27 14:08:00,55.7,47.2,0.00,SE,135,3.4,5.4,73,0.00,,---,0.00,VWS V14.01,2013-07-27 19:08:00,
2013-07-27 14:09:00,55.7,47.2,0.00,East,90,5.4,5.4,73,0.00,,---,0.00,VWS V14.01,2013-07-27 19:09:00,
2013-07-27 14:10:00,55.7,47.2,0.00,ESE,112,4.0,5.4,73,0.00,,---,0.00,VWS V14.01,2013-07-27 19:10:00,
2013-07-27 14:11:00,55.7,47.2,0.00,SE,135,3.4,5.4,73,0.00,,---,0.00,VWS V14.01,2013-07-27 19:11:00,
2013-07-27 14:12:00,55.7,47.6,0.00,SE,135,3.6,5.4,74,0.00,,---,0.00,VWS V14.01,2013-07-27 19:12:00,
2013-07-27 14:13:00,55.7,47.6,0.00,ESE,112,3.1,5.4,74,0.00,,---,0.00,VWS V14.01,2013-07-27 19:13:00,
2013-07-27 14:14:00,55.7,47.6,0.00,SE,135,4.0,5.4,74,0.00,,---,0.00,VWS V14.01,2013-07-27 19:14:00,
2013-07-27 14:15:00,55.7,47.6,0.00,SE,135,4.0,5.4,74,0.00,,---,0.00,VWS V14.01,2013-07-27 19:15:00,
2013-07-27 14:16:00,55.7,47.6,0.00,SE,135,3.1,4.3,74,0.00,,---,0.00,VWS V14.01,2013-07-27 19:16:00,
2013-07-27 14:17:00,55.7,47.6,0.00,SE,135,3.1,4.3,74,0.00,,---,0.00,VWS V14.01,2013-07-27 19:17:00,
2013-07-27 14:18:00,55.7,47.6,0.00,SE,135,4.0,4.3,74,0.00,,---,0.00,VWS V14.01,2013-07-27 19:18:00,
2013-07-27 14:19:00,55.7,47.6,0.00,East,90,4.0,4.3,74,0.00,,---,0.00,VWS V14.01,2013-07-27 19:19:00,
2013-07-27 14:20:00,55.7,47.6,0.00,SE,135,4.0,4.3,74,0.00,,---,0.00,VWS V14.01,2013-07-27 19:20:00,
2013-07-27 14:21:00,55.7,47.6,0.00,ESE,112,3.8,4.3,74,0.00,,---,0.00,VWS V14.01,2013-07-27 19:21:00,
2013-07-27 14:22:00,55.7,47.6,0.00,East,90,3.4,4.3,74,0.00,,---,0.00,VWS V14.01,2013-07-27 19:22:00,
2013-07-27 14:23:00,55.7,47.6,0.00,East,90,3.8,4.3,74,0.00,,---,0.00,VWS V14.01,2013-07-27 19:23:00,
2013-07-27 14:24:00,55.7,47.6,0.00,East,90,2.9,4.3,74,0.00,,---,0.00,VWS V14.01,2013-07-27 19:24:00,
2013-07-27 14:25:00,55.7,47.6,0.00,ENE,68,2.5,4.3,74,0.00,,---,0.00,VWS V14.01,2013-07-27 19:25:00,
2013-07-27 14:26:00,55.7,47.6,0.00,ESE,112,1.6,4.3,74,0.00,,---,0.00,VWS V14.01,2013-07-27 19:26:00,
2013-07-27 14:28:00,55.7,47.6,0.00,East,90,2.9,4.3,74,0.00,,---,0.00,VWS V14.01,2013-07-27 19:28:00,
2013-07-27 14:29:00,55.7,47.6,0.00,ESE,112,1.6,4.3,74,0.00,,---,0.00,VWS V14.01,2013-07-27 19:29:00,
2013-07-27 14:30:00,55.7,47.6,0.00,ESE,112,2.5,4.3,74,0.00,,---,0.00,VWS V14.01,2013-07-27 19:30:00,
2013-07-27 14:31:00,55.7,47.6,0.00,SE,135,2.5,3.4,74,0.00,,---,0.00,VWS V14.01,2013-07-27 19:31:00,
2013-07-27 14:32:00,55.7,47.6,0.00,ESE,112,3.1,3.4,74,0.00,,---,0.00,VWS V14.01,2013-07-27 19:32:00,
2013-07-27 14:33:00,55.9,47.7,0.00,East,90,2.5,3.4,74,0.00,,---,0.00,VWS V14.01,2013-07-27 19:33:00,
2013-07-27 14:34:00,55.9,47.7,0.00,East,90,2.5,3.4,74,0.00,,---,0.00,VWS V14.01,2013-07-27 19:34:00,
2013-07-27 14:35:00,55.9,47.7,0.00,ESE,112,2.0,3.4,74,0.00,,---,0.00,VWS V14.01,2013-07-27 19:35:00,
2013-07-27 14:36:00,55.9,47.7,0.00,ESE,112,1.3,3.4,74,0.00,,---,0.00,VWS V14.01,2013-07-27 19:36:00,
2013-07-27 14:38:00,55.9,47.7,0.00,ESE,112,1.6,3.4,74,0.00,,---,0.00,VWS V14.01,2013-07-27 19:38:00,
2013-07-27 14:39:00,55.9,47.7,0.00,East,90,2.5,3.4,74,0.00,,---,0.00,VWS V14.01,2013-07-27 19:39:00,
2013-07-27 14:40:00,55.9,47.7,0.00,SE,135,2.5,3.4,74,0.00,,---,0.00,VWS V14.01,2013-07-27 19:40:00,
2013-07-27 14:41:00,55.9,48.1,0.00,SE,135,3.4,3.4,75,0.00,,---,0.00,VWS V14.01,2013-07-27 19:41:00,
2013-07-27 14:42:00,55.9,48.1,0.00,SE,135,2.9,3.8,75,0.00,,---,0.00,VWS V14.01,2013-07-27 19:42:00,
2013-07-27 14:43:00,55.7,47.9,0.00,ESE,112,4.9,4.9,75,0.00,,---,0.00,VWS V14.01,2013-07-27 19:43:00,
2013-07-27 14:44:00,55.7,47.9,0.00,SE,135,2.5,4.9,75,0.00,,---,0.00,VWS V14.01,2013-07-27 19:44:00,
2013-07-27 14:45:00,55.7,47.9,0.00,East,90,3.6,4.9,75,0.00,,---,0.00,VWS V14.01,2013-07-27 19:45:00,
2013-07-27 14:46:00,55.7,47.9,0.00,ESE,112,3.1,3.6,75,0.00,,---,0.00,VWS V14.01,2013-07-27 19:46:00,
2013-07-27 14:47:00,55.7,47.9,0.00,East,90,2.0,3.8,75,0.00,,---,0.00,VWS V14.01,2013-07-27 19:47:00,
2013-07-27 14:48:00,55.7,47.9,0.00,East,90,2.9,3.8,75,0.00,,---,0.00,VWS V14.01,2013-07-27 19:48:00,
2013-07-27 14:49:00,55.7,47.9,0.00,East,90,2.7,3.8,75,0.00,,---,0.00,VWS V14.01,2013-07-27 19:49:00,
2013-07-27 14:50:00,55.7,47.9,0.00,East,90,1.3,3.8,75,0.00,,---,0.00,VWS V14.01,2013-07-27 19:50:00,
2013-07-27 14:51:00,55.7,47.9,0.00,NE,45,2.0,3.8,75,0.00,,---,0.00,VWS V14.01,2013-07-27 19:51:00,
2013-07-27 14:52:00,55.7,47.9,0.00,ESE,112,2.0,3.8,75,0.00,,---,0.00,VWS V14.01,2013-07-27 19:52:00,
2013-07-27 14:53:00,55.7,47.9,0.00,East,90,1.1,3.8,75,0.00,,---,0.00,VWS V14.01,2013-07-27 19:53:00,
2013-07-27 14:54:00,55.9,48.1,0.00,East,90,1.1,3.8,75,0.00,,---,0.00,VWS V14.01,2013-07-27 19:54:00,
2013-07-27 14:55:00,55.9,48.1,0.00,East,90,3.1,3.8,75,0.00,,---,0.00,VWS V14.01,2013-07-27 19:55:00,
2013-07-27 14:56:00,55.9,48.1,0.00,SE,135,2.9,3.8,75,0.00,,---,0.00,VWS V14.01,2013-07-27 19:56:00,
2013-07-27 14:57:00,55.9,48.1,0.00,ENE,68,1.6,3.8,75,0.00,,---,0.00,VWS V14.01,2013-07-27 19:57:00,
2013-07-27 14:58:00,55.9,48.1,0.00,East,90,3.4,3.8,75,0.00,,---,0.00,VWS V14.01,2013-07-27 19:58:00,
2013-07-27 14:59:00,55.9,48.5,0.00,NE,45,2.2,3.8,76,0.00,,---,0.00,VWS V14.01,2013-07-27 19:59:00,
2013-07-27 15:00:00,55.9,48.5,0.00,East,90,2.9,3.8,76,0.00,,---,0.00,VWS V14.01,2013-07-27 20:00:00,
2013-07-27 15:01:00,55.7,48.3,0.00,East,90,2.9,3.6,76,0.00,,---,0.00,VWS V14.01,2013-07-27 20:01:00,
2013-07-27 15:02:00,55.7,48.3,0.00,East,90,4.3,4.3,76,0.00,,---,0.00,VWS V14.01,2013-07-27 20:02:00,
2013-07-27 15:03:00,55.7,48.3,0.00,East,90,2.0,4.3,76,0.00,,---,0.00,VWS V14.01,2013-07-27 20:03:00,
2013-07-27 15:04:00,55.7,48.3,0.00,ESE,112,2.5,4.3,76,0.00,,---,0.00,VWS V14.01,2013-07-27 20:04:00,
2013-07-27 15:05:00,55.7,48.3,0.00,East,90,3.8,4.3,76,0.00,,---,0.00,VWS V14.01,2013-07-27 20:05:00,
2013-07-27 15:06:00,55.7,48.3,0.00,ESE,112,3.6,4.7,76,0.00,,---,0.00,VWS V14.01,2013-07-27 20:06:00,
2013-07-27 15:07:00,55.7,48.3,0.00,East,90,3.1,4.7,76,0.00,,---,0.00,VWS V14.01,2013-07-27 20:07:00,
2013-07-27 15:08:00,55.7,48.3,0.00,East,90,2.7,4.7,76,0.00,,---,0.00,VWS V14.01,2013-07-27 20:08:00,
2013-07-27 15:09:00,55.7,48.3,0.00,East,90,3.4,4.7,76,0.00,,---,0.00,VWS V14.01,2013-07-27 20:09:00,
2013-07-27 15:10:00,55.7,48.3,0.00,East,90,2.9,4.7,76,0.00,,---,0.00,VWS V14.01,2013-07-27 20:10:00,
2013-07-27 15:11:00,55.7,48.3,0.00,East,90,1.6,4.7,76,0.00,,---,0.00,VWS V14.01,2013-07-27 20:11:00,
2013-07-27 15:13:00,55.7,48.3,0.00,East,90,3.1,4.7,76,0.00,,---,0.00,VWS V14.01,2013-07-27 20:13:00,
2013-07-27 15:14:00,55.7,48.3,0.00,East,90,2.5,4.7,76,0.00,,---,0.00,VWS V14.01,2013-07-27 20:14:00,
2013-07-27 15:15:00,55.7,48.3,0.00,East,90,2.9,4.7,76,0.00,,---,0.00,VWS V14.01,2013-07-27 20:15:00,
2013-07-27 15:16:00,55.7,48.3,0.00,East,90,2.2,3.1,76,0.00,,---,0.00,VWS V14.01,2013-07-27 20:16:00,
2013-07-27 15:17:00,55.7,48.3,0.00,ESE,112,2.9,3.1,76,0.00,,---,0.00,VWS V14.01,2013-07-27 20:17:00,
2013-07-27 15:19:00,55.7,48.3,0.00,East,90,3.8,4.0,76,0.00,,---,0.00,VWS V14.01,2013-07-27 20:19:00,
2013-07-27 15:20:00,55.7,48.3,0.00,ESE,112,2.7,4.0,76,0.00,,---,0.00,VWS V14.01,2013-07-27 20:20:00,
2013-07-27 15:21:00,55.7,48.3,0.00,East,90,1.3,4.0,76,0.00,,---,0.00,VWS V14.01,2013-07-27 20:21:00,
2013-07-27 15:22:00,55.7,48.3,0.00,East,90,2.5,4.0,76,0.00,,---,0.00,VWS V14.01,2013-07-27 20:22:00,
2013-07-27 15:24:00,55.7,48.3,0.00,SE,135,2.5,4.0,76,0.00,,---,0.00,VWS V14.01,2013-07-27 20:24:00,
2013-07-27 15:25:00,55.7,48.3,0.00,SE,135,2.5,4.0,76,0.00,,---,0.00,VWS V14.01,2013-07-27 20:25:00,
2013-07-27 15:26:00,55.7,48.3,0.00,SE,135,2.7,4.0,76,0.00,,---,0.00,VWS V14.01,2013-07-27 20:26:00,
2013-07-27 15:27:00,55.7,48.3,0.00,SE,135,2.5,4.0,76,0.00,,---,0.00,VWS V14.01,2013-07-27 20:27:00,
2013-07-27 15:28:00,55.7,48.3,0.00,SE,135,1.1,4.0,76,0.00,,---,0.00,VWS V14.01,2013-07-27 20:28:00,
2013-07-27 15:29:00,55.7,48.3,0.00,SE,135,1.3,4.0,76,0.00,,---,0.00,VWS V14.01,2013-07-27 20:29:00,
2013-07-27 15:30:00,55.7,48.3,0.00,SE,135,1.3,4.0,76,0.00,,---,0.00,VWS V14.01,2013-07-27 20:30:00,
2013-07-27 15:31:00,55.7,48.6,0.00,SE,135,2.5,2.5,77,0.00,,---,0.00,VWS V14.01,2013-07-27 20:31:00,
2013-07-27 15:32:00,55.7,48.6,0.00,ESE,112,2.5,2.5,77,0.00,,---,0.00,VWS V14.01,2013-07-27 20:32:00,
2013-07-27 15:33:00,55.7,48.6,0.00,ESE,112,2.0,2.5,77,0.00,,---,0.00,VWS V14.01,2013-07-27 20:33:00,
2013-07-27 15:34:00,55.7,48.6,0.00,ESE,112,2.5,2.7,77,0.00,,---,0.00,VWS V14.01,2013-07-27 20:34:00,
2013-07-27 15:35:00,55.7,48.6,0.00,ESE,112,2.5,2.7,77,0.00,,---,0.00,VWS V14.01,2013-07-27 20:35:00,
2013-07-27 15:37:00,55.7,48.6,0.00,SE,135,2.5,2.9,77,0.00,,---,0.00,VWS V14.01,2013-07-27 20:37:00,
2013-07-27 15:38:00,55.7,48.6,0.00,East,90,2.5,2.9,77,0.00,,---,0.00,VWS V14.01,2013-07-27 20:38:00,
2013-07-27 15:39:00,55.7,48.6,0.00,East,90,2.5,2.9,77,0.00,,---,0.00,VWS V14.01,2013-07-27 20:39:00,
2013-07-27 15:40:00,55.7,48.6,0.00,East,90,1.6,2.9,77,0.00,,---,0.00,VWS V14.01,2013-07-27 20:40:00,
2013-07-27 15:41:00,55.7,48.6,0.00,ENE,68,1.6,2.9,77,0.00,,---,0.00,VWS V14.01,2013-07-27 20:41:00,
2013-07-27 15:42:00,55.7,48.6,0.00,East,90,3.1,3.1,77,0.00,,---,0.00,VWS V14.01,2013-07-27 20:42:00,
2013-07-27 15:44:00,55.7,48.6,0.00,East,90,2.2,3.1,77,0.00,,---,0.00,VWS V14.01,2013-07-27 20:44:00,
2013-07-27 15:45:00,55.7,48.6,0.00,ESE,112,2.0,3.1,77,0.00,,---,0.00,VWS V14.01,2013-07-27 20:45:00,
2013-07-27 15:46:00,55.7,48.6,0.00,ESE,112,3.1,3.1,77,0.00,,---,0.00,VWS V14.01,2013-07-27 20:46:00,
2013-07-27 15:47:00,55.7,48.6,0.00,SE,135,3.1,3.4,77,0.00,,---,0.00,VWS V14.01,2013-07-27 20:47:00,
2013-07-27 15:48:00,55.7,49.0,0.00,ESE,112,3.8,3.8,78,0.00,,---,0.00,VWS V14.01,2013-07-27 20:48:00,
2013-07-27 15:49:00,55.7,49.0,0.00,ESE,112,2.9,3.8,78,0.00,,---,0.00,VWS V14.01,2013-07-27 20:49:00,
2013-07-27 15:50:00,55.7,49.0,0.00,ESE,112,3.6,3.8,78,0.00,,---,0.00,VWS V14.01,2013-07-27 20:50:00,
2013-07-27 15:51:00,55.7,49.0,0.00,ESE,112,4.3,4.3,78,0.00,,---,0.00,VWS V14.01,2013-07-27 20:51:00,
2013-07-27 15:52:00,55.7,49.0,0.00,ESE,112,4.0,4.3,78,0.00,,---,0.00,VWS V14.01,2013-07-27 20:52:00,
2013-07-27 15:53:00,55.7,49.0,0.00,ESE,112,3.6,4.3,78,0.00,,---,0.00,VWS V14.01,2013-07-27 20:53:00,
2013-07-27 15:54:00,55.7,49.0,0.00,SE,135,4.3,4.3,78,0.00,,---,0.00,VWS V14.01,2013-07-27 20:54:00,
2013-07-27 15:55:00,55.7,49.3,0.00,East,90,2.9,4.3,79,0.00,,---,0.00,VWS V14.01,2013-07-27 20:55:00,
2013-07-27 15:56:00,55.7,49.3,0.00,SE,135,3.1,4.3,79,0.00,,---,0.00,VWS V14.01,2013-07-27 20:56:00,
2013-07-27 15:57:00,55.7,49.3,0.00,East,90,3.8,4.3,79,0.00,,---,0.00,VWS V14.01,2013-07-27 20:57:00,
2013-07-27 15:58:00,55.7,49.3,0.00,East,90,3.8,4.3,79,0.00,,---,0.00,VWS V14.01,2013-07-27 20:58:00,
2013-07-27 15:59:00,55.7,49.3,0.00,ESE,112,3.8,4.7,79,0.00,,---,0.00,VWS V14.01,2013-07-27 20:59:00,
2013-07-27 16:00:00,55.7,49.3,0.00,SE,135,2.7,4.7,79,0.00,,---,0.00,VWS V14.01,2013-07-27 21:00:00,
2013-07-27 16:01:00,55.7,49.3,0.00,SE,135,2.7,3.4,79,0.00,,---,0.00,VWS V14.01,2013-07-27 21:01:00,
2013-07-27 16:02:00,55.7,49.3,0.00,SE,135,2.7,3.4,79,0.00,,---,0.00,VWS V14.01,2013-07-27 21:02:00,
2013-07-27 16:03:00,55.7,49.3,0.00,ESE,112,2.2,3.4,79,0.00,,---,0.00,VWS V14.01,2013-07-27 21:03:00,
2013-07-27 16:04:00,55.7,49.0,0.00,SE,135,2.9,3.4,78,0.00,,---,0.00,VWS V14.01,2013-07-27 21:04:00,
2013-07-27 16:05:00,55.7,49.0,0.00,ESE,112,2.7,3.4,78,0.00,,---,0.00,VWS V14.01,2013-07-27 21:05:00,
2013-07-27 16:06:00,55.7,49.0,0.00,ESE,112,2.5,3.4,78,0.00,,---,0.00,VWS V14.01,2013-07-27 21:06:00,
2013-07-27 16:08:00,55.7,49.3,0.00,East,90,3.1,3.4,79,0.00,,---,0.00,VWS V14.01,2013-07-27 21:08:00,
2013-07-27 16:09:00,55.7,49.3,0.00,East,90,2.9,3.4,79,0.00,,---,0.00,VWS V14.01,2013-07-27 21:09:00,
2013-07-27 16:10:00,55.7,49.3,0.00,East,90,2.5,3.4,79,0.00,,---,0.00,VWS V14.01,2013-07-27 21:10:00,
2013-07-27 16:11:00,55.7,49.3,0.00,East,90,2.5,3.4,79,0.00,,---,0.00,VWS V14.01,2013-07-27 21:11:00,
2013-07-27 16:12:00,55.7,49.3,0.00,East,90,2.7,4.0,79,0.00,,---,0.00,VWS V14.01,2013-07-27 21:12:00,
2013-07-27 16:13:00,55.7,49.3,0.00,SE,135,2.9,4.0,79,0.00,,---,0.00,VWS V14.01,2013-07-27 21:13:00,
2013-07-27 16:14:00,55.7,49.7,0.00,East,90,3.6,4.0,80,0.00,,---,0.00,VWS V14.01,2013-07-27 21:14:00,
2013-07-27 16:15:00,55.7,49.7,0.00,East,90,4.0,4.0,80,0.00,,---,0.00,VWS V14.01,2013-07-27 21:15:00,
2013-07-27 16:16:00,55.7,49.7,0.00,East,90,2.2,4.0,80,0.00,,---,0.00,VWS V14.01,2013-07-27 21:16:00,
2013-07-27 16:17:00,55.7,49.7,0.00,East,90,2.0,4.0,80,0.00,,---,0.00,VWS V14.01,2013-07-27 21:17:00,
2013-07-27 16:18:00,55.7,49.7,0.00,NE,45,4.3,4.3,80,0.00,,---,0.00,VWS V14.01,2013-07-27 21:18:00,
2013-07-27 16:19:00,55.7,49.7,0.00,East,90,2.9,4.3,80,0.00,,---,0.00,VWS V14.01,2013-07-27 21:19:00,
2013-07-27 16:20:00,55.7,49.7,0.00,East,90,2.7,4.3,80,0.00,,---,0.00,VWS V14.01,2013-07-27 21:20:00,
2013-07-27 16:21:00,55.7,49.7,0.00,ESE,112,3.6,4.3,80,0.00,,---,0.00,VWS V14.01,2013-07-27 21:21:00,
2013-07-27 16:22:00,55.7,50.0,0.00,ESE,112,4.0,5.4,81,0.00,,---,0.00,VWS V14.01,2013-07-27 21:22:00,
2013-07-27 16:23:00,55.7,50.0,0.00,ESE,112,4.0,5.4,81,0.00,,---,0.00,VWS V14.01,2013-07-27 21:23:00,
2013-07-27 16:24:00,55.7,50.0,0.00,SE,135,4.0,5.4,81,0.00,,---,0.00,VWS V14.01,2013-07-27 21:24:00,
2013-07-27 16:25:00,55.7,50.0,0.00,SE,135,4.0,5.4,81,0.00,,---,0.00,VWS V14.01,2013-07-27 21:25:00,
2013-07-27 16:26:00,55.7,50.0,0.00,SE,135,3.8,5.4,81,0.00,,---,0.00,VWS V14.01,2013-07-27 21:26:00,
2013-07-27 16:27:00,55.7,50.0,0.00,ESE,112,4.3,5.4,81,0.00,,---,0.00,VWS V14.01,2013-07-27 21:27:00,
2013-07-27 16:28:00,55.7,50.0,0.00,ESE,112,4.0,6.0,81,0.00,,---,0.00,VWS V14.01,2013-07-27 21:28:00,
2013-07-27 16:29:00,55.5,49.8,0.00,SE,135,2.7,6.0,81,0.00,,---,0.00,VWS V14.01,2013-07-27 21:29:00,
2013-07-27 16:30:00,55.5,49.8,0.00,SE,135,4.7,6.0,81,0.00,,---,0.00,VWS V14.01,2013-07-27 21:30:00,
2013-07-27 16:31:00,55.5,49.8,0.00,SE,135,4.7,5.6,81,0.00,,---,0.00,VWS V14.01,2013-07-27 21:31:00,
2013-07-27 16:32:00,55.5,49.8,0.00,SSE,158,3.6,5.6,81,0.00,,---,0.00,VWS V14.01,2013-07-27 21:32:00,
2013-07-27 16:33:00,55.5,49.8,0.00,SE,135,4.7,5.6,81,0.00,,---,0.00,VWS V14.01,2013-07-27 21:33:00,
2013-07-27 16:35:00,55.4,49.6,0.00,SE,135,4.3,5.6,81,0.00,,---,0.00,VWS V14.01,2013-07-27 21:35:00,
2013-07-27 16:36:00,55.4,49.6,0.00,SE,135,4.3,5.6,81,0.00,,---,0.00,VWS V14.01,2013-07-27 21:36:00,
2013-07-27 16:37:00,55.4,49.6,0.00,SE,135,3.4,5.6,81,0.00,,---,0.00,VWS V14.01,2013-07-27 21:37:00,
2013-07-27 16:38:00,55.4,49.6,0.00,SE,135,4.7,5.6,81,0.00,,---,0.00,VWS V14.01,2013-07-27 21:38:00,
2013-07-27 16:39:00,55.4,49.6,0.00,SE,135,4.9,5.6,81,0.00,,---,0.00,VWS V14.01,2013-07-27 21:39:00,
2013-07-27 16:41:00,55.4,50.0,0.00,SE,135,5.6,5.6,82,0.00,,---,0.00,VWS V14.01,2013-07-27 21:41:00,
2013-07-27 16:42:00,55.4,50.0,0.00,SE,135,5.6,5.6,82,0.00,,---,0.00,VWS V14.01,2013-07-27 21:42:00,
2013-07-27 16:43:00,55.2,49.8,0.00,SE,135,4.3,5.6,82,0.00,,---,0.00,VWS V14.01,2013-07-27 21:43:00,
2013-07-27 16:44:00,55.2,49.8,0.00,SSE,158,5.4,5.6,82,0.00,,---,0.00,VWS V14.01,2013-07-27 21:44:00,
2013-07-27 16:45:00,55.2,49.8,0.00,SSE,158,6.0,6.3,82,0.00,,---,0.00,VWS V14.01,2013-07-27 21:45:00,
2013-07-27 16:46:00,55.2,49.8,0.00,SSE,158,4.3,6.0,82,0.00,,---,0.00,VWS V14.01,2013-07-27 21:46:00,
2013-07-27 16:47:00,55.2,49.8,0.00,South,180,6.5,6.5,82,0.00,,---,0.00,VWS V14.01,2013-07-27 21:47:00,
2013-07-27 16:48:00,55.2,49.8,0.00,South,180,6.5,6.5,82,0.00,,---,0.00,VWS V14.01,2013-07-27 21:48:00,
2013-07-27 16:49:00,55.0,49.9,0.00,South,180,5.4,6.5,83,0.00,,---,0.00,VWS V14.01,2013-07-27 21:49:00,
2013-07-27 16:50:00,55.0,49.9,0.00,South,180,6.0,6.5,83,0.00,,---,0.00,VWS V14.01,2013-07-27 21:50:00,
2013-07-27 16:51:00,55.0,49.9,0.00,SE,135,4.9,6.5,83,0.00,,---,0.00,VWS V14.01,2013-07-27 21:51:00,
2013-07-27 16:52:00,55.0,49.9,0.00,SSE,158,5.6,6.5,83,0.00,,---,0.00,VWS V14.01,2013-07-27 21:52:00,
2013-07-27 16:53:00,55.0,49.9,0.00,South,180,5.6,6.5,83,0.00,,---,0.00,VWS V14.01,2013-07-27 21:53:00,
2013-07-27 16:54:00,55.0,49.9,0.00,SSE,158,5.8,6.5,83,0.00,,---,0.00,VWS V14.01,2013-07-27 21:54:00,
2013-07-27 16:55:00,54.8,50.1,0.00,South,180,3.1,6.5,84,0.00,,---,0.00,VWS V14.01,2013-07-27 21:55:00,
2013-07-27 16:56:00,54.8,50.1,0.00,South,180,3.8,6.5,84,0.00,,---,0.00,VWS V14.01,2013-07-27 21:56:00,
2013-07-27 16:57:00,54.8,50.1,0.00,South,180,3.6,6.5,84,0.00,,---,0.00,VWS V14.01,2013-07-27 21:57:00,
2013-07-27 16:58:00,54.8,50.1,0.00,South,180,2.9,6.5,84,0.00,,---,0.00,VWS V14.01,2013-07-27 21:58:00,
2013-07-27 16:59:00,54.8,50.1,0.00,SSE,158,3.4,6.5,84,0.00,,---,0.00,VWS V14.01,2013-07-27 21:59:00,
2013-07-27 17:00:00,54.8,50.1,0.00,South,180,3.4,6.5,84,0.00,,---,0.00,VWS V14.01,2013-07-27 22:00:00,
2013-07-27 17:01:00,54.8,50.1,0.00,SSE,158,3.1,3.4,84,0.00,,---,0.00,VWS V14.01,2013-07-27 22:01:00,
2013-07-27 17:02:00,54.8,50.1,0.00,South,180,5.8,5.8,84,0.00,,---,0.00,VWS V14.01,2013-07-27 22:02:00,
2013-07-27 17:03:00,54.8,50.1,0.00,SSE,158,4.5,5.8,84,0.00,,---,0.00,VWS V14.01,2013-07-27 22:03:00,
2013-07-27 17:04:00,54.8,50.1,0.00,South,180,3.4,5.8,84,0.00,,---,0.00,VWS V14.01,2013-07-27 22:04:00,
2013-07-27 17:05:00,54.8,50.1,0.00,South,180,2.5,5.8,84,0.00,,---,0.00,VWS V14.01,2013-07-27 22:05:00,
2013-07-27 17:06:00,54.8,50.1,0.00,SSE,158,5.4,5.8,84,0.00,,---,0.00,VWS V14.01,2013-07-27 22:06:00,
2013-07-27 17:07:00,54.8,50.1,0.00,South,180,5.8,5.8,84,0.00,,---,0.00,VWS V14.01,2013-07-27 22:07:00,
2013-07-27 17:08:00,54.8,50.1,0.00,South,180,3.8,5.8,84,0.00,,---,0.00,VWS V14.01,2013-07-27 22:08:00,
2013-07-27 17:09:00,54.8,50.1,0.00,SSE,158,4.3,5.8,84,0.00,,---,0.00,VWS V14.01,2013-07-27 22:09:00,
2013-07-27 17:10:00,54.8,50.1,0.00,SE,135,5.6,5.8,84,0.00,,---,0.00,VWS V14.01,2013-07-27 22:10:00,
2013-07-27 17:11:00,54.8,50.1,0.00,SE,135,3.8,5.8,84,0.00,,---,0.00,VWS V14.01,2013-07-27 22:11:00,
2013-07-27 17:12:00,54.8,50.1,0.00,SE,135,3.4,5.8,84,0.00,,---,0.00,VWS V14.01,2013-07-27 22:12:00,
2013-07-27 17:13:00,54.8,50.1,0.00,SE,135,3.4,5.8,84,0.00,,---,0.00,VWS V14.01,2013-07-27 22:13:00,
2013-07-27 17:14:00,54.8,50.1,0.00,SE,135,4.9,5.8,84,0.00,,---,0.00,VWS V14.01,2013-07-27 22:14:00,
2013-07-27 17:16:00,54.8,50.1,0.00,SE,135,4.9,5.8,84,0.00,,---,0.00,VWS V14.01,2013-07-27 22:16:00,
2013-07-27 17:17:00,54.8,50.1,0.00,SE,135,6.0,7.4,84,0.00,,---,0.00,VWS V14.01,2013-07-27 22:17:00,
2013-07-27 17:18:00,54.8,50.1,0.00,SE,135,6.0,7.4,84,0.00,,---,0.00,VWS V14.01,2013-07-27 22:18:00,
2013-07-27 17:19:00,54.8,50.1,0.00,SE,135,6.3,7.4,84,0.00,,---,0.00,VWS V14.01,2013-07-27 22:19:00,
2013-07-27 17:20:00,54.8,50.1,0.00,SE,135,6.3,7.4,84,0.00,,---,0.00,VWS V14.01,2013-07-27 22:20:00,
2013-07-27 17:21:00,54.8,50.4,0.00,SE,135,6.0,7.4,85,0.00,,---,0.00,VWS V14.01,2013-07-27 22:21:00,
2013-07-27 17:22:00,54.8,50.4,0.00,SE,135,7.4,8.7,85,0.00,,---,0.00,VWS V14.01,2013-07-27 22:22:00,
2013-07-27 17:23:00,54.8,50.4,0.00,SE,135,7.4,8.7,85,0.00,,---,0.00,VWS V14.01,2013-07-27 22:23:00,
2013-07-27 17:24:00,54.8,50.4,0.00,SE,135,4.9,8.7,85,0.00,,---,0.00,VWS V14.01,2013-07-27 22:24:00,
2013-07-27 17:25:00,54.8,50.4,0.00,SE,135,5.8,8.7,85,0.00,,---,0.00,VWS V14.01,2013-07-27 22:25:00,
2013-07-27 17:26:00,54.8,50.4,0.00,SE,135,6.0,8.7,85,0.00,,---,0.00,VWS V14.01,2013-07-27 22:26:00,
2013-07-27 17:28:00,54.6,50.2,0.00,SE,135,6.3,8.7,85,0.00,,---,0.00,VWS V14.01,2013-07-27 22:28:00,
2013-07-27 17:29:00,54.6,50.2,0.00,SE,135,9.6,9.6,85,0.00,,---,0.00,VWS V14.01,2013-07-27 22:29:00,
2013-07-27 17:30:00,54.6,50.2,0.00,SE,135,9.4,9.8,85,0.00,,---,0.00,VWS V14.01,2013-07-27 22:30:00,
2013-07-27 17:31:00,54.6,50.2,0.00,SE,135,8.7,9.4,85,0.00,,---,0.00,VWS V14.01,2013-07-27 22:31:00,
2013-07-27 17:32:00,54.6,50.2,0.00,SE,135,8.7,10.3,85,0.00,,---,0.00,VWS V14.01,2013-07-27 22:32:00,
2013-07-27 17:34:00,54.6,50.2,0.00,SE,135,8.5,10.3,85,0.00,,---,0.00,VWS V14.01,2013-07-27 22:34:00,
2013-07-27 17:35:00,54.6,50.2,0.00,SE,135,5.8,10.3,85,0.00,,---,0.00,VWS V14.01,2013-07-27 22:35:00,
2013-07-27 17:36:00,54.6,50.2,0.00,SE,135,5.6,10.3,85,0.00,,---,0.00,VWS V14.01,2013-07-27 22:36:00,
2013-07-27 17:37:00,54.6,50.2,0.00,SE,135,5.6,10.3,85,0.00,,---,0.00,VWS V14.01,2013-07-27 22:37:00,
2013-07-27 17:39:00,54.6,50.2,0.00,SE,135,6.0,10.3,85,0.00,,---,0.00,VWS V14.01,2013-07-27 22:39:00,
2013-07-27 17:40:00,54.5,50.0,0.00,SE,135,5.8,10.3,85,0.00,,---,0.00,VWS V14.01,2013-07-27 22:40:00,
2013-07-27 17:42:00,54.5,50.0,0.00,SE,135,6.0,10.3,85,0.00,,---,0.00,VWS V14.01,2013-07-27 22:42:00,
2013-07-27 17:43:00,54.5,50.0,0.00,SE,135,5.6,10.3,85,0.00,,---,0.00,VWS V14.01,2013-07-27 22:43:00,
2013-07-27 17:44:00,54.5,50.0,0.00,SE,135,6.5,10.3,85,0.00,,---,0.00,VWS V14.01,2013-07-27 22:44:00,
2013-07-27 17:45:00,54.5,50.0,0.00,SE,135,5.8,10.3,85,0.00,,---,0.00,VWS V14.01,2013-07-27 22:45:00,
2013-07-27 17:46:00,54.5,50.0,0.00,SE,135,7.4,7.4,85,0.00,,---,0.00,VWS V14.01,2013-07-27 22:46:00,
2013-07-27 17:47:00,54.5,50.0,0.00,SE,135,4.7,7.4,85,0.00,,---,0.00,VWS V14.01,2013-07-27 22:47:00,
2013-07-27 17:48:00,54.5,49.7,0.00,SE,135,4.9,7.4,84,0.00,,---,0.00,VWS V14.01,2013-07-27 22:48:00,
2013-07-27 17:49:00,54.5,49.7,0.00,SE,135,5.4,7.4,84,0.00,,---,0.00,VWS V14.01,2013-07-27 22:49:00,
2013-07-27 17:50:00,54.5,49.7,0.00,SE,135,4.0,7.4,84,0.00,,---,0.00,VWS V14.01,2013-07-27 22:50:00,
2013-07-27 17:51:00,54.5,49.7,0.00,SSE,158,5.6,7.4,84,0.00,,---,0.00,VWS V14.01,2013-07-27 22:51:00,
2013-07-27 17:52:00,54.5,49.7,0.00,SSE,158,5.4,7.4,84,0.00,,---,0.00,VWS V14.01,2013-07-27 22:52:00,
2013-07-27 17:53:00,54.5,49.7,0.00,SE,135,4.3,7.4,84,0.00,,---,0.00,VWS V14.01,2013-07-27 22:53:00,
2013-07-27 17:54:00,54.5,49.7,0.00,SE,135,4.9,7.4,84,0.00,,---,0.00,VWS V14.01,2013-07-27 22:54:00,
2013-07-27 17:55:00,54.5,49.7,0.00,SSE,158,5.6,7.4,84,0.00,,---,0.00,VWS V14.01,2013-07-27 22:55:00,
2013-07-27 17:56:00,54.5,49.4,0.00,SE,135,3.6,7.4,83,0.00,,---,0.00,VWS V14.01,2013-07-27 22:56:00,
2013-07-27 17:57:00,54.5,49.4,0.00,SE,135,3.4,7.4,83,0.00,,---,0.00,VWS V14.01,2013-07-27 22:57:00,
2013-07-27 17:58:00,54.5,49.4,0.00,SE,135,3.8,7.4,83,0.00,,---,0.00,VWS V14.01,2013-07-27 22:58:00,
2013-07-27 17:59:00,54.5,49.4,0.00,SE,135,3.8,7.4,83,0.00,,---,0.00,VWS V14.01,2013-07-27 22:59:00,
2013-07-27 18:00:00,54.5,49.4,0.00,SE,135,4.3,7.4,83,0.00,,---,0.00,VWS V14.01,2013-07-27 23:00:00,
2013-07-27 18:01:00,54.3,49.2,0.00,SE,135,3.1,5.4,83,0.00,,---,0.00,VWS V14.01,2013-07-27 23:01:00,
2013-07-27 18:02:00,54.3,49.2,0.00,SE,135,4.9,5.4,83,0.00,,---,0.00,VWS V14.01,2013-07-27 23:02:00,
2013-07-27 18:03:00,54.3,49.2,0.00,SE,135,4.0,5.4,83,0.00,,---,0.00,VWS V14.01,2013-07-27 23:03:00,
2013-07-27 18:04:00,54.3,48.9,0.00,SE,135,4.7,6.5,82,0.00,,---,0.00,VWS V14.01,2013-07-27 23:04:00,
2013-07-27 18:05:00,54.3,48.9,0.00,SE,135,4.3,6.5,82,0.00,,---,0.00,VWS V14.01,2013-07-27 23:05:00,
2013-07-27 18:06:00,54.3,48.9,0.00,SE,135,5.8,6.5,82,0.00,,---,0.00,VWS V14.01,2013-07-27 23:06:00,
2013-07-27 18:07:00,54.3,48.9,0.00,SE,135,4.9,6.5,82,0.00,,---,0.00,VWS V14.01,2013-07-27 23:07:00,
2013-07-27 18:08:00,54.3,48.9,0.00,SE,135,4.9,6.5,82,0.00,,---,0.00,VWS V14.01,2013-07-27 23:08:00,
2013-07-27 18:09:00,54.3,48.6,0.00,SSE,158,5.6,6.5,81,0.00,,---,0.00,VWS V14.01,2013-07-27 23:09:00,
2013-07-27 18:10:00,54.3,48.6,0.00,SE,135,6.3,6.5,81,0.00,,---,0.00,VWS V14.01,2013-07-27 23:10:00,
2013-07-27 18:11:00,54.3,48.2,0.00,SSE,158,5.6,6.5,80,0.00,,---,0.00,VWS V14.01,2013-07-27 23:11:00,
2013-07-27 18:12:00,54.1,48.1,0.00,SE,135,5.6,6.5,80,0.00,,---,0.00,VWS V14.01,2013-07-27 23:12:00,
2013-07-27 18:13:00,54.1,48.1,0.00,SE,135,5.6,6.5,80,0.00,,---,0.00,VWS V14.01,2013-07-27 23:13:00,
2013-07-27 18:14:00,54.1,47.7,0.00,SE,135,5.6,6.5,79,0.00,,---,0.00,VWS V14.01,2013-07-27 23:14:00,
2013-07-27 18:15:00,54.1,47.7,0.00,SE,135,5.6,6.5,79,0.00,,---,0.00,VWS V14.01,2013-07-27 23:15:00,
2013-07-27 18:16:00,54.1,47.7,0.00,SE,135,5.4,5.6,79,0.00,,---,0.00,VWS V14.01,2013-07-27 23:16:00,
2013-07-27 18:17:00,54.1,47.7,0.00,SSE,158,3.8,5.6,79,0.00,,---,0.00,VWS V14.01,2013-07-27 23:17:00,
2013-07-27 18:18:00,54.1,47.7,0.00,SSE,158,4.3,5.6,79,0.00,,---,0.00,VWS V14.01,2013-07-27 23:18:00,
2013-07-27 18:19:00,54.1,47.7,0.00,SE,135,4.9,5.6,79,0.00,,---,0.00,VWS V14.01,2013-07-27 23:19:00,
2013-07-27 18:20:00,54.1,47.7,0.00,SE,135,4.0,5.6,79,0.00,,---,0.00,VWS V14.01,2013-07-27 23:20:00,
2013-07-27 18:21:00,54.1,47.7,0.00,SE,135,5.4,6.3,79,0.00,,---,0.00,VWS V14.01,2013-07-27 23:21:00,
2013-07-27 18:22:00,54.1,47.7,0.00,SSE,158,4.5,6.3,79,0.00,,---,0.00,VWS V14.01,2013-07-27 23:22:00,
2013-07-27 18:23:00,54.1,47.7,0.00,SE,135,2.9,6.3,79,0.00,,---,0.00,VWS V14.01,2013-07-27 23:23:00,
2013-07-27 18:24:00,54.1,47.7,0.00,SE,135,3.8,6.3,79,0.00,,---,0.00,VWS V14.01,2013-07-27 23:24:00,
2013-07-27 18:25:00,54.1,47.7,0.00,South,180,4.7,6.3,79,0.00,,---,0.00,VWS V14.01,2013-07-27 23:25:00,
2013-07-27 18:26:00,54.1,47.7,0.00,SE,135,5.4,6.3,79,0.00,,---,0.00,VWS V14.01,2013-07-27 23:26:00,
2013-07-27 18:28:00,54.1,47.7,0.00,ESE,112,3.1,6.3,79,0.00,,---,0.00,VWS V14.01,2013-07-27 23:28:00,
2013-07-27 18:29:00,54.1,47.7,0.00,ESE,112,4.3,6.3,79,0.00,,---,0.00,VWS V14.01,2013-07-27 23:29:00,
2013-07-27 18:30:00,53.9,48.2,0.00,ESE,112,5.4,6.3,81,0.00,,---,0.00,VWS V14.01,2013-07-27 23:30:00,
2013-07-27 18:31:00,53.7,48.1,0.00,SE,135,3.8,5.4,81,0.00,,---,0.00,VWS V14.01,2013-07-27 23:31:00,
2013-07-27 18:32:00,53.7,48.1,0.00,SE,135,3.6,5.4,81,0.00,,---,0.00,VWS V14.01,2013-07-27 23:32:00,
2013-07-27 18:33:00,53.7,48.1,0.00,ESE,112,3.6,5.4,81,0.00,,---,0.00,VWS V14.01,2013-07-27 23:33:00,
2013-07-27 18:34:00,53.6,48.2,0.00,East,90,4.3,5.4,82,0.00,,---,0.00,VWS V14.01,2013-07-27 23:34:00,
2013-07-27 18:35:00,53.6,48.2,0.00,East,90,2.7,5.4,82,0.00,,---,0.00,VWS V14.01,2013-07-27 23:35:00,
2013-07-27 18:36:00,53.6,48.2,0.00,ESE,112,3.8,5.4,82,0.00,,---,0.00,VWS V14.01,2013-07-27 23:36:00,
2013-07-27 18:37:00,53.6,48.2,0.00,ESE,112,3.4,5.4,82,0.00,,---,0.00,VWS V14.01,2013-07-27 23:37:00,
2013-07-27 18:38:00,53.6,48.2,0.00,SE,135,4.5,5.4,82,0.00,,---,0.00,VWS V14.01,2013-07-27 23:38:00,
2013-07-27 18:39:00,53.6,48.2,0.00,SE,135,4.0,5.4,82,0.00,,---,0.00,VWS V14.01,2013-07-27 23:39:00,
2013-07-27 18:40:00,53.4,48.4,0.00,SE,135,3.6,5.4,83,0.00,,---,0.00,VWS V14.01,2013-07-27 23:40:00,
2013-07-27 18:41:00,53.2,48.2,0.00,SE,135,3.6,5.4,83,0.00,,---,0.00,VWS V14.01,2013-07-27 23:41:00,
2013-07-27 18:42:00,53.2,48.2,0.00,SE,135,4.0,5.4,83,0.00,,---,0.00,VWS V14.01,2013-07-27 23:42:00,
2013-07-27 18:43:00,53.2,48.5,0.00,SE,135,4.3,5.6,84,0.00,,---,0.00,VWS V14.01,2013-07-27 23:43:00,
2013-07-27 18:44:00,53.0,48.3,0.00,SE,135,3.6,5.6,84,0.00,,---,0.00,VWS V14.01,2013-07-27 23:44:00,
2013-07-27 18:45:00,53.0,48.3,0.00,SE,135,4.0,5.6,84,0.00,,---,0.00,VWS V14.01,2013-07-27 23:45:00,
2013-07-27 18:46:00,52.8,48.5,0.00,SE,135,5.4,5.4,85,0.00,,---,0.00,VWS V14.01,2013-07-27 23:46:00,
2013-07-27 18:47:00,52.8,48.5,0.00,SE,135,8.7,8.7,85,0.00,,---,0.00,VWS V14.01,2013-07-27 23:47:00,
2013-07-27 18:48:00,52.8,48.2,0.00,SE,135,8.1,10.5,84,0.00,,---,0.00,VWS V14.01,2013-07-27 23:48:00,
2013-07-27 18:49:00,52.8,48.2,0.00,SE,135,8.1,10.5,84,0.00,,---,0.00,VWS V14.01,2013-07-27 23:49:00,
2013-07-27 18:50:00,52.7,47.7,0.00,SE,135,7.6,10.5,83,0.00,,---,0.00,VWS V14.01,2013-07-27 23:50:00,
2013-07-27 18:51:00,52.7,48.0,0.00,SE,135,7.4,10.5,84,0.00,,---,0.00,VWS V14.01,2013-07-27 23:51:00,
2013-07-27 18:52:00,52.5,47.8,0.00,SE,135,9.0,10.5,84,0.00,,---,0.00,VWS V14.01,2013-07-27 23:52:00,
2013-07-27 18:53:00,52.5,47.8,0.00,SE,135,7.8,10.5,84,0.00,,---,0.00,VWS V14.01,2013-07-27 23:53:00,
2013-07-27 18:54:00,52.5,47.8,0.00,SE,135,8.1,10.5,84,0.00,,---,0.00,VWS V14.01,2013-07-27 23:54:00,
2013-07-27 18:55:00,52.5,47.8,0.00,SE,135,8.1,10.5,84,0.00,,---,0.00,VWS V14.01,2013-07-27 23:55:00,
2013-07-27 18:56:00,52.3,47.6,0.00,SE,135,6.5,10.5,84,0.00,,---,0.00,VWS V14.01,2013-07-27 23:56:00,
2013-07-27 18:57:00,52.3,47.6,0.00,SE,135,7.4,10.5,84,0.00,,---,0.00,VWS V14.01,2013-07-27 23:57:00,
2013-07-27 18:58:00,52.1,47.8,0.00,SSE,158,7.2,10.5,85,0.00,,---,0.00,VWS V14.01,2013-07-27 23:58:00,
2013-07-27 18:59:00,51.9,47.6,0.00,SSE,158,5.8,10.5,85,0.00,,---,0.00,VWS V14.01,2013-07-27 23:59:00,
2013-07-27 19:00:00,51.9,47.6,0.00,SE,135,6.0,10.5,85,0.00,,---,0.00,VWS V14.01,2013-07-28 00:00:00,
2013-07-27 19:01:00,51.9,47.6,0.00,SE,135,6.3,8.7,85,0.00,,---,0.00,VWS V14.01,2013-07-28 00:01:00,
2013-07-27 19:02:00,51.9,47.6,0.00,SSE,158,8.7,8.7,85,0.00,,---,0.00,VWS V14.01,2013-07-28 00:02:00,
2013-07-27 19:03:00,51.8,47.7,0.00,SE,135,6.3,8.7,86,0.00,,---,0.00,VWS V14.01,2013-07-28 00:03:00,
2013-07-27 19:04:00,51.8,47.7,0.00,SE,135,5.8,8.7,86,0.00,,---,0.00,VWS V14.01,2013-07-28 00:04:00,
2013-07-27 19:05:00,51.8,47.7,0.00,SE,135,5.4,8.7,86,0.00,,---,0.00,VWS V14.01,2013-07-28 00:05:00,
2013-07-27 19:06:00,51.6,47.5,0.00,SE,135,8.5,8.7,86,0.00,,---,0.00,VWS V14.01,2013-07-28 00:06:00,
2013-07-27 19:07:00,51.6,47.5,0.00,SE,135,8.5,8.7,86,0.00,,---,0.00,VWS V14.01,2013-07-28 00:07:00,
2013-07-27 19:08:00,51.6,47.8,0.00,SE,135,8.1,8.7,87,0.00,,---,0.00,VWS V14.01,2013-07-28 00:08:00,
2013-07-27 19:09:00,51.4,47.7,0.00,SE,135,4.9,8.7,87,0.00,,---,0.00,VWS V14.01,2013-07-28 00:09:00,
2013-07-27 19:10:00,51.4,47.7,0.00,SE,135,4.9,8.7,87,0.00,,---,0.00,VWS V14.01,2013-07-28 00:10:00,
2013-07-27 19:11:00,51.4,47.7,0.00,SE,135,5.6,8.7,87,0.00,,---,0.00,VWS V14.01,2013-07-28 00:11:00,
2013-07-27 19:12:00,51.4,48.0,0.00,SE,135,4.7,8.7,88,0.00,,---,0.00,VWS V14.01,2013-07-28 00:12:00,
2013-07-27 19:13:00,51.2,48.1,0.00,SE,135,4.9,8.7,89,0.00,,---,0.00,VWS V14.01,2013-07-28 00:13:00,
2013-07-27 19:14:00,51.2,48.1,0.00,SE,135,4.0,8.7,89,0.00,,---,0.00,VWS V14.01,2013-07-28 00:14:00,
2013-07-27 19:15:00,51.2,48.1,0.00,SE,135,6.5,8.7,89,0.00,,---,0.00,VWS V14.01,2013-07-28 00:15:00,
2013-07-27 19:16:00,51.2,48.4,0.00,SE,135,6.3,7.2,90,0.00,,---,0.00,VWS V14.01,2013-07-28 00:16:00,
2013-07-27 19:18:00,51.0,48.2,0.00,East,90,6.3,7.2,90,0.00,,---,0.00,VWS V14.01,2013-07-28 00:18:00,
2013-07-27 19:19:00,51.0,48.2,0.00,SE,135,5.4,7.2,90,0.00,,---,0.00,VWS V14.01,2013-07-28 00:19:00,
2013-07-27 19:20:00,51.0,48.2,0.00,SE,135,6.3,7.2,90,0.00,,---,0.00,VWS V14.01,2013-07-28 00:20:00,
2013-07-27 19:21:00,51.0,48.2,0.00,SE,135,6.5,7.6,90,0.00,,---,0.00,VWS V14.01,2013-07-28 00:21:00,
2013-07-27 19:22:00,51.0,48.2,0.00,SE,135,6.5,7.6,90,0.00,,---,0.00,VWS V14.01,2013-07-28 00:22:00,
2013-07-27 19:23:00,51.0,48.2,0.00,ESE,112,4.9,7.6,90,0.00,,---,0.00,VWS V14.01,2013-07-28 00:23:00,
2013-07-27 19:24:00,50.9,48.3,0.00,SE,135,6.0,7.6,91,0.00,,---,0.00,VWS V14.01,2013-07-28 00:24:00,
2013-07-27 19:25:00,50.9,48.3,0.00,SE,135,5.4,7.6,91,0.00,,---,0.00,VWS V14.01,2013-07-28 00:25:00,
2013-07-27 19:26:00,50.7,48.5,0.00,SE,135,3.8,7.6,92,0.00,,---,0.00,VWS V14.01,2013-07-28 00:26:00,
2013-07-27 19:27:00,50.7,48.5,0.00,ESE,112,7.2,7.6,92,0.00,,---,0.00,VWS V14.01,2013-07-28 00:27:00,
2013-07-27 19:28:00,50.7,48.5,0.00,SE,135,6.0,7.6,92,0.00,,---,0.00,VWS V14.01,2013-07-28 00:28:00,
2013-07-27 19:29:00,50.7,48.5,0.00,East,90,5.8,7.6,92,0.00,,---,0.00,VWS V14.01,2013-07-28 00:29:00,
2013-07-27 19:30:00,50.7,48.5,0.00,ESE,112,5.8,7.6,92,0.00,,---,0.00,VWS V14.01,2013-07-28 00:30:00,
2013-07-27 19:31:00,50.5,48.6,0.00,SE,135,4.9,5.8,93,0.00,,---,0.00,VWS V14.01,2013-07-28 00:31:00,
2013-07-27 19:32:00,50.5,48.6,0.00,SE,135,7.4,7.4,93,0.00,,---,0.00,VWS V14.01,2013-07-28 00:32:00,
2013-07-27 19:33:00,50.5,48.6,0.00,ESE,112,6.0,7.4,93,0.00,,---,0.00,VWS V14.01,2013-07-28 00:33:00,
2013-07-27 19:35:00,50.5,48.6,0.00,ESE,112,4.9,7.4,93,0.00,,---,0.00,VWS V14.01,2013-07-28 00:35:00,
2013-07-27 19:36:00,50.5,48.6,0.00,SE,135,3.1,7.4,93,0.00,,---,0.00,VWS V14.01,2013-07-28 00:36:00,
2013-07-27 19:37:00,50.5,48.6,0.00,SE,135,4.3,7.4,93,0.00,,---,0.00,VWS V14.01,2013-07-28 00:37:00,
2013-07-27 19:38:00,50.5,48.6,0.00,SE,135,4.3,7.4,93,0.00,,---,0.00,VWS V14.01,2013-07-28 00:38:00,
2013-07-27 19:39:00,50.5,48.6,0.00,ESE,112,3.4,7.4,93,0.00,,---,0.00,VWS V14.01,2013-07-28 00:39:00,
2013-07-27 19:40:00,50.5,48.8,0.00,SE,135,5.6,7.4,94,0.00,,---,0.00,VWS V14.01,2013-07-28 00:40:00,
2013-07-27 19:41:00,50.5,48.8,0.00,SE,135,4.7,7.4,94,0.00,,---,0.00,VWS V14.01,2013-07-28 00:41:00,
2013-07-27 19:42:00,50.5,48.8,0.00,SE,135,4.7,7.4,94,0.00,,---,0.00,VWS V14.01,2013-07-28 00:42:00,
2013-07-27 19:43:00,50.5,48.8,0.00,ESE,112,3.8,7.4,94,0.00,,---,0.00,VWS V14.01,2013-07-28 00:43:00,
2013-07-27 19:44:00,50.5,48.8,0.00,SE,135,5.6,7.4,94,0.00,,---,0.00,VWS V14.01,2013-07-28 00:44:00,
2013-07-27 19:45:00,50.5,48.8,0.00,SE,135,4.3,7.4,94,0.00,,---,0.00,VWS V14.01,2013-07-28 00:45:00,
2013-07-27 19:46:00,50.5,48.8,0.00,SE,135,4.3,4.3,94,0.00,,---,0.00,VWS V14.01,2013-07-28 00:46:00,
2013-07-27 19:47:00,50.5,48.8,0.00,SE,135,6.0,6.0,94,0.00,,---,0.00,VWS V14.01,2013-07-28 00:47:00,
2013-07-27 19:48:00,50.3,48.7,0.00,SE,135,6.9,6.9,94,0.00,,---,0.00,VWS V14.01,2013-07-28 00:48:00,
2013-07-27 19:49:00,50.3,48.7,0.00,SE,135,4.9,6.9,94,0.00,,---,0.00,VWS V14.01,2013-07-28 00:49:00,
2013-07-27 19:50:00,50.3,48.7,0.00,SE,135,3.8,6.9,94,0.00,,---,0.00,VWS V14.01,2013-07-28 00:50:00,
2013-07-27 19:52:00,50.3,48.7,0.00,SSE,158,3.8,6.9,94,0.00,,---,0.00,VWS V14.01,2013-07-28 00:52:00,
2013-07-27 19:53:00,50.3,48.7,0.00,SE,135,4.3,6.9,94,0.00,,---,0.00,VWS V14.01,2013-07-28 00:53:00,
2013-07-27 19:54:00,50.3,48.7,0.00,SE,135,5.4,6.9,94,0.00,,---,0.00,VWS V14.01,2013-07-28 00:54:00,
2013-07-27 19:55:00,50.3,48.7,0.00,SE,135,5.4,6.9,94,0.00,,---,0.00,VWS V14.01,2013-07-28 00:55:00,
2013-07-27 19:56:00,50.3,48.7,0.00,SE,135,4.7,6.9,94,0.00,,---,0.00,VWS V14.01,2013-07-28 00:56:00,
2013-07-27 19:57:00,50.3,49.0,0.00,ESE,112,5.6,6.9,95,0.00,,---,0.00,VWS V14.01,2013-07-28 00:57:00,
2013-07-27 19:58:00,50.3,49.0,0.00,ESE,112,4.0,6.9,95,0.00,,---,0.00,VWS V14.01,2013-07-28 00:58:00,
2013-07-27 19:59:00,50.3,49.0,0.00,ESE,112,4.0,6.9,95,0.00,,---,0.00,VWS V14.01,2013-07-28 00:59:00,
2013-07-27 20:00:00,50.3,49.0,0.00,SE,135,4.7,6.9,95,0.00,,---,0.00,VWS V14.01,2013-07-28 01:00:00,
2013-07-27 20:01:00,50.3,49.0,0.00,SE,135,3.6,4.7,95,0.00,,---,0.00,VWS V14.01,2013-07-28 01:01:00,
2013-07-27 20:02:00,50.3,49.0,0.00,SE,135,3.4,5.4,95,0.00,,---,0.00,VWS V14.01,2013-07-28 01:02:00,
2013-07-27 20:03:00,50.3,49.0,0.00,ESE,112,3.8,5.4,95,0.00,,---,0.00,VWS V14.01,2013-07-28 01:03:00,
2013-07-27 20:04:00,50.3,49.0,0.00,SE,135,5.6,5.6,95,0.00,,---,0.00,VWS V14.01,2013-07-28 01:04:00,
2013-07-27 20:05:00,50.3,49.0,0.00,SE,135,4.0,5.8,95,0.00,,---,0.00,VWS V14.01,2013-07-28 01:05:00,
2013-07-27 20:06:00,50.3,49.0,0.00,SE,135,6.0,6.3,95,0.00,,---,0.00,VWS V14.01,2013-07-28 01:06:00,
2013-07-27 20:07:00,50.3,49.0,0.00,SE,135,5.6,6.3,95,0.00,,---,0.00,VWS V14.01,2013-07-28 01:07:00,
2013-07-27 20:08:00,50.3,49.0,0.00,ESE,112,5.4,6.3,95,0.00,,---,0.00,VWS V14.01,2013-07-28 01:08:00,
2013-07-27 20:09:00,50.1,49.0,0.00,SE,135,5.8,6.3,96,0.00,,---,0.00,VWS V14.01,2013-07-28 01:09:00,
2013-07-27 20:10:00,50.1,49.0,0.00,ESE,112,6.0,7.2,96,0.00,,---,0.00,VWS V14.01,2013-07-28 01:10:00,
2013-07-27 20:11:00,50.1,49.0,0.00,East,90,5.4,7.2,96,0.00,,---,0.00,VWS V14.01,2013-07-28 01:11:00,
2013-07-27 20:12:00,50.1,49.0,0.00,East,90,5.6,7.2,96,0.00,,---,0.00,VWS V14.01,2013-07-28 01:12:00,
2013-07-27 20:13:00,50.1,49.0,0.00,SE,135,5.4,7.2,96,0.00,,---,0.00,VWS V14.01,2013-07-28 01:13:00,
2013-07-27 20:14:00,50.1,49.0,0.00,SE,135,5.6,7.2,96,0.00,,---,0.00,VWS V14.01,2013-07-28 01:14:00,
2013-07-27 20:15:00,50.1,49.0,0.00,SE,135,4.3,5.6,96,0.00,,---,0.00,VWS V14.01,2013-07-28 01:15:00,
2013-07-27 20:16:00,50.1,49.0,0.00,SE,135,5.6,5.8,96,0.00,,---,0.00,VWS V14.01,2013-07-28 01:16:00,
2013-07-27 20:17:00,50.1,49.0,0.00,SE,135,4.9,5.8,96,0.00,,---,0.00,VWS V14.01,2013-07-28 01:17:00,
2013-07-27 20:18:00,50.1,49.0,0.00,SE,135,4.3,5.8,96,0.00,,---,0.00,VWS V14.01,2013-07-28 01:18:00,
2013-07-27 20:19:00,50.3,49.2,0.00,East,90,3.8,5.8,96,0.00,,---,0.00,VWS V14.01,2013-07-28 01:19:00,
2013-07-27 20:20:00,50.3,49.2,0.00,SE,135,4.3,5.8,96,0.00,,---,0.00,VWS V14.01,2013-07-28 01:20:00,
2013-07-27 20:21:00,50.3,49.2,0.00,East,90,3.8,5.8,96,0.00,,---,0.00,VWS V14.01,2013-07-28 01:21:00,
2013-07-27 20:22:00,50.3,49.2,0.00,East,90,4.9,5.8,96,0.00,,---,0.00,VWS V14.01,2013-07-28 01:22:00,
2013-07-27 20:23:00,50.3,49.2,0.00,SE,135,6.5,6.5,96,0.00,,---,0.00,VWS V14.01,2013-07-28 01:23:00,
2013-07-27 20:24:00,50.3,49.2,0.00,SE,135,4.0,6.5,96,0.00,,---,0.00,VWS V14.01,2013-07-28 01:24:00,
2013-07-27 20:25:00,50.3,49.5,0.00,NE,45,3.6,6.5,97,0.00,,---,0.00,VWS V14.01,2013-07-28 01:25:00,
2013-07-27 20:26:00,50.3,49.5,0.00,East,90,4.9,6.5,97,0.00,,---,0.00,VWS V14.01,2013-07-28 01:26:00,
2013-07-27 20:27:00,50.3,49.5,0.00,ESE,112,4.3,6.5,97,0.00,,---,0.00,VWS V14.01,2013-07-28 01:27:00,
2013-07-27 20:28:00,50.3,49.5,0.00,ESE,112,4.0,6.5,97,0.00,,---,0.00,VWS V14.01,2013-07-28 01:28:00,
2013-07-27 20:29:00,50.5,49.7,0.00,ESE,112,3.8,6.5,97,0.00,,---,0.00,VWS V14.01,2013-07-28 01:29:00,
2013-07-27 20:30:00,50.3,49.5,0.00,SE,135,5.4,6.5,97,0.00,,---,0.00,VWS V14.01,2013-07-28 01:30:00,
2013-07-27 20:31:00,50.5,49.7,0.00,SE,135,6.5,6.5,97,0.00,,---,0.00,VWS V14.01,2013-07-28 01:31:00,
2013-07-27 20:32:00,50.5,49.7,0.00,East,90,5.6,6.5,97,0.00,,---,0.00,VWS V14.01,2013-07-28 01:32:00,
2013-07-27 20:33:00,50.5,49.7,0.00,ESE,112,3.6,6.5,97,0.00,,---,0.00,VWS V14.01,2013-07-28 01:33:00,
2013-07-27 20:34:00,50.5,49.7,0.00,SE,135,6.3,6.5,97,0.00,,---,0.00,VWS V14.01,2013-07-28 01:34:00,
2013-07-27 20:35:00,50.5,49.7,0.00,East,90,3.4,6.5,97,0.00,,---,0.00,VWS V14.01,2013-07-28 01:35:00,
2013-07-27 20:37:00,50.5,49.7,0.00,ESE,112,2.9,6.5,97,0.00,,---,0.00,VWS V14.01,2013-07-28 01:37:00,
2013-07-27 20:38:00,50.5,49.7,0.00,SE,135,5.6,6.5,97,0.00,,---,0.00,VWS V14.01,2013-07-28 01:38:00,
2013-07-27 20:39:00,50.5,49.7,0.00,SE,135,5.6,6.5,97,0.00,,---,0.00,VWS V14.01,2013-07-28 01:39:00,
2013-07-27 20:40:00,50.5,49.7,0.00,SE,135,3.4,6.5,97,0.00,,---,0.00,VWS V14.01,2013-07-28 01:40:00,
2013-07-27 20:41:00,50.5,49.7,0.00,ESE,112,4.5,6.5,97,0.00,,---,0.00,VWS V14.01,2013-07-28 01:41:00,
2013-07-27 20:42:00,50.5,49.7,0.00,East,90,4.3,6.5,97,0.00,,---,0.00,VWS V14.01,2013-07-28 01:42:00,
2013-07-27 20:43:00,50.5,49.7,0.00,East,90,5.6,6.5,97,0.00,,---,0.00,VWS V14.01,2013-07-28 01:43:00,
2013-07-27 20:44:00,50.5,49.7,0.00,East,90,3.8,6.5,97,0.00,,---,0.00,VWS V14.01,2013-07-28 01:44:00,
2013-07-27 20:45:00,50.5,49.7,0.00,ESE,112,3.8,6.5,97,0.00,,---,0.00,VWS V14.01,2013-07-28 01:45:00,
2013-07-27 20:46:00,50.5,49.7,0.00,East,90,3.4,4.3,97,0.00,,---,0.00,VWS V14.01,2013-07-28 01:46:00,
2013-07-27 20:47:00,50.7,49.9,0.00,SE,135,6.3,6.3,97,0.00,,---,0.00,VWS V14.01,2013-07-28 01:47:00,
2013-07-27 20:48:00,50.7,50.1,0.00,ESE,112,6.0,6.3,98,0.00,,---,0.00,VWS V14.01,2013-07-28 01:48:00,
2013-07-27 20:49:00,50.7,50.1,0.00,East,90,4.9,6.3,98,0.00,,---,0.00,VWS V14.01,2013-07-28 01:49:00,
2013-07-27 20:50:00,50.7,50.1,0.00,SE,135,4.9,6.3,98,0.00,,---,0.00,VWS V14.01,2013-07-28 01:50:00,
2013-07-27 20:51:00,50.7,50.1,0.00,SE,135,4.9,6.3,98,0.00,,---,0.00,VWS V14.01,2013-07-28 01:51:00,
2013-07-27 20:52:00,50.7,50.1,0.00,SE,135,6.0,6.3,98,0.00,,---,0.00,VWS V14.01,2013-07-28 01:52:00,
2013-07-27 20:53:00,50.7,50.1,0.00,East,90,4.0,6.3,98,0.00,,---,0.00,VWS V14.01,2013-07-28 01:53:00,
2013-07-27 20:54:00,50.7,50.1,0.00,East,90,5.6,7.2,98,0.00,,---,0.00,VWS V14.01,2013-07-28 01:54:00,
2013-07-27 20:55:00,50.7,50.1,0.00,ESE,112,6.3,7.2,98,0.00,,---,0.00,VWS V14.01,2013-07-28 01:55:00,
2013-07-27 20:56:00,50.7,50.1,0.00,East,90,5.8,7.2,98,0.00,,---,0.00,VWS V14.01,2013-07-28 01:56:00,
2013-07-27 20:57:00,50.7,50.1,0.00,East,90,6.5,7.2,98,0.00,,---,0.00,VWS V14.01,2013-07-28 01:57:00,
2013-07-27 20:58:00,50.7,50.1,0.00,ESE,112,5.4,7.2,98,0.00,,---,0.00,VWS V14.01,2013-07-28 01:58:00,
2013-07-27 20:59:00,50.7,50.1,0.00,ESE,112,6.5,7.2,98,0.00,,---,0.00,VWS V14.01,2013-07-28 01:59:00,
2013-07-27 21:00:00,50.7,50.1,0.00,ESE,112,5.4,7.2,98,0.00,,---,0.00,VWS V14.01,2013-07-28 02:00:00,
2013-07-27 21:01:00,50.7,50.1,0.00,East,90,6.5,6.5,98,0.00,,---,0.00,VWS V14.01,2013-07-28 02:01:00,
2013-07-27 21:02:00,50.7,50.1,0.00,NE,45,6.3,6.7,98,0.00,,---,0.00,VWS V14.01,2013-07-28 02:02:00,
2013-07-27 21:03:00,50.7,50.1,0.00,East,90,6.5,7.4,98,0.00,,---,0.00,VWS V14.01,2013-07-28 02:03:00,
2013-07-27 21:04:00,50.7,50.1,0.00,SE,135,4.3,7.4,98,0.00,,---,0.00,VWS V14.01,2013-07-28 02:04:00,
2013-07-27 21:05:00,50.7,50.1,0.00,ESE,112,7.4,7.4,98,0.00,,---,0.00,VWS V14.01,2013-07-28 02:05:00,
2013-07-27 21:06:00,50.7,50.1,0.00,ESE,112,3.6,7.4,98,0.00,,---,0.00,VWS V14.01,2013-07-28 02:06:00,
2013-07-27 21:07:00,50.9,50.3,0.00,East,90,3.4,7.4,98,0.00,,---,0.00,VWS V14.01,2013-07-28 02:07:00,
2013-07-27 21:08:00,50.9,50.3,0.00,SE,135,7.6,7.6,98,0.00,,---,0.00,VWS V14.01,2013-07-28 02:08:00,
2013-07-27 21:09:00,50.7,50.1,0.00,SE,135,6.5,7.6,98,0.00,,---,0.00,VWS V14.01,2013-07-28 02:09:00,
2013-07-27 21:10:00,50.7,50.1,0.00,SE,135,4.9,7.6,98,0.00,,---,0.00,VWS V14.01,2013-07-28 02:10:00,
2013-07-27 21:11:00,50.7,50.1,0.00,SE,135,8.1,8.1,98,0.00,,---,0.00,VWS V14.01,2013-07-28 02:11:00,
2013-07-27 21:12:00,50.7,50.1,0.00,SE,135,7.4,8.1,98,0.00,,---,0.00,VWS V14.01,2013-07-28 02:12:00,
2013-07-27 21:13:00,50.7,50.1,0.00,SE,135,6.0,8.5,98,0.00,,---,0.00,VWS V14.01,2013-07-28 02:13:00,
2013-07-27 21:14:00,50.7,50.1,0.00,SE,135,6.0,8.5,98,0.00,,---,0.00,VWS V14.01,2013-07-28 02:14:00,
2013-07-27 21:15:00,50.7,50.1,0.00,ESE,112,6.0,8.5,98,0.00,,---,0.00,VWS V14.01,2013-07-28 02:15:00,
2013-07-27 21:16:00,50.7,50.1,0.00,SE,135,6.5,6.5,98,0.00,,---,0.00,VWS V14.01,2013-07-28 02:16:00,
2013-07-27 21:17:00,50.7,50.1,0.00,SE,135,6.9,7.4,98,0.00,,---,0.00,VWS V14.01,2013-07-28 02:17:00,
2013-07-27 21:19:00,50.7,50.1,0.00,SE,135,7.2,7.8,98,0.00,,---,0.00,VWS V14.01,2013-07-28 02:19:00,
2013-07-27 21:20:00,50.9,50.3,0.00,SE,135,6.5,7.8,98,0.00,,---,0.00,VWS V14.01,2013-07-28 02:20:00,
2013-07-27 21:21:00,50.9,50.3,0.00,SE,135,7.6,7.8,98,0.00,,---,0.00,VWS V14.01,2013-07-28 02:21:00,
2013-07-27 21:22:00,50.9,50.3,0.00,SE,135,6.0,9.4,98,0.00,,---,0.00,VWS V14.01,2013-07-28 02:22:00,
2013-07-27 21:23:00,50.9,50.3,0.00,SE,135,7.6,9.4,98,0.00,,---,0.00,VWS V14.01,2013-07-28 02:23:00,
2013-07-27 21:24:00,50.9,50.3,0.00,ESE,112,6.5,9.4,98,0.00,,---,0.00,VWS V14.01,2013-07-28 02:24:00,
2013-07-27 21:25:00,51.0,50.5,0.00,SE,135,8.7,9.4,98,0.00,,---,0.00,VWS V14.01,2013-07-28 02:25:00,
2013-07-27 21:26:00,51.0,50.8,0.00,ESE,112,5.6,9.4,99,0.00,,---,0.00,VWS V14.01,2013-07-28 02:26:00,
2013-07-27 21:27:00,51.0,50.8,0.00,SE,135,4.9,9.4,99,0.00,,---,0.00,VWS V14.01,2013-07-28 02:27:00,
2013-07-27 21:28:00,51.0,50.8,0.00,SE,135,8.1,10.1,99,0.00,,---,0.00,VWS V14.01,2013-07-28 02:28:00,
2013-07-27 21:29:00,51.2,51.0,0.00,SE,135,3.8,10.1,99,0.00,,---,0.00,VWS V14.01,2013-07-28 02:29:00,
2013-07-27 21:30:00,51.2,51.0,0.00,SE,135,6.3,10.1,99,0.00,,---,0.00,VWS V14.01,2013-07-28 02:30:00,
2013-07-27 21:31:00,51.2,51.0,0.00,ESE,112,8.1,9.8,99,0.00,,---,0.00,VWS V14.01,2013-07-28 02:31:00,
2013-07-27 21:32:00,51.2,51.0,0.00,SE,135,8.7,9.8,99,0.00,,---,0.00,VWS V14.01,2013-07-28 02:32:00,
2013-07-27 21:33:00,51.2,51.0,0.00,SE,135,8.5,9.8,99,0.00,,---,0.00,VWS V14.01,2013-07-28 02:33:00,
2013-07-27 21:34:00,51.2,51.0,0.00,SE,135,5.8,9.8,99,0.00,,---,0.00,VWS V14.01,2013-07-28 02:34:00,
2013-07-27 21:35:00,51.2,51.0,0.00,SE,135,4.9,9.8,99,0.00,,---,0.00,VWS V14.01,2013-07-28 02:35:00,
2013-07-27 21:36:00,51.2,51.0,0.00,SE,135,8.7,9.8,99,0.00,,---,0.00,VWS V14.01,2013-07-28 02:36:00,
2013-07-27 21:37:00,51.2,51.0,0.00,SE,135,6.0,9.8,99,0.00,,---,0.00,VWS V14.01,2013-07-28 02:37:00,
2013-07-27 21:38:00,51.2,51.0,0.00,ESE,112,8.1,9.8,99,0.00,,---,0.00,VWS V14.01,2013-07-28 02:38:00,
2013-07-27 21:39:00,51.2,51.0,0.00,SE,135,7.2,9.8,99,0.00,,---,0.00,VWS V14.01,2013-07-28 02:39:00,
2013-07-27 21:40:00,51.2,51.0,0.00,SE,135,9.8,10.1,99,0.00,,---,0.00,VWS V14.01,2013-07-28 02:40:00,
2013-07-27 21:42:00,51.2,51.0,0.00,SE,135,7.4,10.1,99,0.00,,---,0.00,VWS V14.01,2013-07-28 02:42:00,
2013-07-27 21:43:00,51.0,50.8,0.00,SE,135,7.8,10.7,99,0.00,,---,0.00,VWS V14.01,2013-07-28 02:43:00,
2013-07-27 21:44:00,51.0,50.8,0.00,SE,135,7.4,10.7,99,0.00,,---,0.00,VWS V14.01,2013-07-28 02:44:00,
2013-07-27 21:45:00,51.0,50.8,0.00,SE,135,4.0,10.7,99,0.00,,---,0.00,VWS V14.01,2013-07-28 02:45:00,
2013-07-27 21:46:00,51.2,51.0,0.00,East,90,8.5,8.5,99,0.00,,---,0.00,VWS V14.01,2013-07-28 02:46:00,
2013-07-27 21:47:00,51.0,50.8,0.00,SE,135,4.9,8.5,99,0.00,,---,0.00,VWS V14.01,2013-07-28 02:47:00,
2013-07-27 21:48:00,51.0,50.8,0.00,SE,135,7.6,8.5,99,0.00,,---,0.00,VWS V14.01,2013-07-28 02:48:00,
2013-07-27 21:49:00,51.2,51.0,0.00,SE,135,7.4,8.5,99,0.00,,---,0.00,VWS V14.01,2013-07-28 02:49:00,
2013-07-27 21:50:00,51.2,51.0,0.00,SE,135,6.0,8.7,99,0.00,,---,0.00,VWS V14.01,2013-07-28 02:50:00,
2013-07-27 21:51:00,51.2,51.0,0.00,SE,135,7.8,11.0,99,0.00,,---,0.00,VWS V14.01,2013-07-28 02:51:00,
2013-07-27 21:52:00,51.2,51.0,0.00,ESE,112,8.5,11.0,99,0.00,,---,0.00,VWS V14.01,2013-07-28 02:52:00,
2013-07-27 21:53:00,51.2,51.0,0.00,SE,135,6.3,11.0,99,0.00,,---,0.00,VWS V14.01,2013-07-28 02:53:00,
2013-07-27 21:54:00,51.2,51.0,0.00,SE,135,6.3,11.0,99,0.00,,---,0.00,VWS V14.01,2013-07-28 02:54:00,
2013-07-27 21:55:00,51.2,51.0,0.00,SE,135,6.3,11.0,99,0.00,,---,0.00,VWS V14.01,2013-07-28 02:55:00,
2013-07-27 21:56:00,51.2,51.0,0.00,SE,135,7.8,11.0,99,0.00,,---,0.00,VWS V14.01,2013-07-28 02:56:00,
2013-07-27 21:57:00,51.2,51.0,0.00,SE,135,10.3,11.0,99,0.00,,---,0.00,VWS V14.01,2013-07-28 02:57:00,
2013-07-27 21:58:00,51.2,51.0,0.00,SE,135,9.8,11.0,99,0.00,,---,0.00,VWS V14.01,2013-07-28 02:58:00,
2013-07-27 21:59:00,51.2,51.0,0.00,SE,135,8.1,11.0,99,0.00,,---,0.00,VWS V14.01,2013-07-28 02:59:00,
2013-07-27 22:00:00,51.2,51.0,0.00,SE,135,10.5,11.0,99,0.00,,---,0.00,VWS V14.01,2013-07-28 03:00:00,
2013-07-27 22:01:00,51.2,51.0,0.00,SE,135,6.5,10.5,99,0.00,,---,0.00,VWS V14.01,2013-07-28 03:01:00,
2013-07-27 22:02:00,51.4,50.9,0.00,ESE,112,5.8,10.5,98,0.00,,---,0.00,VWS V14.01,2013-07-28 03:02:00,
2013-07-27 22:03:00,51.4,50.9,0.00,SE,135,8.1,10.5,98,0.00,,---,0.00,VWS V14.01,2013-07-28 03:03:00,
2013-07-27 22:04:00,51.4,51.1,0.00,SE,135,10.1,10.7,99,0.00,,---,0.00,VWS V14.01,2013-07-28 03:04:00,
2013-07-27 22:05:00,51.4,51.1,0.00,SE,135,9.8,10.7,99,0.00,,---,0.00,VWS V14.01,2013-07-28 03:05:00,
2013-07-27 22:06:00,51.4,51.1,0.00,SE,135,6.3,10.7,99,0.00,,---,0.00,VWS V14.01,2013-07-28 03:06:00,
2013-07-27 22:07:00,51.4,51.1,0.00,SE,135,6.3,10.7,99,0.00,,---,0.00,VWS V14.01,2013-07-28 03:07:00,
2013-07-27 22:08:00,51.4,51.1,0.00,SE,135,7.8,10.7,99,0.00,,---,0.00,VWS V14.01,2013-07-28 03:08:00,
2013-07-27 22:09:00,51.4,51.1,0.00,SE,135,7.6,10.7,99,0.00,,---,0.00,VWS V14.01,2013-07-28 03:09:00,
2013-07-27 22:10:00,51.6,51.3,0.00,SE,135,7.8,10.7,99,0.00,,---,0.00,VWS V14.01,2013-07-28 03:10:00,
2013-07-27 22:11:00,51.6,51.3,0.00,SE,135,9.2,10.7,99,0.00,,---,0.00,VWS V14.01,2013-07-28 03:11:00,
2013-07-27 22:12:00,51.6,51.3,0.00,SE,135,8.1,10.7,99,0.00,,---,0.00,VWS V14.01,2013-07-28 03:12:00,
2013-07-27 22:13:00,51.6,51.3,0.00,SE,135,8.1,10.7,99,0.00,,---,0.00,VWS V14.01,2013-07-28 03:13:00,
2013-07-27 22:14:00,51.6,51.3,0.00,SE,135,7.8,10.7,99,0.00,,---,0.00,VWS V14.01,2013-07-28 03:14:00,
2013-07-27 22:15:00,51.6,51.3,0.00,SE,135,7.8,10.7,99,0.00,,---,0.00,VWS V14.01,2013-07-28 03:15:00,
2013-07-27 22:16:00,51.6,51.3,0.00,SE,135,7.6,7.8,99,0.00,,---,0.00,VWS V14.01,2013-07-28 03:16:00,
2013-07-27 22:17:00,51.6,51.3,0.00,SE,135,7.6,7.8,99,0.00,,---,0.00,VWS V14.01,2013-07-28 03:17:00,
2013-07-27 22:18:00,51.6,51.3,0.00,SE,135,7.8,8.1,99,0.00,,---,0.00,VWS V14.01,2013-07-28 03:18:00,
2013-07-27 22:19:00,51.8,51.5,0.00,SE,135,8.1,9.6,99,0.00,,---,0.00,VWS V14.01,2013-07-28 03:19:00,
2013-07-27 22:20:00,51.9,51.7,0.00,SE,135,9.6,9.6,99,0.00,,---,0.00,VWS V14.01,2013-07-28 03:20:00,
2013-07-27 22:21:00,51.9,51.7,0.00,East,90,8.5,9.6,99,0.00,,---,0.00,VWS V14.01,2013-07-28 03:21:00,
2013-07-27 22:23:00,51.9,51.7,0.00,ESE,112,7.4,9.6,99,0.00,,---,0.00,VWS V14.01,2013-07-28 03:23:00,
2013-07-27 22:24:00,51.9,51.7,0.00,SE,135,7.8,9.8,99,0.00,,---,0.00,VWS V14.01,2013-07-28 03:24:00,
2013-07-27 22:25:00,52.1,51.8,0.00,SE,135,7.4,9.8,99,0.00,,---,0.00,VWS V14.01,2013-07-28 03:25:00,
2013-07-27 22:26:00,52.1,51.8,0.00,SE,135,7.6,9.8,99,0.00,,---,0.00,VWS V14.01,2013-07-28 03:26:00,
2013-07-27 22:27:00,52.1,51.8,0.00,SE,135,8.1,9.8,99,0.00,,---,0.00,VWS V14.01,2013-07-28 03:27:00,
2013-07-27 22:28:00,52.1,51.8,0.00,ESE,112,6.5,9.8,99,0.00,,---,0.00,VWS V14.01,2013-07-28 03:28:00,
2013-07-27 22:29:00,52.1,51.8,0.00,ESE,112,9.8,9.8,99,0.00,,---,0.00,VWS V14.01,2013-07-28 03:29:00,
2013-07-27 22:30:00,52.1,51.8,0.00,SE,135,7.4,10.5,99,0.00,,---,0.00,VWS V14.01,2013-07-28 03:30:00,
2013-07-27 22:31:00,52.1,51.8,0.00,SE,135,8.7,8.7,99,0.00,,---,0.00,VWS V14.01,2013-07-28 03:31:00,
2013-07-27 22:32:00,52.1,51.8,0.00,SE,135,6.3,8.7,99,0.00,,---,0.00,VWS V14.01,2013-07-28 03:32:00,
2013-07-27 22:33:00,52.1,51.8,0.00,SE,135,8.7,8.7,99,0.00,,---,0.00,VWS V14.01,2013-07-28 03:33:00,
2013-07-27 22:34:00,52.3,52.0,0.00,SE,135,6.9,10.1,99,0.00,,---,0.00,VWS V14.01,2013-07-28 03:34:00,
2013-07-27 22:35:00,52.3,52.0,0.00,ESE,112,6.3,10.1,99,0.00,,---,0.00,VWS V14.01,2013-07-28 03:35:00,
2013-07-27 22:36:00,52.3,52.0,0.00,SE,135,8.7,10.1,99,0.00,,---,0.00,VWS V14.01,2013-07-28 03:36:00,
2013-07-27 22:37:00,52.3,52.0,0.00,SE,135,6.3,10.1,99,0.00,,---,0.00,VWS V14.01,2013-07-28 03:37:00,
2013-07-27 22:38:00,52.3,52.0,0.00,SE,135,12.3,12.3,99,0.00,,---,0.00,VWS V14.01,2013-07-28 03:38:00,
2013-07-27 22:39:00,52.3,52.0,0.00,SE,135,8.5,12.5,99,0.00,,---,0.00,VWS V14.01,2013-07-28 03:39:00,
2013-07-27 22:40:00,52.3,52.0,0.00,SE,135,6.5,12.5,99,0.00,,---,0.00,VWS V14.01,2013-07-28 03:40:00,
2013-07-27 22:42:00,52.3,51.8,0.00,SE,135,8.5,12.5,98,0.00,,---,0.00,VWS V14.01,2013-07-28 03:42:00,
2013-07-27 22:43:00,52.3,51.8,0.00,SE,135,8.1,12.5,98,0.00,,---,0.00,VWS V14.01,2013-07-28 03:43:00,
2013-07-27 22:44:00,52.3,51.8,0.00,SE,135,10.1,12.5,98,0.00,,---,0.00,VWS V14.01,2013-07-28 03:44:00,
2013-07-27 22:45:00,52.3,51.8,0.00,SE,135,7.6,12.5,98,0.00,,---,0.00,VWS V14.01,2013-07-28 03:45:00,
2013-07-27 22:46:00,52.3,51.8,0.00,SE,135,6.3,7.6,98,0.00,,---,0.00,VWS V14.01,2013-07-28 03:46:00,
2013-07-27 22:48:00,52.3,51.8,0.00,SE,135,4.9,7.6,98,0.00,,---,0.00,VWS V14.01,2013-07-28 03:48:00,
2013-07-27 22:49:00,52.5,51.9,0.00,SE,135,7.6,7.6,98,0.00,,---,0.00,VWS V14.01,2013-07-28 03:49:00,
2013-07-27 22:50:00,52.5,51.9,0.00,SE,135,6.5,7.6,98,0.00,,---,0.00,VWS V14.01,2013-07-28 03:50:00,
2013-07-27 22:51:00,52.5,51.9,0.00,SE,135,6.5,7.6,98,0.00,,---,0.00,VWS V14.01,2013-07-28 03:51:00,
2013-07-27 22:53:00,52.5,51.9,0.00,SE,135,6.0,9.2,98,0.00,,---,0.00,VWS V14.01,2013-07-28 03:53:00,
2013-07-27 22:54:00,52.7,52.1,0.00,SE,135,7.8,9.2,98,0.00,,---,0.00,VWS V14.01,2013-07-28 03:54:00,
2013-07-27 22:55:00,52.7,52.1,0.00,SE,135,9.4,9.4,98,0.00,,---,0.00,VWS V14.01,2013-07-28 03:55:00,
2013-07-27 22:56:00,52.7,52.1,0.00,SE,135,7.6,9.8,98,0.00,,---,0.00,VWS V14.01,2013-07-28 03:56:00,
2013-07-27 22:57:00,52.7,52.1,0.00,SE,135,7.8,9.8,98,0.00,,---,0.00,VWS V14.01,2013-07-28 03:57:00,
2013-07-27 22:58:00,52.8,52.3,0.00,SE,135,7.8,9.8,98,0.00,,---,0.00,VWS V14.01,2013-07-28 03:58:00,
2013-07-27 22:59:00,52.8,52.3,0.00,SE,135,5.6,9.8,98,0.00,,---,0.00,VWS V14.01,2013-07-28 03:59:00,
2013-07-27 23:00:00,52.8,52.3,0.00,SE,135,6.5,9.8,98,0.00,,---,0.00,VWS V14.01,2013-07-28 04:00:00,
2013-07-27 23:01:00,53.0,52.5,0.00,SE,135,8.7,8.7,98,0.00,,---,0.00,VWS V14.01,2013-07-28 04:01:00,
2013-07-27 23:02:00,53.0,52.5,0.00,ESE,112,7.4,8.7,98,0.00,,---,0.00,VWS V14.01,2013-07-28 04:02:00,
2013-07-27 23:03:00,53.0,52.5,0.00,SE,135,8.1,8.7,98,0.00,,---,0.00,VWS V14.01,2013-07-28 04:03:00,
2013-07-27 23:04:00,53.0,52.5,0.00,SE,135,7.6,8.7,98,0.00,,---,0.00,VWS V14.01,2013-07-28 04:04:00,
2013-07-27 23:05:00,53.0,52.5,0.00,SE,135,6.3,8.7,98,0.00,,---,0.00,VWS V14.01,2013-07-28 04:05:00,
2013-07-27 23:06:00,53.0,52.5,0.00,SE,135,7.8,8.7,98,0.00,,---,0.00,VWS V14.01,2013-07-28 04:06:00,
2013-07-27 23:07:00,53.2,52.7,0.00,SE,135,5.4,8.7,98,0.00,,---,0.00,VWS V14.01,2013-07-28 04:07:00,
2013-07-27 23:08:00,53.2,52.7,0.00,SE,135,6.0,8.7,98,0.00,,---,0.00,VWS V14.01,2013-07-28 04:08:00,
2013-07-27 23:09:00,53.2,52.7,0.00,East,90,4.9,8.7,98,0.00,,---,0.00,VWS V14.01,2013-07-28 04:09:00,
2013-07-27 23:10:00,53.2,52.7,0.00,SE,135,6.0,8.7,98,0.00,,---,0.00,VWS V14.01,2013-07-28 04:10:00,
2013-07-27 23:11:00,53.4,52.8,0.00,East,90,8.5,8.7,98,0.00,,---,0.00,VWS V14.01,2013-07-28 04:11:00,
2013-07-27 23:12:00,53.4,52.8,0.00,SE,135,10.3,10.3,98,0.00,,---,0.00,VWS V14.01,2013-07-28 04:12:00,
2013-07-27 23:13:00,53.4,52.8,0.00,South,180,8.7,10.3,98,0.00,,---,0.00,VWS V14.01,2013-07-28 04:13:00,
2013-07-27 23:14:00,53.2,52.4,0.00,SE,135,7.6,10.3,97,0.00,,---,0.00,VWS V14.01,2013-07-28 04:14:00,
2013-07-27 23:15:00,53.4,52.5,0.00,SE,135,7.8,10.5,97,0.00,,---,0.00,VWS V14.01,2013-07-28 04:15:00,
2013-07-27 23:16:00,53.4,52.5,0.00,SE,135,6.0,9.8,97,0.00,,---,0.00,VWS V14.01,2013-07-28 04:16:00,
2013-07-27 23:18:00,53.4,52.5,0.00,SE,135,9.6,9.8,97,0.00,,---,0.00,VWS V14.01,2013-07-28 04:18:00,
2013-07-27 23:19:00,53.4,52.5,0.00,SE,135,6.5,9.8,97,0.00,,---,0.00,VWS V14.01,2013-07-28 04:19:00,
2013-07-27 23:20:00,53.4,52.5,0.00,SE,135,6.0,9.8,97,0.00,,---,0.00,VWS V14.01,2013-07-28 04:20:00,
2013-07-27 23:21:00,53.6,52.7,0.00,SE,135,6.0,9.8,97,0.00,,---,0.00,VWS V14.01,2013-07-28 04:21:00,
2013-07-27 23:22:00,53.6,52.7,0.00,SE,135,6.7,9.8,97,0.00,,---,0.00,VWS V14.01,2013-07-28 04:22:00,
2013-07-27 23:23:00,53.6,52.7,0.00,SE,135,5.6,9.8,97,0.00,,---,0.00,VWS V14.01,2013-07-28 04:23:00,
2013-07-27 23:24:00,53.6,52.7,0.00,ESE,112,7.6,9.8,97,0.00,,---,0.00,VWS V14.01,2013-07-28 04:24:00,
2013-07-27 23:25:00,53.6,52.7,0.00,SE,135,6.0,9.8,97,0.00,,---,0.00,VWS V14.01,2013-07-28 04:25:00,
2013-07-27 23:26:00,53.6,52.7,0.00,SE,135,6.3,9.8,97,0.00,,---,0.00,VWS V14.01,2013-07-28 04:26:00,
2013-07-27 23:27:00,53.6,52.7,0.00,SE,135,9.4,9.8,97,0.00,,---,0.00,VWS V14.01,2013-07-28 04:27:00,
2013-07-27 23:28:00,53.6,52.7,0.00,SE,135,7.8,9.8,97,0.00,,---,0.00,VWS V14.01,2013-07-28 04:28:00,
2013-07-27 23:29:00,53.6,52.7,0.00,SE,135,8.7,9.8,97,0.00,,---,0.00,VWS V14.01,2013-07-28 04:29:00,
2013-07-27 23:30:00,53.4,52.5,0.00,SE,135,9.8,11.0,97,0.00,,---,0.00,VWS V14.01,2013-07-28 04:30:00,
2013-07-27 23:31:00,53.6,52.5,0.00,SE,135,7.8,11.0,96,0.00,,---,0.00,VWS V14.01,2013-07-28 04:31:00,
2013-07-27 23:32:00,53.6,52.5,0.00,SE,135,10.1,11.0,96,0.00,,---,0.00,VWS V14.01,2013-07-28 04:32:00,
2013-07-27 23:34:00,53.6,52.5,0.00,SE,135,10.7,11.0,96,0.00,,---,0.00,VWS V14.01,2013-07-28 04:34:00,
2013-07-27 23:35:00,53.6,52.5,0.00,SE,135,7.4,11.0,96,0.00,,---,0.00,VWS V14.01,2013-07-28 04:35:00,
2013-07-27 23:36:00,53.6,52.7,0.00,SE,135,7.8,11.0,97,0.00,,---,0.00,VWS V14.01,2013-07-28 04:36:00,
2013-07-27 23:37:00,53.6,52.7,0.00,SE,135,9.8,11.0,97,0.00,,---,0.00,VWS V14.01,2013-07-28 04:37:00,
2013-07-27 23:38:00,53.6,52.7,0.00,SE,135,7.4,11.0,97,0.00,,---,0.00,VWS V14.01,2013-07-28 04:38:00,
2013-07-27 23:39:00,53.6,52.7,0.00,SE,135,8.7,11.0,97,0.00,,---,0.00,VWS V14.01,2013-07-28 04:39:00,
2013-07-27 23:40:00,53.6,52.7,0.00,SE,135,5.8,11.0,97,0.00,,---,0.00,VWS V14.01,2013-07-28 04:40:00,
2013-07-27 23:41:00,53.6,52.7,0.00,SE,135,7.4,11.0,97,0.00,,---,0.00,VWS V14.01,2013-07-28 04:41:00,
2013-07-27 23:42:00,53.6,52.7,0.00,SE,135,8.5,11.0,97,0.00,,---,0.00,VWS V14.01,2013-07-28 04:42:00,
2013-07-27 23:43:00,53.6,52.7,0.00,SE,135,7.6,11.0,97,0.00,,---,0.00,VWS V14.01,2013-07-28 04:43:00,
2013-07-27 23:44:00,53.6,52.7,0.00,SE,135,8.5,11.0,97,0.00,,---,0.00,VWS V14.01,2013-07-28 04:44:00,
2013-07-27 23:45:00,53.7,52.9,0.00,SE,135,6.5,11.0,97,0.00,,---,0.00,VWS V14.01,2013-07-28 04:45:00,
2013-07-27 23:46:00,53.6,52.7,0.00,SE,135,6.5,8.1,97,0.00,,---,0.00,VWS V14.01,2013-07-28 04:46:00,
2013-07-27 23:47:00,53.7,52.6,0.00,SE,135,8.1,8.1,96,0.00,,---,0.00,VWS V14.01,2013-07-28 04:47:00,
2013-07-27 23:48:00,53.7,52.9,0.00,SE,135,7.8,8.1,97,0.00,,---,0.00,VWS V14.01,2013-07-28 04:48:00,
2013-07-27 23:50:00,53.7,52.9,0.00,ESE,112,7.2,8.1,97,0.00,,---,0.00,VWS V14.01,2013-07-28 04:50:00,
2013-07-27 23:51:00,53.9,53.1,0.00,ESE,112,6.3,8.1,97,0.00,,---,0.00,VWS V14.01,2013-07-28 04:51:00,
2013-07-27 23:53:00,53.9,53.1,0.00,SE,135,5.4,8.1,97,0.00,,---,0.00,VWS V14.01,2013-07-28 04:53:00,
2013-07-27 23:54:00,53.9,53.1,0.00,ESE,112,6.5,8.1,97,0.00,,---,0.00,VWS V14.01,2013-07-28 04:54:00,
2013-07-27 23:56:00,53.9,53.1,0.00,SE,135,7.6,8.1,97,0.00,,---,0.00,VWS V14.01,2013-07-28 04:56:00,
2013-07-27 23:57:00,53.9,53.1,0.00,ESE,112,4.3,8.1,97,0.00,,---,0.00,VWS V14.01,2013-07-28 04:57:00,
2013-07-27 23:58:00,53.9,53.1,0.00,SE,135,7.8,8.1,97,0.00,,---,0.00,VWS V14.01,2013-07-28 04:58:00,
2013-07-27 23:59:00,54.1,53.3,0.00,SE,135,6.9,8.1,97,0.00,,---,0.00,VWS V14.01,2013-07-28 04:59:00,